<?xml version="1.0" encoding="UTF-8" standalone="no" ?>
<gpx xmlns="http://www.topografix.com/GPX/1/1" xmlns:xsi="http://www.w3.org/2001/XMLSchema-instance" xsi:schemaLocation="http://www.topografix.com/GPX/1/1 http://www.topografix.com/GPX/1/1/gpx.xsd" version="1.1" creator="VisuGPX - https://www.visugpx.com">
  <metadata>
    <name>Le Tabor de Saint Honoré, retour La Morte</name>
    <desc><![CDATA[Brouillard et vent mais Tabor avec un beau soleil !]]></desc>
  </metadata>
  <trk>
    <name><![CDATA[2020-07-16 15-59-47]]></name>
    <trkseg>
      <trkpt lat="44.9725" lon="5.82492">
        <ele>1496.91</ele>
        <time>2020-07-16T06:34:41Z</time>
      </trkpt>
      <trkpt lat="44.9725" lon="5.82493">
        <ele>1498.35</ele>
        <time>2020-07-16T06:34:43Z</time>
      </trkpt>
      <trkpt lat="44.9725" lon="5.82493">
        <ele>1496.43</ele>
        <time>2020-07-16T06:34:53Z</time>
      </trkpt>
      <trkpt lat="44.97251" lon="5.82493">
        <ele>1498.35</ele>
        <time>2020-07-16T06:34:58Z</time>
      </trkpt>
      <trkpt lat="44.97251" lon="5.82494">
        <ele>1499.31</ele>
        <time>2020-07-16T06:35:06Z</time>
      </trkpt>
      <trkpt lat="44.97251" lon="5.82492">
        <ele>1499.31</ele>
        <time>2020-07-16T06:35:17Z</time>
      </trkpt>
      <trkpt lat="44.97249" lon="5.82495">
        <ele>1498.35</ele>
        <time>2020-07-16T06:35:39Z</time>
      </trkpt>
      <trkpt lat="44.97246" lon="5.82497">
        <ele>1497.87</ele>
        <time>2020-07-16T06:36:06Z</time>
      </trkpt>
      <trkpt lat="44.97246" lon="5.82495">
        <ele>1497.87</ele>
        <time>2020-07-16T06:36:23Z</time>
      </trkpt>
      <trkpt lat="44.97246" lon="5.82495">
        <ele>1497.87</ele>
        <time>2020-07-16T06:36:40Z</time>
      </trkpt>
      <trkpt lat="44.97247" lon="5.82494">
        <ele>1497.87</ele>
        <time>2020-07-16T06:36:51Z</time>
      </trkpt>
      <trkpt lat="44.97247" lon="5.82498">
        <ele>1497.87</ele>
        <time>2020-07-16T06:37:05Z</time>
      </trkpt>
      <trkpt lat="44.97247" lon="5.82502">
        <ele>1497.87</ele>
        <time>2020-07-16T06:37:21Z</time>
      </trkpt>
      <trkpt lat="44.97249" lon="5.8251">
        <ele>1497.87</ele>
        <time>2020-07-16T06:37:36Z</time>
      </trkpt>
      <trkpt lat="44.97251" lon="5.82514">
        <ele>1497.87</ele>
        <time>2020-07-16T06:37:40Z</time>
      </trkpt>
      <trkpt lat="44.97252" lon="5.82519">
        <ele>1497.87</ele>
        <time>2020-07-16T06:37:52Z</time>
      </trkpt>
      <trkpt lat="44.97255" lon="5.82524">
        <ele>1497.87</ele>
        <time>2020-07-16T06:38:05Z</time>
      </trkpt>
      <trkpt lat="44.97259" lon="5.82532">
        <ele>1497.87</ele>
        <time>2020-07-16T06:38:19Z</time>
      </trkpt>
      <trkpt lat="44.97262" lon="5.82533">
        <ele>1497.39</ele>
        <time>2020-07-16T06:38:39Z</time>
      </trkpt>
      <trkpt lat="44.97266" lon="5.82533">
        <ele>1497.39</ele>
        <time>2020-07-16T06:38:57Z</time>
      </trkpt>
      <trkpt lat="44.97266" lon="5.82535">
        <ele>1497.39</ele>
        <time>2020-07-16T06:39:18Z</time>
      </trkpt>
      <trkpt lat="44.97267" lon="5.82534">
        <ele>1497.39</ele>
        <time>2020-07-16T06:39:19Z</time>
      </trkpt>
      <trkpt lat="44.97269" lon="5.82534">
        <ele>1497.39</ele>
        <time>2020-07-16T06:39:20Z</time>
      </trkpt>
      <trkpt lat="44.97271" lon="5.82535">
        <ele>1497.39</ele>
        <time>2020-07-16T06:39:22Z</time>
      </trkpt>
      <trkpt lat="44.97272" lon="5.82535">
        <ele>1497.39</ele>
        <time>2020-07-16T06:39:23Z</time>
      </trkpt>
      <trkpt lat="44.97274" lon="5.82535">
        <ele>1497.39</ele>
        <time>2020-07-16T06:39:25Z</time>
      </trkpt>
      <trkpt lat="44.97275" lon="5.82535">
        <ele>1497.39</ele>
        <time>2020-07-16T06:39:26Z</time>
      </trkpt>
      <trkpt lat="44.97276" lon="5.82535">
        <ele>1497.39</ele>
        <time>2020-07-16T06:39:27Z</time>
      </trkpt>
      <trkpt lat="44.97284" lon="5.8254">
        <ele>1496.43</ele>
        <time>2020-07-16T06:39:35Z</time>
      </trkpt>
      <trkpt lat="44.97282" lon="5.8255">
        <ele>1496.91</ele>
        <time>2020-07-16T06:39:48Z</time>
      </trkpt>
      <trkpt lat="44.97281" lon="5.82553">
        <ele>1496.43</ele>
        <time>2020-07-16T06:39:51Z</time>
      </trkpt>
      <trkpt lat="44.9728" lon="5.82554">
        <ele>1496.43</ele>
        <time>2020-07-16T06:39:52Z</time>
      </trkpt>
      <trkpt lat="44.97278" lon="5.82556">
        <ele>1494.99</ele>
        <time>2020-07-16T06:39:55Z</time>
      </trkpt>
      <trkpt lat="44.97263" lon="5.82561">
        <ele>1491.62</ele>
        <time>2020-07-16T06:40:09Z</time>
      </trkpt>
      <trkpt lat="44.97259" lon="5.8256">
        <ele>1491.62</ele>
        <time>2020-07-16T06:40:13Z</time>
      </trkpt>
      <trkpt lat="44.97257" lon="5.82564">
        <ele>1493.55</ele>
        <time>2020-07-16T06:40:18Z</time>
      </trkpt>
      <trkpt lat="44.97247" lon="5.82588">
        <ele>1492.1</ele>
        <time>2020-07-16T06:40:34Z</time>
      </trkpt>
      <trkpt lat="44.97245" lon="5.82598">
        <ele>1491.62</ele>
        <time>2020-07-16T06:40:46Z</time>
      </trkpt>
      <trkpt lat="44.97244" lon="5.82599">
        <ele>1491.62</ele>
        <time>2020-07-16T06:40:47Z</time>
      </trkpt>
      <trkpt lat="44.97242" lon="5.82599">
        <ele>1491.62</ele>
        <time>2020-07-16T06:40:48Z</time>
      </trkpt>
      <trkpt lat="44.97242" lon="5.826">
        <ele>1491.62</ele>
        <time>2020-07-16T06:40:49Z</time>
      </trkpt>
      <trkpt lat="44.97241" lon="5.82602">
        <ele>1491.14</ele>
        <time>2020-07-16T06:40:50Z</time>
      </trkpt>
      <trkpt lat="44.97238" lon="5.82614">
        <ele>1491.14</ele>
        <time>2020-07-16T06:40:58Z</time>
      </trkpt>
      <trkpt lat="44.97238" lon="5.82618">
        <ele>1491.14</ele>
        <time>2020-07-16T06:41:01Z</time>
      </trkpt>
      <trkpt lat="44.97237" lon="5.82627">
        <ele>1492.58</ele>
        <time>2020-07-16T06:41:10Z</time>
      </trkpt>
      <trkpt lat="44.97237" lon="5.82628">
        <ele>1492.1</ele>
        <time>2020-07-16T06:41:11Z</time>
      </trkpt>
      <trkpt lat="44.97236" lon="5.8263">
        <ele>1492.1</ele>
        <time>2020-07-16T06:41:12Z</time>
      </trkpt>
      <trkpt lat="44.97234" lon="5.82649">
        <ele>1492.58</ele>
        <time>2020-07-16T06:41:28Z</time>
      </trkpt>
      <trkpt lat="44.97234" lon="5.82653">
        <ele>1492.58</ele>
        <time>2020-07-16T06:41:31Z</time>
      </trkpt>
      <trkpt lat="44.97233" lon="5.82662">
        <ele>1493.06</ele>
        <time>2020-07-16T06:41:38Z</time>
      </trkpt>
      <trkpt lat="44.97232" lon="5.82682">
        <ele>1494.99</ele>
        <time>2020-07-16T06:41:53Z</time>
      </trkpt>
      <trkpt lat="44.9723" lon="5.82701">
        <ele>1497.39</ele>
        <time>2020-07-16T06:42:10Z</time>
      </trkpt>
      <trkpt lat="44.97228" lon="5.82717">
        <ele>1499.31</ele>
        <time>2020-07-16T06:42:24Z</time>
      </trkpt>
      <trkpt lat="44.9723" lon="5.8273">
        <ele>1502.2</ele>
        <time>2020-07-16T06:42:37Z</time>
      </trkpt>
      <trkpt lat="44.97237" lon="5.82749">
        <ele>1505.08</ele>
        <time>2020-07-16T06:42:58Z</time>
      </trkpt>
      <trkpt lat="44.97242" lon="5.82763">
        <ele>1507.97</ele>
        <time>2020-07-16T06:43:15Z</time>
      </trkpt>
      <trkpt lat="44.97247" lon="5.82774">
        <ele>1511.33</ele>
        <time>2020-07-16T06:43:29Z</time>
      </trkpt>
      <trkpt lat="44.97252" lon="5.82786">
        <ele>1514.21</ele>
        <time>2020-07-16T06:43:46Z</time>
      </trkpt>
      <trkpt lat="44.97264" lon="5.82794">
        <ele>1518.54</ele>
        <time>2020-07-16T06:44:08Z</time>
      </trkpt>
      <trkpt lat="44.97277" lon="5.82801">
        <ele>1520.94</ele>
        <time>2020-07-16T06:44:27Z</time>
      </trkpt>
      <trkpt lat="44.97286" lon="5.82813">
        <ele>1523.83</ele>
        <time>2020-07-16T06:44:48Z</time>
      </trkpt>
      <trkpt lat="44.97291" lon="5.82822">
        <ele>1526.71</ele>
        <time>2020-07-16T06:45:08Z</time>
      </trkpt>
      <trkpt lat="44.97299" lon="5.82833">
        <ele>1530.08</ele>
        <time>2020-07-16T06:45:24Z</time>
      </trkpt>
      <trkpt lat="44.9731" lon="5.82839">
        <ele>1532.96</ele>
        <time>2020-07-16T06:45:39Z</time>
      </trkpt>
      <trkpt lat="44.97315" lon="5.82849">
        <ele>1536.32</ele>
        <time>2020-07-16T06:45:56Z</time>
      </trkpt>
      <trkpt lat="44.97326" lon="5.82855">
        <ele>1539.21</ele>
        <time>2020-07-16T06:46:14Z</time>
      </trkpt>
      <trkpt lat="44.97334" lon="5.82858">
        <ele>1542.09</ele>
        <time>2020-07-16T06:46:30Z</time>
      </trkpt>
      <trkpt lat="44.97335" lon="5.82858">
        <ele>1542.57</ele>
        <time>2020-07-16T06:46:31Z</time>
      </trkpt>
      <trkpt lat="44.97337" lon="5.8286">
        <ele>1542.57</ele>
        <time>2020-07-16T06:46:33Z</time>
      </trkpt>
      <trkpt lat="44.97339" lon="5.82862">
        <ele>1542.57</ele>
        <time>2020-07-16T06:46:37Z</time>
      </trkpt>
      <trkpt lat="44.97339" lon="5.82864">
        <ele>1542.57</ele>
        <time>2020-07-16T06:46:38Z</time>
      </trkpt>
      <trkpt lat="44.97342" lon="5.82865">
        <ele>1542.57</ele>
        <time>2020-07-16T06:46:43Z</time>
      </trkpt>
      <trkpt lat="44.97348" lon="5.8287">
        <ele>1544.01</ele>
        <time>2020-07-16T06:46:51Z</time>
      </trkpt>
      <trkpt lat="44.97354" lon="5.82878">
        <ele>1545.94</ele>
        <time>2020-07-16T06:47:04Z</time>
      </trkpt>
      <trkpt lat="44.97356" lon="5.82879">
        <ele>1546.42</ele>
        <time>2020-07-16T06:47:06Z</time>
      </trkpt>
      <trkpt lat="44.97375" lon="5.82889">
        <ele>1549.3</ele>
        <time>2020-07-16T06:47:26Z</time>
      </trkpt>
      <trkpt lat="44.97379" lon="5.82901">
        <ele>1552.19</ele>
        <time>2020-07-16T06:47:45Z</time>
      </trkpt>
      <trkpt lat="44.97386" lon="5.82909">
        <ele>1554.59</ele>
        <time>2020-07-16T06:47:57Z</time>
      </trkpt>
      <trkpt lat="44.97387" lon="5.82916">
        <ele>1555.55</ele>
        <time>2020-07-16T06:48:03Z</time>
      </trkpt>
      <trkpt lat="44.9738" lon="5.82919">
        <ele>1557.95</ele>
        <time>2020-07-16T06:48:26Z</time>
      </trkpt>
      <trkpt lat="44.97357" lon="5.82907">
        <ele>1560.84</ele>
        <time>2020-07-16T06:48:49Z</time>
      </trkpt>
      <trkpt lat="44.97327" lon="5.82894">
        <ele>1563.72</ele>
        <time>2020-07-16T06:49:18Z</time>
      </trkpt>
      <trkpt lat="44.97306" lon="5.82892">
        <ele>1566.61</ele>
        <time>2020-07-16T06:49:42Z</time>
      </trkpt>
      <trkpt lat="44.97298" lon="5.82895">
        <ele>1567.57</ele>
        <time>2020-07-16T06:49:55Z</time>
      </trkpt>
      <trkpt lat="44.97301" lon="5.82908">
        <ele>1569.97</ele>
        <time>2020-07-16T06:50:15Z</time>
      </trkpt>
      <trkpt lat="44.97323" lon="5.82913">
        <ele>1571.41</ele>
        <time>2020-07-16T06:50:37Z</time>
      </trkpt>
      <trkpt lat="44.97339" lon="5.82917">
        <ele>1574.3</ele>
        <time>2020-07-16T06:50:56Z</time>
      </trkpt>
      <trkpt lat="44.97351" lon="5.82932">
        <ele>1576.7</ele>
        <time>2020-07-16T06:51:14Z</time>
      </trkpt>
      <trkpt lat="44.97378" lon="5.82958">
        <ele>1580.06</ele>
        <time>2020-07-16T06:51:42Z</time>
      </trkpt>
      <trkpt lat="44.97395" lon="5.82979">
        <ele>1583.43</ele>
        <time>2020-07-16T06:52:10Z</time>
      </trkpt>
      <trkpt lat="44.97402" lon="5.83014">
        <ele>1586.31</ele>
        <time>2020-07-16T06:52:38Z</time>
      </trkpt>
      <trkpt lat="44.97404" lon="5.8304">
        <ele>1588.72</ele>
        <time>2020-07-16T06:53:04Z</time>
      </trkpt>
      <trkpt lat="44.97404" lon="5.83064">
        <ele>1590.64</ele>
        <time>2020-07-16T06:53:21Z</time>
      </trkpt>
      <trkpt lat="44.97409" lon="5.83095">
        <ele>1591.12</ele>
        <time>2020-07-16T06:53:44Z</time>
      </trkpt>
      <trkpt lat="44.97412" lon="5.83119">
        <ele>1592.56</ele>
        <time>2020-07-16T06:54:04Z</time>
      </trkpt>
      <trkpt lat="44.97418" lon="5.8315">
        <ele>1594</ele>
        <time>2020-07-16T06:54:26Z</time>
      </trkpt>
      <trkpt lat="44.97419" lon="5.83155">
        <ele>1592.56</ele>
        <time>2020-07-16T06:54:29Z</time>
      </trkpt>
      <trkpt lat="44.97419" lon="5.8316">
        <ele>1595.45</ele>
        <time>2020-07-16T06:54:34Z</time>
      </trkpt>
      <trkpt lat="44.9742" lon="5.83162">
        <ele>1597.85</ele>
        <time>2020-07-16T06:54:38Z</time>
      </trkpt>
      <trkpt lat="44.97429" lon="5.83144">
        <ele>1598.81</ele>
        <time>2020-07-16T06:55:02Z</time>
      </trkpt>
      <trkpt lat="44.97414" lon="5.83107">
        <ele>1601.21</ele>
        <time>2020-07-16T06:55:33Z</time>
      </trkpt>
      <trkpt lat="44.97398" lon="5.83076">
        <ele>1603.14</ele>
        <time>2020-07-16T06:56:01Z</time>
      </trkpt>
      <trkpt lat="44.97387" lon="5.83055">
        <ele>1603.62</ele>
        <time>2020-07-16T06:56:19Z</time>
      </trkpt>
      <trkpt lat="44.97385" lon="5.83052">
        <ele>1604.58</ele>
        <time>2020-07-16T06:56:22Z</time>
      </trkpt>
      <trkpt lat="44.9737" lon="5.83036">
        <ele>1606.02</ele>
        <time>2020-07-16T06:56:40Z</time>
      </trkpt>
      <trkpt lat="44.97355" lon="5.83023">
        <ele>1607.46</ele>
        <time>2020-07-16T06:56:58Z</time>
      </trkpt>
      <trkpt lat="44.97341" lon="5.83013">
        <ele>1608.42</ele>
        <time>2020-07-16T06:57:15Z</time>
      </trkpt>
      <trkpt lat="44.97326" lon="5.83008">
        <ele>1609.38</ele>
        <time>2020-07-16T06:57:29Z</time>
      </trkpt>
      <trkpt lat="44.97305" lon="5.83004">
        <ele>1610.35</ele>
        <time>2020-07-16T06:57:48Z</time>
      </trkpt>
      <trkpt lat="44.97296" lon="5.83003">
        <ele>1610.83</ele>
        <time>2020-07-16T06:57:56Z</time>
      </trkpt>
      <trkpt lat="44.97281" lon="5.83002">
        <ele>1612.27</ele>
        <time>2020-07-16T06:58:10Z</time>
      </trkpt>
      <trkpt lat="44.97279" lon="5.83002">
        <ele>1612.27</ele>
        <time>2020-07-16T06:58:12Z</time>
      </trkpt>
      <trkpt lat="44.97259" lon="5.83001">
        <ele>1614.67</ele>
        <time>2020-07-16T06:58:31Z</time>
      </trkpt>
      <trkpt lat="44.97245" lon="5.83005">
        <ele>1615.63</ele>
        <time>2020-07-16T06:58:46Z</time>
      </trkpt>
      <trkpt lat="44.97234" lon="5.83009">
        <ele>1617.07</ele>
        <time>2020-07-16T06:58:59Z</time>
      </trkpt>
      <trkpt lat="44.9722" lon="5.83013">
        <ele>1618.04</ele>
        <time>2020-07-16T06:59:14Z</time>
      </trkpt>
      <trkpt lat="44.97204" lon="5.83018">
        <ele>1619</ele>
        <time>2020-07-16T06:59:31Z</time>
      </trkpt>
      <trkpt lat="44.97192" lon="5.83024">
        <ele>1620.44</ele>
        <time>2020-07-16T06:59:46Z</time>
      </trkpt>
      <trkpt lat="44.9718" lon="5.8303">
        <ele>1621.4</ele>
        <time>2020-07-16T07:00:00Z</time>
      </trkpt>
      <trkpt lat="44.97165" lon="5.83037">
        <ele>1623.32</ele>
        <time>2020-07-16T07:00:16Z</time>
      </trkpt>
      <trkpt lat="44.97149" lon="5.83043">
        <ele>1624.28</ele>
        <time>2020-07-16T07:00:32Z</time>
      </trkpt>
      <trkpt lat="44.97136" lon="5.83052">
        <ele>1625.73</ele>
        <time>2020-07-16T07:00:48Z</time>
      </trkpt>
      <trkpt lat="44.97123" lon="5.83063">
        <ele>1627.17</ele>
        <time>2020-07-16T07:01:04Z</time>
      </trkpt>
      <trkpt lat="44.97111" lon="5.83076">
        <ele>1628.61</ele>
        <time>2020-07-16T07:01:21Z</time>
      </trkpt>
      <trkpt lat="44.971" lon="5.83088">
        <ele>1630.05</ele>
        <time>2020-07-16T07:01:36Z</time>
      </trkpt>
      <trkpt lat="44.97089" lon="5.831">
        <ele>1631.49</ele>
        <time>2020-07-16T07:01:51Z</time>
      </trkpt>
      <trkpt lat="44.97081" lon="5.83118">
        <ele>1632.94</ele>
        <time>2020-07-16T07:02:07Z</time>
      </trkpt>
      <trkpt lat="44.97074" lon="5.83135">
        <ele>1634.38</ele>
        <time>2020-07-16T07:02:21Z</time>
      </trkpt>
      <trkpt lat="44.9707" lon="5.8315">
        <ele>1635.34</ele>
        <time>2020-07-16T07:02:34Z</time>
      </trkpt>
      <trkpt lat="44.97062" lon="5.83168">
        <ele>1636.78</ele>
        <time>2020-07-16T07:02:49Z</time>
      </trkpt>
      <trkpt lat="44.97057" lon="5.83175">
        <ele>1636.78</ele>
        <time>2020-07-16T07:02:56Z</time>
      </trkpt>
      <trkpt lat="44.97052" lon="5.83179">
        <ele>1637.74</ele>
        <time>2020-07-16T07:03:03Z</time>
      </trkpt>
      <trkpt lat="44.97042" lon="5.83189">
        <ele>1639.19</ele>
        <time>2020-07-16T07:03:16Z</time>
      </trkpt>
      <trkpt lat="44.97034" lon="5.83196">
        <ele>1639.19</ele>
        <time>2020-07-16T07:03:27Z</time>
      </trkpt>
      <trkpt lat="44.97023" lon="5.83204">
        <ele>1641.11</ele>
        <time>2020-07-16T07:03:42Z</time>
      </trkpt>
      <trkpt lat="44.97016" lon="5.83205">
        <ele>1641.59</ele>
        <time>2020-07-16T07:03:49Z</time>
      </trkpt>
      <trkpt lat="44.97013" lon="5.83206">
        <ele>1641.59</ele>
        <time>2020-07-16T07:03:52Z</time>
      </trkpt>
      <trkpt lat="44.96995" lon="5.83203">
        <ele>1643.03</ele>
        <time>2020-07-16T07:04:09Z</time>
      </trkpt>
      <trkpt lat="44.9699" lon="5.83201">
        <ele>1643.99</ele>
        <time>2020-07-16T07:04:14Z</time>
      </trkpt>
      <trkpt lat="44.96975" lon="5.832">
        <ele>1644.95</ele>
        <time>2020-07-16T07:04:30Z</time>
      </trkpt>
      <trkpt lat="44.96973" lon="5.832">
        <ele>1645.43</ele>
        <time>2020-07-16T07:04:33Z</time>
      </trkpt>
      <trkpt lat="44.96968" lon="5.83199">
        <ele>1645.43</ele>
        <time>2020-07-16T07:04:37Z</time>
      </trkpt>
      <trkpt lat="44.96965" lon="5.83198">
        <ele>1645.43</ele>
        <time>2020-07-16T07:04:40Z</time>
      </trkpt>
      <trkpt lat="44.96949" lon="5.83194">
        <ele>1646.88</ele>
        <time>2020-07-16T07:04:58Z</time>
      </trkpt>
      <trkpt lat="44.96938" lon="5.83193">
        <ele>1647.84</ele>
        <time>2020-07-16T07:05:10Z</time>
      </trkpt>
      <trkpt lat="44.96926" lon="5.83195">
        <ele>1649.28</ele>
        <time>2020-07-16T07:05:26Z</time>
      </trkpt>
      <trkpt lat="44.96925" lon="5.83195">
        <ele>1649.28</ele>
        <time>2020-07-16T07:05:27Z</time>
      </trkpt>
      <trkpt lat="44.9691" lon="5.83193">
        <ele>1650.72</ele>
        <time>2020-07-16T07:05:42Z</time>
      </trkpt>
      <trkpt lat="44.96902" lon="5.83192">
        <ele>1651.2</ele>
        <time>2020-07-16T07:05:50Z</time>
      </trkpt>
      <trkpt lat="44.96901" lon="5.83192">
        <ele>1651.2</ele>
        <time>2020-07-16T07:05:51Z</time>
      </trkpt>
      <trkpt lat="44.96888" lon="5.83192">
        <ele>1652.16</ele>
        <time>2020-07-16T07:06:05Z</time>
      </trkpt>
      <trkpt lat="44.96873" lon="5.83191">
        <ele>1653.6</ele>
        <time>2020-07-16T07:06:21Z</time>
      </trkpt>
      <trkpt lat="44.96858" lon="5.83193">
        <ele>1655.05</ele>
        <time>2020-07-16T07:06:37Z</time>
      </trkpt>
      <trkpt lat="44.96841" lon="5.83195">
        <ele>1656.49</ele>
        <time>2020-07-16T07:06:55Z</time>
      </trkpt>
      <trkpt lat="44.96825" lon="5.832">
        <ele>1657.45</ele>
        <time>2020-07-16T07:07:11Z</time>
      </trkpt>
      <trkpt lat="44.96819" lon="5.83201">
        <ele>1658.89</ele>
        <time>2020-07-16T07:07:18Z</time>
      </trkpt>
      <trkpt lat="44.96803" lon="5.83204">
        <ele>1659.37</ele>
        <time>2020-07-16T07:07:34Z</time>
      </trkpt>
      <trkpt lat="44.96786" lon="5.83209">
        <ele>1660.81</ele>
        <time>2020-07-16T07:07:52Z</time>
      </trkpt>
      <trkpt lat="44.96772" lon="5.83213">
        <ele>1661.78</ele>
        <time>2020-07-16T07:08:06Z</time>
      </trkpt>
      <trkpt lat="44.96767" lon="5.83223">
        <ele>1663.22</ele>
        <time>2020-07-16T07:08:21Z</time>
      </trkpt>
      <trkpt lat="44.96769" lon="5.83223">
        <ele>1664.18</ele>
        <time>2020-07-16T07:08:24Z</time>
      </trkpt>
      <trkpt lat="44.96776" lon="5.83223">
        <ele>1664.66</ele>
        <time>2020-07-16T07:08:32Z</time>
      </trkpt>
      <trkpt lat="44.96791" lon="5.83222">
        <ele>1666.1</ele>
        <time>2020-07-16T07:08:48Z</time>
      </trkpt>
      <trkpt lat="44.96799" lon="5.83223">
        <ele>1666.58</ele>
        <time>2020-07-16T07:08:55Z</time>
      </trkpt>
      <trkpt lat="44.968" lon="5.83223">
        <ele>1666.58</ele>
        <time>2020-07-16T07:08:56Z</time>
      </trkpt>
      <trkpt lat="44.96801" lon="5.83224">
        <ele>1666.58</ele>
        <time>2020-07-16T07:08:57Z</time>
      </trkpt>
      <trkpt lat="44.96813" lon="5.83226">
        <ele>1668.51</ele>
        <time>2020-07-16T07:09:09Z</time>
      </trkpt>
      <trkpt lat="44.96814" lon="5.83226">
        <ele>1668.51</ele>
        <time>2020-07-16T07:09:10Z</time>
      </trkpt>
      <trkpt lat="44.96816" lon="5.83226">
        <ele>1668.51</ele>
        <time>2020-07-16T07:09:11Z</time>
      </trkpt>
      <trkpt lat="44.96817" lon="5.83226">
        <ele>1668.51</ele>
        <time>2020-07-16T07:09:12Z</time>
      </trkpt>
      <trkpt lat="44.96818" lon="5.83226">
        <ele>1668.51</ele>
        <time>2020-07-16T07:09:13Z</time>
      </trkpt>
      <trkpt lat="44.9682" lon="5.83227">
        <ele>1668.99</ele>
        <time>2020-07-16T07:09:16Z</time>
      </trkpt>
      <trkpt lat="44.96821" lon="5.83228">
        <ele>1668.99</ele>
        <time>2020-07-16T07:09:17Z</time>
      </trkpt>
      <trkpt lat="44.9683" lon="5.8323">
        <ele>1669.95</ele>
        <time>2020-07-16T07:09:29Z</time>
      </trkpt>
      <trkpt lat="44.96839" lon="5.83232">
        <ele>1670.43</ele>
        <time>2020-07-16T07:09:38Z</time>
      </trkpt>
      <trkpt lat="44.96841" lon="5.83233">
        <ele>1670.43</ele>
        <time>2020-07-16T07:09:40Z</time>
      </trkpt>
      <trkpt lat="44.96853" lon="5.83235">
        <ele>1671.87</ele>
        <time>2020-07-16T07:09:54Z</time>
      </trkpt>
      <trkpt lat="44.96857" lon="5.83236">
        <ele>1672.83</ele>
        <time>2020-07-16T07:10:00Z</time>
      </trkpt>
      <trkpt lat="44.96869" lon="5.83242">
        <ele>1673.79</ele>
        <time>2020-07-16T07:10:13Z</time>
      </trkpt>
      <trkpt lat="44.96883" lon="5.83249">
        <ele>1674.75</ele>
        <time>2020-07-16T07:10:28Z</time>
      </trkpt>
      <trkpt lat="44.96897" lon="5.83253">
        <ele>1676.2</ele>
        <time>2020-07-16T07:10:44Z</time>
      </trkpt>
      <trkpt lat="44.96906" lon="5.83256">
        <ele>1677.16</ele>
        <time>2020-07-16T07:10:55Z</time>
      </trkpt>
      <trkpt lat="44.96917" lon="5.83261">
        <ele>1678.12</ele>
        <time>2020-07-16T07:11:09Z</time>
      </trkpt>
      <trkpt lat="44.96933" lon="5.83268">
        <ele>1679.56</ele>
        <time>2020-07-16T07:11:27Z</time>
      </trkpt>
      <trkpt lat="44.96947" lon="5.83275">
        <ele>1681</ele>
        <time>2020-07-16T07:11:42Z</time>
      </trkpt>
      <trkpt lat="44.96963" lon="5.83285">
        <ele>1682.93</ele>
        <time>2020-07-16T07:11:59Z</time>
      </trkpt>
      <trkpt lat="44.96977" lon="5.83293">
        <ele>1683.41</ele>
        <time>2020-07-16T07:12:14Z</time>
      </trkpt>
      <trkpt lat="44.96991" lon="5.833">
        <ele>1685.81</ele>
        <time>2020-07-16T07:12:29Z</time>
      </trkpt>
      <trkpt lat="44.97004" lon="5.83305">
        <ele>1686.77</ele>
        <time>2020-07-16T07:12:44Z</time>
      </trkpt>
      <trkpt lat="44.97017" lon="5.83311">
        <ele>1688.21</ele>
        <time>2020-07-16T07:12:58Z</time>
      </trkpt>
      <trkpt lat="44.97027" lon="5.83319">
        <ele>1688.69</ele>
        <time>2020-07-16T07:13:10Z</time>
      </trkpt>
      <trkpt lat="44.97037" lon="5.83325">
        <ele>1690.14</ele>
        <time>2020-07-16T07:13:24Z</time>
      </trkpt>
      <trkpt lat="44.97047" lon="5.8333">
        <ele>1691.1</ele>
        <time>2020-07-16T07:13:36Z</time>
      </trkpt>
      <trkpt lat="44.97049" lon="5.8333">
        <ele>1691.58</ele>
        <time>2020-07-16T07:13:38Z</time>
      </trkpt>
      <trkpt lat="44.9706" lon="5.83333">
        <ele>1692.54</ele>
        <time>2020-07-16T07:13:50Z</time>
      </trkpt>
      <trkpt lat="44.97075" lon="5.83333">
        <ele>1693.5</ele>
        <time>2020-07-16T07:14:07Z</time>
      </trkpt>
      <trkpt lat="44.97086" lon="5.83332">
        <ele>1694.94</ele>
        <time>2020-07-16T07:14:21Z</time>
      </trkpt>
      <trkpt lat="44.971" lon="5.83328">
        <ele>1696.38</ele>
        <time>2020-07-16T07:14:39Z</time>
      </trkpt>
      <trkpt lat="44.97104" lon="5.83326">
        <ele>1696.38</ele>
        <time>2020-07-16T07:14:43Z</time>
      </trkpt>
      <trkpt lat="44.97115" lon="5.83315">
        <ele>1697.83</ele>
        <time>2020-07-16T07:14:58Z</time>
      </trkpt>
      <trkpt lat="44.97125" lon="5.83301">
        <ele>1699.27</ele>
        <time>2020-07-16T07:15:12Z</time>
      </trkpt>
      <trkpt lat="44.97133" lon="5.83288">
        <ele>1701.19</ele>
        <time>2020-07-16T07:15:26Z</time>
      </trkpt>
      <trkpt lat="44.9714" lon="5.83272">
        <ele>1702.15</ele>
        <time>2020-07-16T07:15:41Z</time>
      </trkpt>
      <trkpt lat="44.97145" lon="5.83259">
        <ele>1703.11</ele>
        <time>2020-07-16T07:15:54Z</time>
      </trkpt>
      <trkpt lat="44.97146" lon="5.83258">
        <ele>1703.11</ele>
        <time>2020-07-16T07:15:55Z</time>
      </trkpt>
      <trkpt lat="44.97151" lon="5.8325">
        <ele>1704.07</ele>
        <time>2020-07-16T07:16:04Z</time>
      </trkpt>
      <trkpt lat="44.9716" lon="5.83238">
        <ele>1705.04</ele>
        <time>2020-07-16T07:16:19Z</time>
      </trkpt>
      <trkpt lat="44.97173" lon="5.83228">
        <ele>1707.44</ele>
        <time>2020-07-16T07:16:35Z</time>
      </trkpt>
      <trkpt lat="44.9718" lon="5.83235">
        <ele>1709.36</ele>
        <time>2020-07-16T07:16:50Z</time>
      </trkpt>
      <trkpt lat="44.97171" lon="5.83247">
        <ele>1711.28</ele>
        <time>2020-07-16T07:17:04Z</time>
      </trkpt>
      <trkpt lat="44.97165" lon="5.83259">
        <ele>1712.73</ele>
        <time>2020-07-16T07:17:19Z</time>
      </trkpt>
      <trkpt lat="44.97162" lon="5.83277">
        <ele>1714.17</ele>
        <time>2020-07-16T07:17:34Z</time>
      </trkpt>
      <trkpt lat="44.9716" lon="5.83295">
        <ele>1715.61</ele>
        <time>2020-07-16T07:17:50Z</time>
      </trkpt>
      <trkpt lat="44.97154" lon="5.83316">
        <ele>1717.53</ele>
        <time>2020-07-16T07:18:07Z</time>
      </trkpt>
      <trkpt lat="44.97151" lon="5.83325">
        <ele>1718.01</ele>
        <time>2020-07-16T07:18:15Z</time>
      </trkpt>
      <trkpt lat="44.97143" lon="5.83341">
        <ele>1717.53</ele>
        <time>2020-07-16T07:18:30Z</time>
      </trkpt>
      <trkpt lat="44.97133" lon="5.83357">
        <ele>1720.42</ele>
        <time>2020-07-16T07:18:46Z</time>
      </trkpt>
      <trkpt lat="44.97121" lon="5.83376">
        <ele>1721.86</ele>
        <time>2020-07-16T07:19:04Z</time>
      </trkpt>
      <trkpt lat="44.97108" lon="5.83391">
        <ele>1723.3</ele>
        <time>2020-07-16T07:19:20Z</time>
      </trkpt>
      <trkpt lat="44.97096" lon="5.83405">
        <ele>1724.74</ele>
        <time>2020-07-16T07:19:38Z</time>
      </trkpt>
      <trkpt lat="44.97085" lon="5.83408">
        <ele>1725.7</ele>
        <time>2020-07-16T07:19:49Z</time>
      </trkpt>
      <trkpt lat="44.9707" lon="5.83406">
        <ele>1727.15</ele>
        <time>2020-07-16T07:20:03Z</time>
      </trkpt>
      <trkpt lat="44.97056" lon="5.83404">
        <ele>1728.11</ele>
        <time>2020-07-16T07:20:17Z</time>
      </trkpt>
      <trkpt lat="44.97041" lon="5.83402">
        <ele>1729.55</ele>
        <time>2020-07-16T07:20:31Z</time>
      </trkpt>
      <trkpt lat="44.97025" lon="5.83401">
        <ele>1731.95</ele>
        <time>2020-07-16T07:20:47Z</time>
      </trkpt>
      <trkpt lat="44.97011" lon="5.83402">
        <ele>1733.39</ele>
        <time>2020-07-16T07:21:03Z</time>
      </trkpt>
      <trkpt lat="44.96996" lon="5.83401">
        <ele>1734.84</ele>
        <time>2020-07-16T07:21:19Z</time>
      </trkpt>
      <trkpt lat="44.9698" lon="5.83398">
        <ele>1735.8</ele>
        <time>2020-07-16T07:21:35Z</time>
      </trkpt>
      <trkpt lat="44.96963" lon="5.83394">
        <ele>1738.2</ele>
        <time>2020-07-16T07:21:52Z</time>
      </trkpt>
      <trkpt lat="44.96948" lon="5.83392">
        <ele>1739.16</ele>
        <time>2020-07-16T07:22:07Z</time>
      </trkpt>
      <trkpt lat="44.96933" lon="5.83391">
        <ele>1741.08</ele>
        <time>2020-07-16T07:22:22Z</time>
      </trkpt>
      <trkpt lat="44.96918" lon="5.83389">
        <ele>1742.53</ele>
        <time>2020-07-16T07:22:39Z</time>
      </trkpt>
      <trkpt lat="44.96902" lon="5.83388">
        <ele>1743.97</ele>
        <time>2020-07-16T07:22:55Z</time>
      </trkpt>
      <trkpt lat="44.96897" lon="5.83396">
        <ele>1745.89</ele>
        <time>2020-07-16T07:23:09Z</time>
      </trkpt>
      <trkpt lat="44.96911" lon="5.83402">
        <ele>1746.37</ele>
        <time>2020-07-16T07:23:23Z</time>
      </trkpt>
      <trkpt lat="44.96927" lon="5.83408">
        <ele>1747.33</ele>
        <time>2020-07-16T07:23:38Z</time>
      </trkpt>
      <trkpt lat="44.96935" lon="5.83411">
        <ele>1747.81</ele>
        <time>2020-07-16T07:23:45Z</time>
      </trkpt>
      <trkpt lat="44.96951" lon="5.83416">
        <ele>1749.26</ele>
        <time>2020-07-16T07:24:01Z</time>
      </trkpt>
      <trkpt lat="44.96967" lon="5.83426">
        <ele>1750.22</ele>
        <time>2020-07-16T07:24:18Z</time>
      </trkpt>
      <trkpt lat="44.96991" lon="5.8344">
        <ele>1753.1</ele>
        <time>2020-07-16T07:24:42Z</time>
      </trkpt>
      <trkpt lat="44.97014" lon="5.83452">
        <ele>1755.99</ele>
        <time>2020-07-16T07:25:08Z</time>
      </trkpt>
      <trkpt lat="44.97032" lon="5.83459">
        <ele>1757.91</ele>
        <time>2020-07-16T07:25:29Z</time>
      </trkpt>
      <trkpt lat="44.97055" lon="5.8347">
        <ele>1759.83</ele>
        <time>2020-07-16T07:25:54Z</time>
      </trkpt>
      <trkpt lat="44.97077" lon="5.83485">
        <ele>1762.23</ele>
        <time>2020-07-16T07:26:19Z</time>
      </trkpt>
      <trkpt lat="44.97093" lon="5.83497">
        <ele>1764.64</ele>
        <time>2020-07-16T07:26:41Z</time>
      </trkpt>
      <trkpt lat="44.97109" lon="5.83494">
        <ele>1767.04</ele>
        <time>2020-07-16T07:27:02Z</time>
      </trkpt>
      <trkpt lat="44.97131" lon="5.83482">
        <ele>1768.96</ele>
        <time>2020-07-16T07:27:27Z</time>
      </trkpt>
      <trkpt lat="44.97149" lon="5.83465">
        <ele>1771.37</ele>
        <time>2020-07-16T07:27:48Z</time>
      </trkpt>
      <trkpt lat="44.97166" lon="5.83448">
        <ele>1773.77</ele>
        <time>2020-07-16T07:28:09Z</time>
      </trkpt>
      <trkpt lat="44.97167" lon="5.83447">
        <ele>1773.77</ele>
        <time>2020-07-16T07:28:10Z</time>
      </trkpt>
      <trkpt lat="44.97179" lon="5.83435">
        <ele>1775.69</ele>
        <time>2020-07-16T07:28:26Z</time>
      </trkpt>
      <trkpt lat="44.97197" lon="5.8342">
        <ele>1777.61</ele>
        <time>2020-07-16T07:28:46Z</time>
      </trkpt>
      <trkpt lat="44.97199" lon="5.83419">
        <ele>1778.1</ele>
        <time>2020-07-16T07:28:49Z</time>
      </trkpt>
      <trkpt lat="44.97216" lon="5.83417">
        <ele>1779.54</ele>
        <time>2020-07-16T07:29:04Z</time>
      </trkpt>
      <trkpt lat="44.97234" lon="5.83416">
        <ele>1781.46</ele>
        <time>2020-07-16T07:29:22Z</time>
      </trkpt>
      <trkpt lat="44.97226" lon="5.83425">
        <ele>1782.9</ele>
        <time>2020-07-16T07:29:36Z</time>
      </trkpt>
      <trkpt lat="44.97218" lon="5.83425">
        <ele>1780.98</ele>
        <time>2020-07-16T07:29:44Z</time>
      </trkpt>
      <trkpt lat="44.97214" lon="5.83424">
        <ele>1784.34</ele>
        <time>2020-07-16T07:29:49Z</time>
      </trkpt>
      <trkpt lat="44.97207" lon="5.83428">
        <ele>1784.34</ele>
        <time>2020-07-16T07:30:06Z</time>
      </trkpt>
      <trkpt lat="44.97197" lon="5.83436">
        <ele>1784.82</ele>
        <time>2020-07-16T07:30:29Z</time>
      </trkpt>
      <trkpt lat="44.97195" lon="5.83442">
        <ele>1785.31</ele>
        <time>2020-07-16T07:31:00Z</time>
      </trkpt>
      <trkpt lat="44.97194" lon="5.83442">
        <ele>1784.82</ele>
        <time>2020-07-16T07:31:34Z</time>
      </trkpt>
      <trkpt lat="44.97194" lon="5.8344">
        <ele>1785.79</ele>
        <time>2020-07-16T07:32:00Z</time>
      </trkpt>
      <trkpt lat="44.97193" lon="5.83438">
        <ele>1785.79</ele>
        <time>2020-07-16T07:32:30Z</time>
      </trkpt>
      <trkpt lat="44.9719" lon="5.83439">
        <ele>1786.75</ele>
        <time>2020-07-16T07:32:49Z</time>
      </trkpt>
      <trkpt lat="44.97181" lon="5.83451">
        <ele>1786.75</ele>
        <time>2020-07-16T07:33:07Z</time>
      </trkpt>
      <trkpt lat="44.97179" lon="5.83459">
        <ele>1787.71</ele>
        <time>2020-07-16T07:33:23Z</time>
      </trkpt>
      <trkpt lat="44.97174" lon="5.83468">
        <ele>1789.15</ele>
        <time>2020-07-16T07:33:39Z</time>
      </trkpt>
      <trkpt lat="44.97164" lon="5.83484">
        <ele>1790.59</ele>
        <time>2020-07-16T07:33:56Z</time>
      </trkpt>
      <trkpt lat="44.97158" lon="5.83496">
        <ele>1791.55</ele>
        <time>2020-07-16T07:34:09Z</time>
      </trkpt>
      <trkpt lat="44.97152" lon="5.83509">
        <ele>1793</ele>
        <time>2020-07-16T07:34:24Z</time>
      </trkpt>
      <trkpt lat="44.97147" lon="5.8352">
        <ele>1794.44</ele>
        <time>2020-07-16T07:34:34Z</time>
      </trkpt>
      <trkpt lat="44.97146" lon="5.83521">
        <ele>1794.44</ele>
        <time>2020-07-16T07:34:35Z</time>
      </trkpt>
      <trkpt lat="44.97137" lon="5.83533">
        <ele>1796.36</ele>
        <time>2020-07-16T07:34:51Z</time>
      </trkpt>
      <trkpt lat="44.9712" lon="5.83545">
        <ele>1798.76</ele>
        <time>2020-07-16T07:35:12Z</time>
      </trkpt>
      <trkpt lat="44.97107" lon="5.83553">
        <ele>1800.21</ele>
        <time>2020-07-16T07:35:28Z</time>
      </trkpt>
      <trkpt lat="44.97085" lon="5.83561">
        <ele>1802.13</ele>
        <time>2020-07-16T07:35:54Z</time>
      </trkpt>
      <trkpt lat="44.97063" lon="5.8356">
        <ele>1804.53</ele>
        <time>2020-07-16T07:36:17Z</time>
      </trkpt>
      <trkpt lat="44.97036" lon="5.83554">
        <ele>1806.94</ele>
        <time>2020-07-16T07:36:46Z</time>
      </trkpt>
      <trkpt lat="44.97031" lon="5.83553">
        <ele>1807.42</ele>
        <time>2020-07-16T07:36:51Z</time>
      </trkpt>
      <trkpt lat="44.97017" lon="5.83553">
        <ele>1808.38</ele>
        <time>2020-07-16T07:37:07Z</time>
      </trkpt>
      <trkpt lat="44.97" lon="5.83551">
        <ele>1810.78</ele>
        <time>2020-07-16T07:37:24Z</time>
      </trkpt>
      <trkpt lat="44.96986" lon="5.83549">
        <ele>1812.22</ele>
        <time>2020-07-16T07:37:39Z</time>
      </trkpt>
      <trkpt lat="44.96995" lon="5.83565">
        <ele>1813.66</ele>
        <time>2020-07-16T07:37:55Z</time>
      </trkpt>
      <trkpt lat="44.9702" lon="5.83576">
        <ele>1816.07</ele>
        <time>2020-07-16T07:38:20Z</time>
      </trkpt>
      <trkpt lat="44.9705" lon="5.83589">
        <ele>1818.95</ele>
        <time>2020-07-16T07:38:53Z</time>
      </trkpt>
      <trkpt lat="44.97076" lon="5.83606">
        <ele>1821.84</ele>
        <time>2020-07-16T07:39:20Z</time>
      </trkpt>
      <trkpt lat="44.97096" lon="5.83613">
        <ele>1823.76</ele>
        <time>2020-07-16T07:39:41Z</time>
      </trkpt>
      <trkpt lat="44.97113" lon="5.83611">
        <ele>1825.68</ele>
        <time>2020-07-16T07:39:59Z</time>
      </trkpt>
      <trkpt lat="44.97126" lon="5.83604">
        <ele>1827.12</ele>
        <time>2020-07-16T07:40:15Z</time>
      </trkpt>
      <trkpt lat="44.97147" lon="5.83593">
        <ele>1830.01</ele>
        <time>2020-07-16T07:40:41Z</time>
      </trkpt>
      <trkpt lat="44.97164" lon="5.83582">
        <ele>1832.41</ele>
        <time>2020-07-16T07:41:03Z</time>
      </trkpt>
      <trkpt lat="44.97181" lon="5.83576">
        <ele>1833.37</ele>
        <time>2020-07-16T07:41:18Z</time>
      </trkpt>
      <trkpt lat="44.972" lon="5.83575">
        <ele>1834.33</ele>
        <time>2020-07-16T07:41:35Z</time>
      </trkpt>
      <trkpt lat="44.97204" lon="5.83577">
        <ele>1835.29</ele>
        <time>2020-07-16T07:41:40Z</time>
      </trkpt>
      <trkpt lat="44.97215" lon="5.83582">
        <ele>1834.81</ele>
        <time>2020-07-16T07:41:52Z</time>
      </trkpt>
      <trkpt lat="44.97218" lon="5.83586">
        <ele>1837.7</ele>
        <time>2020-07-16T07:41:57Z</time>
      </trkpt>
      <trkpt lat="44.97228" lon="5.83606">
        <ele>1840.1</ele>
        <time>2020-07-16T07:42:20Z</time>
      </trkpt>
      <trkpt lat="44.97233" lon="5.83625">
        <ele>1842.5</ele>
        <time>2020-07-16T07:42:41Z</time>
      </trkpt>
      <trkpt lat="44.97224" lon="5.83634">
        <ele>1844.91</ele>
        <time>2020-07-16T07:42:57Z</time>
      </trkpt>
      <trkpt lat="44.9721" lon="5.83629">
        <ele>1847.31</ele>
        <time>2020-07-16T07:43:10Z</time>
      </trkpt>
      <trkpt lat="44.97208" lon="5.83629">
        <ele>1847.79</ele>
        <time>2020-07-16T07:43:12Z</time>
      </trkpt>
      <trkpt lat="44.97194" lon="5.83629">
        <ele>1849.23</ele>
        <time>2020-07-16T07:43:26Z</time>
      </trkpt>
      <trkpt lat="44.97185" lon="5.83632">
        <ele>1850.68</ele>
        <time>2020-07-16T07:43:36Z</time>
      </trkpt>
      <trkpt lat="44.97175" lon="5.83641">
        <ele>1853.08</ele>
        <time>2020-07-16T07:43:50Z</time>
      </trkpt>
      <trkpt lat="44.97164" lon="5.83646">
        <ele>1855.48</ele>
        <time>2020-07-16T07:44:04Z</time>
      </trkpt>
      <trkpt lat="44.97153" lon="5.83651">
        <ele>1857.4</ele>
        <time>2020-07-16T07:44:17Z</time>
      </trkpt>
      <trkpt lat="44.97163" lon="5.8366">
        <ele>1858.85</ele>
        <time>2020-07-16T07:44:30Z</time>
      </trkpt>
      <trkpt lat="44.97179" lon="5.83672">
        <ele>1862.21</ele>
        <time>2020-07-16T07:44:48Z</time>
      </trkpt>
      <trkpt lat="44.97194" lon="5.83686">
        <ele>1865.09</ele>
        <time>2020-07-16T07:45:09Z</time>
      </trkpt>
      <trkpt lat="44.97204" lon="5.83702">
        <ele>1867.98</ele>
        <time>2020-07-16T07:45:26Z</time>
      </trkpt>
      <trkpt lat="44.97215" lon="5.83713">
        <ele>1871.34</ele>
        <time>2020-07-16T07:45:41Z</time>
      </trkpt>
      <trkpt lat="44.97224" lon="5.83726">
        <ele>1874.23</ele>
        <time>2020-07-16T07:46:00Z</time>
      </trkpt>
      <trkpt lat="44.97213" lon="5.83733">
        <ele>1876.63</ele>
        <time>2020-07-16T07:46:10Z</time>
      </trkpt>
      <trkpt lat="44.9721" lon="5.83732">
        <ele>1876.63</ele>
        <time>2020-07-16T07:46:12Z</time>
      </trkpt>
      <trkpt lat="44.97209" lon="5.83731">
        <ele>1876.63</ele>
        <time>2020-07-16T07:46:13Z</time>
      </trkpt>
      <trkpt lat="44.97193" lon="5.83723">
        <ele>1878.07</ele>
        <time>2020-07-16T07:46:27Z</time>
      </trkpt>
      <trkpt lat="44.97178" lon="5.8372">
        <ele>1879.03</ele>
        <time>2020-07-16T07:46:42Z</time>
      </trkpt>
      <trkpt lat="44.97163" lon="5.8372">
        <ele>1881.44</ele>
        <time>2020-07-16T07:46:58Z</time>
      </trkpt>
      <trkpt lat="44.97153" lon="5.83726">
        <ele>1884.32</ele>
        <time>2020-07-16T07:47:15Z</time>
      </trkpt>
      <trkpt lat="44.97165" lon="5.83737">
        <ele>1887.21</ele>
        <time>2020-07-16T07:47:32Z</time>
      </trkpt>
      <trkpt lat="44.97175" lon="5.8375">
        <ele>1890.09</ele>
        <time>2020-07-16T07:47:49Z</time>
      </trkpt>
      <trkpt lat="44.97186" lon="5.83763">
        <ele>1892.97</ele>
        <time>2020-07-16T07:48:05Z</time>
      </trkpt>
      <trkpt lat="44.97195" lon="5.83776">
        <ele>1895.38</ele>
        <time>2020-07-16T07:48:22Z</time>
      </trkpt>
      <trkpt lat="44.97206" lon="5.83792">
        <ele>1898.74</ele>
        <time>2020-07-16T07:48:40Z</time>
      </trkpt>
      <trkpt lat="44.97214" lon="5.83805">
        <ele>1901.63</ele>
        <time>2020-07-16T07:48:57Z</time>
      </trkpt>
      <trkpt lat="44.97219" lon="5.83819">
        <ele>1904.51</ele>
        <time>2020-07-16T07:49:11Z</time>
      </trkpt>
      <trkpt lat="44.97224" lon="5.83836">
        <ele>1907.39</ele>
        <time>2020-07-16T07:49:28Z</time>
      </trkpt>
      <trkpt lat="44.97231" lon="5.83853">
        <ele>1910.28</ele>
        <time>2020-07-16T07:49:46Z</time>
      </trkpt>
      <trkpt lat="44.97238" lon="5.83867">
        <ele>1913.64</ele>
        <time>2020-07-16T07:50:02Z</time>
      </trkpt>
      <trkpt lat="44.97245" lon="5.83883">
        <ele>1916.53</ele>
        <time>2020-07-16T07:50:19Z</time>
      </trkpt>
      <trkpt lat="44.97251" lon="5.83896">
        <ele>1919.41</ele>
        <time>2020-07-16T07:50:36Z</time>
      </trkpt>
      <trkpt lat="44.97256" lon="5.83907">
        <ele>1921.81</ele>
        <time>2020-07-16T07:50:52Z</time>
      </trkpt>
      <trkpt lat="44.9725" lon="5.83911">
        <ele>1923.74</ele>
        <time>2020-07-16T07:51:06Z</time>
      </trkpt>
      <trkpt lat="44.97237" lon="5.83903">
        <ele>1924.7</ele>
        <time>2020-07-16T07:51:20Z</time>
      </trkpt>
      <trkpt lat="44.97221" lon="5.8389">
        <ele>1925.18</ele>
        <time>2020-07-16T07:51:35Z</time>
      </trkpt>
      <trkpt lat="44.97207" lon="5.83878">
        <ele>1926.14</ele>
        <time>2020-07-16T07:51:50Z</time>
      </trkpt>
      <trkpt lat="44.97191" lon="5.83863">
        <ele>1924.7</ele>
        <time>2020-07-16T07:52:06Z</time>
      </trkpt>
      <trkpt lat="44.9718" lon="5.83854">
        <ele>1926.14</ele>
        <time>2020-07-16T07:52:17Z</time>
      </trkpt>
      <trkpt lat="44.97171" lon="5.83849">
        <ele>1929.5</ele>
        <time>2020-07-16T07:52:26Z</time>
      </trkpt>
      <trkpt lat="44.97154" lon="5.83841">
        <ele>1929.02</ele>
        <time>2020-07-16T07:52:44Z</time>
      </trkpt>
      <trkpt lat="44.97143" lon="5.83841">
        <ele>1929.98</ele>
        <time>2020-07-16T07:53:00Z</time>
      </trkpt>
      <trkpt lat="44.9715" lon="5.83853">
        <ele>1932.87</ele>
        <time>2020-07-16T07:53:16Z</time>
      </trkpt>
      <trkpt lat="44.97155" lon="5.83863">
        <ele>1936.23</ele>
        <time>2020-07-16T07:53:31Z</time>
      </trkpt>
      <trkpt lat="44.97162" lon="5.83874">
        <ele>1939.12</ele>
        <time>2020-07-16T07:53:46Z</time>
      </trkpt>
      <trkpt lat="44.97169" lon="5.83884">
        <ele>1942.48</ele>
        <time>2020-07-16T07:54:01Z</time>
      </trkpt>
      <trkpt lat="44.97174" lon="5.83896">
        <ele>1945.36</ele>
        <time>2020-07-16T07:54:18Z</time>
      </trkpt>
      <trkpt lat="44.97176" lon="5.83906">
        <ele>1948.73</ele>
        <time>2020-07-16T07:54:33Z</time>
      </trkpt>
      <trkpt lat="44.97171" lon="5.83907">
        <ele>1949.69</ele>
        <time>2020-07-16T07:54:40Z</time>
      </trkpt>
      <trkpt lat="44.9717" lon="5.83906">
        <ele>1950.17</ele>
        <time>2020-07-16T07:54:41Z</time>
      </trkpt>
      <trkpt lat="44.97169" lon="5.83906">
        <ele>1950.17</ele>
        <time>2020-07-16T07:54:42Z</time>
      </trkpt>
      <trkpt lat="44.97158" lon="5.83899">
        <ele>1952.09</ele>
        <time>2020-07-16T07:54:52Z</time>
      </trkpt>
      <trkpt lat="44.97141" lon="5.83892">
        <ele>1952.57</ele>
        <time>2020-07-16T07:55:09Z</time>
      </trkpt>
      <trkpt lat="44.97134" lon="5.83891">
        <ele>1953.54</ele>
        <time>2020-07-16T07:55:23Z</time>
      </trkpt>
      <trkpt lat="44.97132" lon="5.83891">
        <ele>1953.54</ele>
        <time>2020-07-16T07:55:25Z</time>
      </trkpt>
      <trkpt lat="44.97129" lon="5.8389">
        <ele>1953.54</ele>
        <time>2020-07-16T07:55:28Z</time>
      </trkpt>
      <trkpt lat="44.97115" lon="5.83887">
        <ele>1956.42</ele>
        <time>2020-07-16T07:55:44Z</time>
      </trkpt>
      <trkpt lat="44.97103" lon="5.83887">
        <ele>1958.82</ele>
        <time>2020-07-16T07:55:59Z</time>
      </trkpt>
      <trkpt lat="44.9709" lon="5.83888">
        <ele>1961.71</ele>
        <time>2020-07-16T07:56:16Z</time>
      </trkpt>
      <trkpt lat="44.97086" lon="5.83895">
        <ele>1963.63</ele>
        <time>2020-07-16T07:56:31Z</time>
      </trkpt>
      <trkpt lat="44.97096" lon="5.83904">
        <ele>1966.51</ele>
        <time>2020-07-16T07:56:45Z</time>
      </trkpt>
      <trkpt lat="44.97105" lon="5.83916">
        <ele>1969.4</ele>
        <time>2020-07-16T07:57:00Z</time>
      </trkpt>
      <trkpt lat="44.97111" lon="5.83928">
        <ele>1972.76</ele>
        <time>2020-07-16T07:57:16Z</time>
      </trkpt>
      <trkpt lat="44.97119" lon="5.83938">
        <ele>1975.65</ele>
        <time>2020-07-16T07:57:32Z</time>
      </trkpt>
      <trkpt lat="44.97126" lon="5.83948">
        <ele>1978.53</ele>
        <time>2020-07-16T07:57:50Z</time>
      </trkpt>
      <trkpt lat="44.97133" lon="5.8396">
        <ele>1981.41</ele>
        <time>2020-07-16T07:58:06Z</time>
      </trkpt>
      <trkpt lat="44.9714" lon="5.83976">
        <ele>1984.78</ele>
        <time>2020-07-16T07:58:26Z</time>
      </trkpt>
      <trkpt lat="44.97145" lon="5.8399">
        <ele>1987.18</ele>
        <time>2020-07-16T07:58:44Z</time>
      </trkpt>
      <trkpt lat="44.9715" lon="5.84004">
        <ele>1990.55</ele>
        <time>2020-07-16T07:59:02Z</time>
      </trkpt>
      <trkpt lat="44.97143" lon="5.84007">
        <ele>1992.95</ele>
        <time>2020-07-16T07:59:15Z</time>
      </trkpt>
      <trkpt lat="44.97126" lon="5.83996">
        <ele>1994.39</ele>
        <time>2020-07-16T07:59:32Z</time>
      </trkpt>
      <trkpt lat="44.97111" lon="5.83986">
        <ele>1994.39</ele>
        <time>2020-07-16T07:59:48Z</time>
      </trkpt>
      <trkpt lat="44.97095" lon="5.83982">
        <ele>1996.8</ele>
        <time>2020-07-16T08:00:07Z</time>
      </trkpt>
      <trkpt lat="44.9708" lon="5.83981">
        <ele>1999.2</ele>
        <time>2020-07-16T08:00:24Z</time>
      </trkpt>
      <trkpt lat="44.9708" lon="5.83983">
        <ele>1999.2</ele>
        <time>2020-07-16T08:00:26Z</time>
      </trkpt>
      <trkpt lat="44.97094" lon="5.83999">
        <ele>2002.56</ele>
        <time>2020-07-16T08:00:45Z</time>
      </trkpt>
      <trkpt lat="44.97101" lon="5.84013">
        <ele>2005.93</ele>
        <time>2020-07-16T08:01:01Z</time>
      </trkpt>
      <trkpt lat="44.97109" lon="5.84027">
        <ele>2008.81</ele>
        <time>2020-07-16T08:01:20Z</time>
      </trkpt>
      <trkpt lat="44.97114" lon="5.84039">
        <ele>2011.7</ele>
        <time>2020-07-16T08:01:35Z</time>
      </trkpt>
      <trkpt lat="44.97119" lon="5.84054">
        <ele>2014.58</ele>
        <time>2020-07-16T08:01:52Z</time>
      </trkpt>
      <trkpt lat="44.97125" lon="5.84066">
        <ele>2017.94</ele>
        <time>2020-07-16T08:02:08Z</time>
      </trkpt>
      <trkpt lat="44.97129" lon="5.84078">
        <ele>2020.35</ele>
        <time>2020-07-16T08:02:22Z</time>
      </trkpt>
      <trkpt lat="44.97133" lon="5.84088">
        <ele>2022.27</ele>
        <time>2020-07-16T08:02:34Z</time>
      </trkpt>
      <trkpt lat="44.97139" lon="5.84102">
        <ele>2025.64</ele>
        <time>2020-07-16T08:02:51Z</time>
      </trkpt>
      <trkpt lat="44.97138" lon="5.8411">
        <ele>2028.04</ele>
        <time>2020-07-16T08:03:06Z</time>
      </trkpt>
      <trkpt lat="44.97137" lon="5.84109">
        <ele>2028.04</ele>
        <time>2020-07-16T08:03:07Z</time>
      </trkpt>
      <trkpt lat="44.97135" lon="5.84109">
        <ele>2028.04</ele>
        <time>2020-07-16T08:03:08Z</time>
      </trkpt>
      <trkpt lat="44.97134" lon="5.84108">
        <ele>2028.04</ele>
        <time>2020-07-16T08:03:09Z</time>
      </trkpt>
      <trkpt lat="44.97116" lon="5.84097">
        <ele>2029.48</ele>
        <time>2020-07-16T08:03:27Z</time>
      </trkpt>
      <trkpt lat="44.97104" lon="5.84097">
        <ele>2032.36</ele>
        <time>2020-07-16T08:03:44Z</time>
      </trkpt>
      <trkpt lat="44.97098" lon="5.841">
        <ele>2034.29</ele>
        <time>2020-07-16T08:03:57Z</time>
      </trkpt>
      <trkpt lat="44.9709" lon="5.84103">
        <ele>2037.17</ele>
        <time>2020-07-16T08:04:11Z</time>
      </trkpt>
      <trkpt lat="44.97083" lon="5.84105">
        <ele>2039.57</ele>
        <time>2020-07-16T08:04:24Z</time>
      </trkpt>
      <trkpt lat="44.97076" lon="5.8411">
        <ele>2041.98</ele>
        <time>2020-07-16T08:04:38Z</time>
      </trkpt>
      <trkpt lat="44.9707" lon="5.84117">
        <ele>2045.34</ele>
        <time>2020-07-16T08:04:52Z</time>
      </trkpt>
      <trkpt lat="44.97065" lon="5.8412">
        <ele>2047.26</ele>
        <time>2020-07-16T08:05:07Z</time>
      </trkpt>
      <trkpt lat="44.97059" lon="5.8413">
        <ele>2050.63</ele>
        <time>2020-07-16T08:05:24Z</time>
      </trkpt>
      <trkpt lat="44.9705" lon="5.84137">
        <ele>2053.51</ele>
        <time>2020-07-16T08:05:39Z</time>
      </trkpt>
      <trkpt lat="44.9705" lon="5.84145">
        <ele>2056.4</ele>
        <time>2020-07-16T08:05:52Z</time>
      </trkpt>
      <trkpt lat="44.97051" lon="5.84154">
        <ele>2059.28</ele>
        <time>2020-07-16T08:06:06Z</time>
      </trkpt>
      <trkpt lat="44.97045" lon="5.84162">
        <ele>2062.17</ele>
        <time>2020-07-16T08:06:21Z</time>
      </trkpt>
      <trkpt lat="44.97046" lon="5.84171">
        <ele>2065.53</ele>
        <time>2020-07-16T08:06:36Z</time>
      </trkpt>
      <trkpt lat="44.97048" lon="5.84179">
        <ele>2067.93</ele>
        <time>2020-07-16T08:06:50Z</time>
      </trkpt>
      <trkpt lat="44.9704" lon="5.84187">
        <ele>2070.82</ele>
        <time>2020-07-16T08:07:03Z</time>
      </trkpt>
      <trkpt lat="44.97033" lon="5.84196">
        <ele>2073.7</ele>
        <time>2020-07-16T08:07:18Z</time>
      </trkpt>
      <trkpt lat="44.97037" lon="5.84204">
        <ele>2076.1</ele>
        <time>2020-07-16T08:07:31Z</time>
      </trkpt>
      <trkpt lat="44.97039" lon="5.84212">
        <ele>2078.99</ele>
        <time>2020-07-16T08:07:47Z</time>
      </trkpt>
      <trkpt lat="44.97043" lon="5.84221">
        <ele>2081.87</ele>
        <time>2020-07-16T08:08:03Z</time>
      </trkpt>
      <trkpt lat="44.97039" lon="5.84228">
        <ele>2084.76</ele>
        <time>2020-07-16T08:08:18Z</time>
      </trkpt>
      <trkpt lat="44.9704" lon="5.84235">
        <ele>2087.64</ele>
        <time>2020-07-16T08:08:31Z</time>
      </trkpt>
      <trkpt lat="44.97043" lon="5.84243">
        <ele>2090.52</ele>
        <time>2020-07-16T08:08:44Z</time>
      </trkpt>
      <trkpt lat="44.9704" lon="5.84249">
        <ele>2093.41</ele>
        <time>2020-07-16T08:08:58Z</time>
      </trkpt>
      <trkpt lat="44.97034" lon="5.84256">
        <ele>2096.77</ele>
        <time>2020-07-16T08:09:15Z</time>
      </trkpt>
      <trkpt lat="44.97027" lon="5.84265">
        <ele>2099.18</ele>
        <time>2020-07-16T08:09:33Z</time>
      </trkpt>
      <trkpt lat="44.97021" lon="5.84268">
        <ele>2100.62</ele>
        <time>2020-07-16T08:09:51Z</time>
      </trkpt>
      <trkpt lat="44.97018" lon="5.84269">
        <ele>2101.58</ele>
        <time>2020-07-16T08:09:55Z</time>
      </trkpt>
      <trkpt lat="44.97013" lon="5.84276">
        <ele>2103.02</ele>
        <time>2020-07-16T08:10:08Z</time>
      </trkpt>
      <trkpt lat="44.97008" lon="5.84284">
        <ele>2105.42</ele>
        <time>2020-07-16T08:10:23Z</time>
      </trkpt>
      <trkpt lat="44.96999" lon="5.8429">
        <ele>2108.31</ele>
        <time>2020-07-16T08:10:39Z</time>
      </trkpt>
      <trkpt lat="44.96995" lon="5.84297">
        <ele>2110.23</ele>
        <time>2020-07-16T08:10:54Z</time>
      </trkpt>
      <trkpt lat="44.96994" lon="5.84305">
        <ele>2113.6</ele>
        <time>2020-07-16T08:11:09Z</time>
      </trkpt>
      <trkpt lat="44.96986" lon="5.84313">
        <ele>2116.48</ele>
        <time>2020-07-16T08:11:27Z</time>
      </trkpt>
      <trkpt lat="44.96983" lon="5.84321">
        <ele>2119.36</ele>
        <time>2020-07-16T08:11:43Z</time>
      </trkpt>
      <trkpt lat="44.96974" lon="5.84329">
        <ele>2121.77</ele>
        <time>2020-07-16T08:11:59Z</time>
      </trkpt>
      <trkpt lat="44.96969" lon="5.84338">
        <ele>2124.17</ele>
        <time>2020-07-16T08:12:14Z</time>
      </trkpt>
      <trkpt lat="44.96961" lon="5.84346">
        <ele>2126.57</ele>
        <time>2020-07-16T08:12:30Z</time>
      </trkpt>
      <trkpt lat="44.96953" lon="5.84354">
        <ele>2128.98</ele>
        <time>2020-07-16T08:12:47Z</time>
      </trkpt>
      <trkpt lat="44.96945" lon="5.84361">
        <ele>2130.42</ele>
        <time>2020-07-16T08:13:01Z</time>
      </trkpt>
      <trkpt lat="44.96938" lon="5.84371">
        <ele>2132.82</ele>
        <time>2020-07-16T08:13:17Z</time>
      </trkpt>
      <trkpt lat="44.96935" lon="5.84375">
        <ele>2131.38</ele>
        <time>2020-07-16T08:13:22Z</time>
      </trkpt>
      <trkpt lat="44.96932" lon="5.84377">
        <ele>2133.3</ele>
        <time>2020-07-16T08:13:26Z</time>
      </trkpt>
      <trkpt lat="44.96931" lon="5.84377">
        <ele>2133.78</ele>
        <time>2020-07-16T08:13:27Z</time>
      </trkpt>
      <trkpt lat="44.96914" lon="5.84389">
        <ele>2135.23</ele>
        <time>2020-07-16T08:13:47Z</time>
      </trkpt>
      <trkpt lat="44.96913" lon="5.8439">
        <ele>2135.71</ele>
        <time>2020-07-16T08:13:48Z</time>
      </trkpt>
      <trkpt lat="44.96896" lon="5.84398">
        <ele>2136.19</ele>
        <time>2020-07-16T08:14:05Z</time>
      </trkpt>
      <trkpt lat="44.96881" lon="5.84401">
        <ele>2136.67</ele>
        <time>2020-07-16T08:14:21Z</time>
      </trkpt>
      <trkpt lat="44.96866" lon="5.84403">
        <ele>2137.63</ele>
        <time>2020-07-16T08:14:39Z</time>
      </trkpt>
      <trkpt lat="44.96858" lon="5.84409">
        <ele>2136.67</ele>
        <time>2020-07-16T08:14:49Z</time>
      </trkpt>
      <trkpt lat="44.96842" lon="5.84413">
        <ele>2138.11</ele>
        <time>2020-07-16T08:15:06Z</time>
      </trkpt>
      <trkpt lat="44.96826" lon="5.84417">
        <ele>2137.63</ele>
        <time>2020-07-16T08:15:23Z</time>
      </trkpt>
      <trkpt lat="44.96812" lon="5.84422">
        <ele>2139.07</ele>
        <time>2020-07-16T08:15:38Z</time>
      </trkpt>
      <trkpt lat="44.96796" lon="5.84428">
        <ele>2140.03</ele>
        <time>2020-07-16T08:15:56Z</time>
      </trkpt>
      <trkpt lat="44.96778" lon="5.84429">
        <ele>2140.51</ele>
        <time>2020-07-16T08:16:13Z</time>
      </trkpt>
      <trkpt lat="44.96761" lon="5.8444">
        <ele>2140.99</ele>
        <time>2020-07-16T08:16:31Z</time>
      </trkpt>
      <trkpt lat="44.96755" lon="5.84444">
        <ele>2141.47</ele>
        <time>2020-07-16T08:16:37Z</time>
      </trkpt>
      <trkpt lat="44.96751" lon="5.84457">
        <ele>2143.4</ele>
        <time>2020-07-16T08:16:53Z</time>
      </trkpt>
      <trkpt lat="44.96751" lon="5.8446">
        <ele>2144.36</ele>
        <time>2020-07-16T08:17:10Z</time>
      </trkpt>
      <trkpt lat="44.96745" lon="5.84461">
        <ele>2143.88</ele>
        <time>2020-07-16T08:17:26Z</time>
      </trkpt>
      <trkpt lat="44.9674" lon="5.84466">
        <ele>2142.44</ele>
        <time>2020-07-16T08:17:38Z</time>
      </trkpt>
      <trkpt lat="44.96734" lon="5.84469">
        <ele>2142.92</ele>
        <time>2020-07-16T08:17:45Z</time>
      </trkpt>
      <trkpt lat="44.96725" lon="5.84473">
        <ele>2143.4</ele>
        <time>2020-07-16T08:17:56Z</time>
      </trkpt>
      <trkpt lat="44.96724" lon="5.84474">
        <ele>2143.4</ele>
        <time>2020-07-16T08:17:57Z</time>
      </trkpt>
      <trkpt lat="44.96721" lon="5.84477">
        <ele>2143.4</ele>
        <time>2020-07-16T08:18:02Z</time>
      </trkpt>
      <trkpt lat="44.96712" lon="5.84478">
        <ele>2144.84</ele>
        <time>2020-07-16T08:18:11Z</time>
      </trkpt>
      <trkpt lat="44.96694" lon="5.84479">
        <ele>2144.36</ele>
        <time>2020-07-16T08:18:31Z</time>
      </trkpt>
      <trkpt lat="44.96676" lon="5.84475">
        <ele>2144.36</ele>
        <time>2020-07-16T08:18:50Z</time>
      </trkpt>
      <trkpt lat="44.96672" lon="5.84475">
        <ele>2142.44</ele>
        <time>2020-07-16T08:18:54Z</time>
      </trkpt>
      <trkpt lat="44.96667" lon="5.84476">
        <ele>2145.8</ele>
        <time>2020-07-16T08:19:00Z</time>
      </trkpt>
      <trkpt lat="44.96653" lon="5.84471">
        <ele>2146.28</ele>
        <time>2020-07-16T08:19:17Z</time>
      </trkpt>
      <trkpt lat="44.96643" lon="5.84466">
        <ele>2146.76</ele>
        <time>2020-07-16T08:19:31Z</time>
      </trkpt>
      <trkpt lat="44.9663" lon="5.84464">
        <ele>2147.72</ele>
        <time>2020-07-16T08:19:47Z</time>
      </trkpt>
      <trkpt lat="44.96616" lon="5.84467">
        <ele>2148.2</ele>
        <time>2020-07-16T08:20:03Z</time>
      </trkpt>
      <trkpt lat="44.96613" lon="5.84468">
        <ele>2148.68</ele>
        <time>2020-07-16T08:20:06Z</time>
      </trkpt>
      <trkpt lat="44.96606" lon="5.84471">
        <ele>2148.68</ele>
        <time>2020-07-16T08:20:14Z</time>
      </trkpt>
      <trkpt lat="44.96595" lon="5.84468">
        <ele>2149.65</ele>
        <time>2020-07-16T08:20:28Z</time>
      </trkpt>
      <trkpt lat="44.96591" lon="5.84469">
        <ele>2150.13</ele>
        <time>2020-07-16T08:20:33Z</time>
      </trkpt>
      <trkpt lat="44.96589" lon="5.8447">
        <ele>2150.13</ele>
        <time>2020-07-16T08:20:35Z</time>
      </trkpt>
      <trkpt lat="44.96582" lon="5.8447">
        <ele>2150.61</ele>
        <time>2020-07-16T08:20:43Z</time>
      </trkpt>
      <trkpt lat="44.96566" lon="5.84467">
        <ele>2152.05</ele>
        <time>2020-07-16T08:21:00Z</time>
      </trkpt>
      <trkpt lat="44.96546" lon="5.84468">
        <ele>2153.01</ele>
        <time>2020-07-16T08:21:18Z</time>
      </trkpt>
      <trkpt lat="44.9653" lon="5.84463">
        <ele>2153.01</ele>
        <time>2020-07-16T08:21:33Z</time>
      </trkpt>
      <trkpt lat="44.96529" lon="5.84462">
        <ele>2153.01</ele>
        <time>2020-07-16T08:21:34Z</time>
      </trkpt>
      <trkpt lat="44.96528" lon="5.84461">
        <ele>2153.01</ele>
        <time>2020-07-16T08:21:35Z</time>
      </trkpt>
      <trkpt lat="44.9652" lon="5.84453">
        <ele>2153.01</ele>
        <time>2020-07-16T08:21:47Z</time>
      </trkpt>
      <trkpt lat="44.96516" lon="5.84446">
        <ele>2151.09</ele>
        <time>2020-07-16T08:21:54Z</time>
      </trkpt>
      <trkpt lat="44.96514" lon="5.84444">
        <ele>2153.01</ele>
        <time>2020-07-16T08:21:58Z</time>
      </trkpt>
      <trkpt lat="44.96512" lon="5.84438">
        <ele>2152.05</ele>
        <time>2020-07-16T08:22:04Z</time>
      </trkpt>
      <trkpt lat="44.96511" lon="5.84437">
        <ele>2151.57</ele>
        <time>2020-07-16T08:22:05Z</time>
      </trkpt>
      <trkpt lat="44.96509" lon="5.84432">
        <ele>2153.97</ele>
        <time>2020-07-16T08:22:09Z</time>
      </trkpt>
      <trkpt lat="44.96505" lon="5.84427">
        <ele>2154.93</ele>
        <time>2020-07-16T08:22:15Z</time>
      </trkpt>
      <trkpt lat="44.96503" lon="5.84426">
        <ele>2154.45</ele>
        <time>2020-07-16T08:22:16Z</time>
      </trkpt>
      <trkpt lat="44.96502" lon="5.84426">
        <ele>2154.45</ele>
        <time>2020-07-16T08:22:17Z</time>
      </trkpt>
      <trkpt lat="44.96501" lon="5.84426">
        <ele>2153.97</ele>
        <time>2020-07-16T08:22:18Z</time>
      </trkpt>
      <trkpt lat="44.965" lon="5.84425">
        <ele>2153.97</ele>
        <time>2020-07-16T08:22:19Z</time>
      </trkpt>
      <trkpt lat="44.96499" lon="5.84425">
        <ele>2153.97</ele>
        <time>2020-07-16T08:22:20Z</time>
      </trkpt>
      <trkpt lat="44.96485" lon="5.84418">
        <ele>2153.01</ele>
        <time>2020-07-16T08:22:34Z</time>
      </trkpt>
      <trkpt lat="44.96467" lon="5.84405">
        <ele>2151.57</ele>
        <time>2020-07-16T08:22:51Z</time>
      </trkpt>
      <trkpt lat="44.96447" lon="5.84397">
        <ele>2150.13</ele>
        <time>2020-07-16T08:23:08Z</time>
      </trkpt>
      <trkpt lat="44.9643" lon="5.844">
        <ele>2149.65</ele>
        <time>2020-07-16T08:23:24Z</time>
      </trkpt>
      <trkpt lat="44.96422" lon="5.84401">
        <ele>2150.61</ele>
        <time>2020-07-16T08:23:32Z</time>
      </trkpt>
      <trkpt lat="44.96409" lon="5.84397">
        <ele>2151.57</ele>
        <time>2020-07-16T08:23:47Z</time>
      </trkpt>
      <trkpt lat="44.96391" lon="5.84389">
        <ele>2151.57</ele>
        <time>2020-07-16T08:24:05Z</time>
      </trkpt>
      <trkpt lat="44.9638" lon="5.84386">
        <ele>2151.57</ele>
        <time>2020-07-16T08:24:16Z</time>
      </trkpt>
      <trkpt lat="44.96378" lon="5.84386">
        <ele>2151.57</ele>
        <time>2020-07-16T08:24:17Z</time>
      </trkpt>
      <trkpt lat="44.96362" lon="5.84378">
        <ele>2151.57</ele>
        <time>2020-07-16T08:24:34Z</time>
      </trkpt>
      <trkpt lat="44.96356" lon="5.84374">
        <ele>2151.57</ele>
        <time>2020-07-16T08:24:42Z</time>
      </trkpt>
      <trkpt lat="44.96345" lon="5.84367">
        <ele>2153.49</ele>
        <time>2020-07-16T08:24:57Z</time>
      </trkpt>
      <trkpt lat="44.96334" lon="5.84364">
        <ele>2155.89</ele>
        <time>2020-07-16T08:25:13Z</time>
      </trkpt>
      <trkpt lat="44.96329" lon="5.84364">
        <ele>2156.86</ele>
        <time>2020-07-16T08:25:19Z</time>
      </trkpt>
      <trkpt lat="44.96318" lon="5.84359">
        <ele>2159.26</ele>
        <time>2020-07-16T08:25:35Z</time>
      </trkpt>
      <trkpt lat="44.96314" lon="5.84358">
        <ele>2160.22</ele>
        <time>2020-07-16T08:25:40Z</time>
      </trkpt>
      <trkpt lat="44.96302" lon="5.84355">
        <ele>2162.14</ele>
        <time>2020-07-16T08:25:53Z</time>
      </trkpt>
      <trkpt lat="44.9629" lon="5.84358">
        <ele>2163.58</ele>
        <time>2020-07-16T08:26:07Z</time>
      </trkpt>
      <trkpt lat="44.96278" lon="5.84359">
        <ele>2165.99</ele>
        <time>2020-07-16T08:26:22Z</time>
      </trkpt>
      <trkpt lat="44.96264" lon="5.8436">
        <ele>2167.43</ele>
        <time>2020-07-16T08:26:38Z</time>
      </trkpt>
      <trkpt lat="44.96253" lon="5.84362">
        <ele>2168.87</ele>
        <time>2020-07-16T08:26:53Z</time>
      </trkpt>
      <trkpt lat="44.96243" lon="5.84363">
        <ele>2171.27</ele>
        <time>2020-07-16T08:27:09Z</time>
      </trkpt>
      <trkpt lat="44.96234" lon="5.84366">
        <ele>2174.64</ele>
        <time>2020-07-16T08:27:25Z</time>
      </trkpt>
      <trkpt lat="44.96224" lon="5.84369">
        <ele>2176.56</ele>
        <time>2020-07-16T08:27:39Z</time>
      </trkpt>
      <trkpt lat="44.96213" lon="5.84373">
        <ele>2178.48</ele>
        <time>2020-07-16T08:27:53Z</time>
      </trkpt>
      <trkpt lat="44.96204" lon="5.84379">
        <ele>2180.41</ele>
        <time>2020-07-16T08:28:07Z</time>
      </trkpt>
      <trkpt lat="44.96196" lon="5.84383">
        <ele>2181.85</ele>
        <time>2020-07-16T08:28:21Z</time>
      </trkpt>
      <trkpt lat="44.96184" lon="5.84385">
        <ele>2183.77</ele>
        <time>2020-07-16T08:28:37Z</time>
      </trkpt>
      <trkpt lat="44.96174" lon="5.84387">
        <ele>2184.73</ele>
        <time>2020-07-16T08:28:52Z</time>
      </trkpt>
      <trkpt lat="44.96174" lon="5.84388">
        <ele>2185.69</ele>
        <time>2020-07-16T08:29:14Z</time>
      </trkpt>
      <trkpt lat="44.96174" lon="5.8439">
        <ele>2185.69</ele>
        <time>2020-07-16T08:29:28Z</time>
      </trkpt>
      <trkpt lat="44.96173" lon="5.8439">
        <ele>2185.69</ele>
        <time>2020-07-16T08:29:55Z</time>
      </trkpt>
      <trkpt lat="44.96175" lon="5.84392">
        <ele>2183.29</ele>
        <time>2020-07-16T08:30:14Z</time>
      </trkpt>
      <trkpt lat="44.96175" lon="5.84392">
        <ele>2186.66</ele>
        <time>2020-07-16T08:30:20Z</time>
      </trkpt>
      <trkpt lat="44.96174" lon="5.84391">
        <ele>2188.58</ele>
        <time>2020-07-16T08:30:29Z</time>
      </trkpt>
      <trkpt lat="44.96174" lon="5.8439">
        <ele>2186.18</ele>
        <time>2020-07-16T08:30:56Z</time>
      </trkpt>
      <trkpt lat="44.96173" lon="5.84389">
        <ele>2185.69</ele>
        <time>2020-07-16T08:31:20Z</time>
      </trkpt>
      <trkpt lat="44.96174" lon="5.84388">
        <ele>2186.18</ele>
        <time>2020-07-16T08:31:48Z</time>
      </trkpt>
      <trkpt lat="44.96172" lon="5.8439">
        <ele>2186.66</ele>
        <time>2020-07-16T08:32:16Z</time>
      </trkpt>
      <trkpt lat="44.96174" lon="5.8439">
        <ele>2186.66</ele>
        <time>2020-07-16T08:32:52Z</time>
      </trkpt>
      <trkpt lat="44.96174" lon="5.84388">
        <ele>2186.66</ele>
        <time>2020-07-16T08:33:22Z</time>
      </trkpt>
      <trkpt lat="44.96173" lon="5.84387">
        <ele>2186.66</ele>
        <time>2020-07-16T08:33:44Z</time>
      </trkpt>
      <trkpt lat="44.96176" lon="5.84389">
        <ele>2189.06</ele>
        <time>2020-07-16T08:33:59Z</time>
      </trkpt>
      <trkpt lat="44.96175" lon="5.84389">
        <ele>2186.18</ele>
        <time>2020-07-16T08:34:24Z</time>
      </trkpt>
      <trkpt lat="44.96176" lon="5.84392">
        <ele>2186.18</ele>
        <time>2020-07-16T08:34:59Z</time>
      </trkpt>
      <trkpt lat="44.96175" lon="5.84389">
        <ele>2186.18</ele>
        <time>2020-07-16T08:35:33Z</time>
      </trkpt>
      <trkpt lat="44.96174" lon="5.84389">
        <ele>2186.18</ele>
        <time>2020-07-16T08:36:04Z</time>
      </trkpt>
      <trkpt lat="44.96174" lon="5.84389">
        <ele>2186.18</ele>
        <time>2020-07-16T08:36:48Z</time>
      </trkpt>
      <trkpt lat="44.96174" lon="5.84389">
        <ele>2186.18</ele>
        <time>2020-07-16T08:37:12Z</time>
      </trkpt>
      <trkpt lat="44.96176" lon="5.84392">
        <ele>2186.18</ele>
        <time>2020-07-16T08:37:37Z</time>
      </trkpt>
      <trkpt lat="44.96175" lon="5.84392">
        <ele>2186.18</ele>
        <time>2020-07-16T08:38:10Z</time>
      </trkpt>
      <trkpt lat="44.96176" lon="5.84392">
        <ele>2186.18</ele>
        <time>2020-07-16T08:38:32Z</time>
      </trkpt>
      <trkpt lat="44.96177" lon="5.84393">
        <ele>2186.18</ele>
        <time>2020-07-16T08:39:00Z</time>
      </trkpt>
      <trkpt lat="44.96175" lon="5.84391">
        <ele>2186.18</ele>
        <time>2020-07-16T08:39:23Z</time>
      </trkpt>
      <trkpt lat="44.96178" lon="5.84391">
        <ele>2186.18</ele>
        <time>2020-07-16T08:39:46Z</time>
      </trkpt>
      <trkpt lat="44.96182" lon="5.8439">
        <ele>2186.18</ele>
        <time>2020-07-16T08:39:57Z</time>
      </trkpt>
      <trkpt lat="44.96189" lon="5.84391">
        <ele>2185.21</ele>
        <time>2020-07-16T08:40:13Z</time>
      </trkpt>
      <trkpt lat="44.96192" lon="5.8439">
        <ele>2184.25</ele>
        <time>2020-07-16T08:40:31Z</time>
      </trkpt>
      <trkpt lat="44.96193" lon="5.8439">
        <ele>2184.25</ele>
        <time>2020-07-16T08:40:37Z</time>
      </trkpt>
      <trkpt lat="44.96194" lon="5.84388">
        <ele>2184.25</ele>
        <time>2020-07-16T08:40:39Z</time>
      </trkpt>
      <trkpt lat="44.96195" lon="5.84388">
        <ele>2184.25</ele>
        <time>2020-07-16T08:40:40Z</time>
      </trkpt>
      <trkpt lat="44.96197" lon="5.84388">
        <ele>2184.25</ele>
        <time>2020-07-16T08:40:41Z</time>
      </trkpt>
      <trkpt lat="44.96198" lon="5.84388">
        <ele>2184.25</ele>
        <time>2020-07-16T08:40:42Z</time>
      </trkpt>
      <trkpt lat="44.96199" lon="5.84388">
        <ele>2183.77</ele>
        <time>2020-07-16T08:40:43Z</time>
      </trkpt>
      <trkpt lat="44.96209" lon="5.84383">
        <ele>2182.33</ele>
        <time>2020-07-16T08:40:54Z</time>
      </trkpt>
      <trkpt lat="44.9621" lon="5.84383">
        <ele>2182.33</ele>
        <time>2020-07-16T08:40:55Z</time>
      </trkpt>
      <trkpt lat="44.96211" lon="5.84383">
        <ele>2181.85</ele>
        <time>2020-07-16T08:40:56Z</time>
      </trkpt>
      <trkpt lat="44.96223" lon="5.8438">
        <ele>2179.93</ele>
        <time>2020-07-16T08:41:06Z</time>
      </trkpt>
      <trkpt lat="44.96243" lon="5.84373">
        <ele>2176.56</ele>
        <time>2020-07-16T08:41:22Z</time>
      </trkpt>
      <trkpt lat="44.96243" lon="5.84373">
        <ele>2176.56</ele>
        <time>2020-07-16T08:41:23Z</time>
      </trkpt>
      <trkpt lat="44.96244" lon="5.84372">
        <ele>2176.08</ele>
        <time>2020-07-16T08:41:24Z</time>
      </trkpt>
      <trkpt lat="44.96246" lon="5.84371">
        <ele>2175.6</ele>
        <time>2020-07-16T08:41:25Z</time>
      </trkpt>
      <trkpt lat="44.96247" lon="5.84371">
        <ele>2175.6</ele>
        <time>2020-07-16T08:41:26Z</time>
      </trkpt>
      <trkpt lat="44.96248" lon="5.8437">
        <ele>2175.6</ele>
        <time>2020-07-16T08:41:27Z</time>
      </trkpt>
      <trkpt lat="44.96263" lon="5.84372">
        <ele>2172.24</ele>
        <time>2020-07-16T08:41:40Z</time>
      </trkpt>
      <trkpt lat="44.96275" lon="5.84369">
        <ele>2168.87</ele>
        <time>2020-07-16T08:41:51Z</time>
      </trkpt>
      <trkpt lat="44.96295" lon="5.84366">
        <ele>2167.43</ele>
        <time>2020-07-16T08:42:09Z</time>
      </trkpt>
      <trkpt lat="44.96307" lon="5.84364">
        <ele>2165.51</ele>
        <time>2020-07-16T08:42:20Z</time>
      </trkpt>
      <trkpt lat="44.96309" lon="5.84364">
        <ele>2165.03</ele>
        <time>2020-07-16T08:42:21Z</time>
      </trkpt>
      <trkpt lat="44.96312" lon="5.84364">
        <ele>2164.55</ele>
        <time>2020-07-16T08:42:24Z</time>
      </trkpt>
      <trkpt lat="44.96321" lon="5.84367">
        <ele>2163.1</ele>
        <time>2020-07-16T08:42:33Z</time>
      </trkpt>
      <trkpt lat="44.96322" lon="5.84367">
        <ele>2162.62</ele>
        <time>2020-07-16T08:42:34Z</time>
      </trkpt>
      <trkpt lat="44.96323" lon="5.84368">
        <ele>2162.62</ele>
        <time>2020-07-16T08:42:35Z</time>
      </trkpt>
      <trkpt lat="44.96325" lon="5.84368">
        <ele>2162.62</ele>
        <time>2020-07-16T08:42:36Z</time>
      </trkpt>
      <trkpt lat="44.96336" lon="5.84372">
        <ele>2159.74</ele>
        <time>2020-07-16T08:42:47Z</time>
      </trkpt>
      <trkpt lat="44.96338" lon="5.84371">
        <ele>2157.82</ele>
        <time>2020-07-16T08:42:59Z</time>
      </trkpt>
      <trkpt lat="44.96339" lon="5.84373">
        <ele>2157.82</ele>
        <time>2020-07-16T08:43:02Z</time>
      </trkpt>
      <trkpt lat="44.96341" lon="5.84373">
        <ele>2157.82</ele>
        <time>2020-07-16T08:43:03Z</time>
      </trkpt>
      <trkpt lat="44.96342" lon="5.84373">
        <ele>2157.82</ele>
        <time>2020-07-16T08:43:04Z</time>
      </trkpt>
      <trkpt lat="44.96343" lon="5.84374">
        <ele>2157.82</ele>
        <time>2020-07-16T08:43:05Z</time>
      </trkpt>
      <trkpt lat="44.96344" lon="5.84374">
        <ele>2157.34</ele>
        <time>2020-07-16T08:43:06Z</time>
      </trkpt>
      <trkpt lat="44.96359" lon="5.8438">
        <ele>2153.97</ele>
        <time>2020-07-16T08:43:20Z</time>
      </trkpt>
      <trkpt lat="44.96377" lon="5.8439">
        <ele>2151.09</ele>
        <time>2020-07-16T08:43:35Z</time>
      </trkpt>
      <trkpt lat="44.964" lon="5.84399">
        <ele>2150.61</ele>
        <time>2020-07-16T08:43:55Z</time>
      </trkpt>
      <trkpt lat="44.96418" lon="5.84406">
        <ele>2151.09</ele>
        <time>2020-07-16T08:44:12Z</time>
      </trkpt>
      <trkpt lat="44.96435" lon="5.84408">
        <ele>2150.61</ele>
        <time>2020-07-16T08:44:27Z</time>
      </trkpt>
      <trkpt lat="44.96456" lon="5.84404">
        <ele>2149.65</ele>
        <time>2020-07-16T08:44:43Z</time>
      </trkpt>
      <trkpt lat="44.96476" lon="5.84414">
        <ele>2149.65</ele>
        <time>2020-07-16T08:45:00Z</time>
      </trkpt>
      <trkpt lat="44.96493" lon="5.84426">
        <ele>2151.57</ele>
        <time>2020-07-16T08:45:17Z</time>
      </trkpt>
      <trkpt lat="44.96514" lon="5.84435">
        <ele>2153.49</ele>
        <time>2020-07-16T08:45:36Z</time>
      </trkpt>
      <trkpt lat="44.96534" lon="5.84446">
        <ele>2154.93</ele>
        <time>2020-07-16T08:45:55Z</time>
      </trkpt>
      <trkpt lat="44.96553" lon="5.84452">
        <ele>2154.45</ele>
        <time>2020-07-16T08:46:12Z</time>
      </trkpt>
      <trkpt lat="44.96577" lon="5.84458">
        <ele>2157.34</ele>
        <time>2020-07-16T08:46:33Z</time>
      </trkpt>
      <trkpt lat="44.96596" lon="5.8446">
        <ele>2155.89</ele>
        <time>2020-07-16T08:46:50Z</time>
      </trkpt>
      <trkpt lat="44.96618" lon="5.84459">
        <ele>2153.49</ele>
        <time>2020-07-16T08:47:09Z</time>
      </trkpt>
      <trkpt lat="44.96637" lon="5.84457">
        <ele>2151.09</ele>
        <time>2020-07-16T08:47:25Z</time>
      </trkpt>
      <trkpt lat="44.96654" lon="5.84461">
        <ele>2150.13</ele>
        <time>2020-07-16T08:47:38Z</time>
      </trkpt>
      <trkpt lat="44.96655" lon="5.84461">
        <ele>2150.13</ele>
        <time>2020-07-16T08:47:39Z</time>
      </trkpt>
      <trkpt lat="44.96657" lon="5.84461">
        <ele>2150.13</ele>
        <time>2020-07-16T08:47:40Z</time>
      </trkpt>
      <trkpt lat="44.96658" lon="5.84461">
        <ele>2150.13</ele>
        <time>2020-07-16T08:47:41Z</time>
      </trkpt>
      <trkpt lat="44.96659" lon="5.84461">
        <ele>2150.13</ele>
        <time>2020-07-16T08:47:42Z</time>
      </trkpt>
      <trkpt lat="44.96661" lon="5.84461">
        <ele>2150.13</ele>
        <time>2020-07-16T08:47:43Z</time>
      </trkpt>
      <trkpt lat="44.96662" lon="5.84462">
        <ele>2150.13</ele>
        <time>2020-07-16T08:47:44Z</time>
      </trkpt>
      <trkpt lat="44.96663" lon="5.84462">
        <ele>2149.65</ele>
        <time>2020-07-16T08:47:45Z</time>
      </trkpt>
      <trkpt lat="44.9668" lon="5.84462">
        <ele>2146.76</ele>
        <time>2020-07-16T08:47:58Z</time>
      </trkpt>
      <trkpt lat="44.96681" lon="5.84462">
        <ele>2146.76</ele>
        <time>2020-07-16T08:47:59Z</time>
      </trkpt>
      <trkpt lat="44.96705" lon="5.84467">
        <ele>2145.8</ele>
        <time>2020-07-16T08:48:17Z</time>
      </trkpt>
      <trkpt lat="44.96726" lon="5.84472">
        <ele>2144.36</ele>
        <time>2020-07-16T08:48:37Z</time>
      </trkpt>
      <trkpt lat="44.9673" lon="5.84472">
        <ele>2144.36</ele>
        <time>2020-07-16T08:48:52Z</time>
      </trkpt>
      <trkpt lat="44.96731" lon="5.8447">
        <ele>2144.36</ele>
        <time>2020-07-16T08:48:54Z</time>
      </trkpt>
      <trkpt lat="44.96732" lon="5.84469">
        <ele>2144.36</ele>
        <time>2020-07-16T08:48:55Z</time>
      </trkpt>
      <trkpt lat="44.96734" lon="5.8447">
        <ele>2143.88</ele>
        <time>2020-07-16T08:49:08Z</time>
      </trkpt>
      <trkpt lat="44.96737" lon="5.84468">
        <ele>2143.88</ele>
        <time>2020-07-16T08:49:12Z</time>
      </trkpt>
      <trkpt lat="44.96738" lon="5.84467">
        <ele>2143.88</ele>
        <time>2020-07-16T08:49:13Z</time>
      </trkpt>
      <trkpt lat="44.96753" lon="5.84467">
        <ele>2143.88</ele>
        <time>2020-07-16T08:49:28Z</time>
      </trkpt>
      <trkpt lat="44.96753" lon="5.84466">
        <ele>2144.36</ele>
        <time>2020-07-16T08:49:43Z</time>
      </trkpt>
      <trkpt lat="44.96752" lon="5.84464">
        <ele>2143.88</ele>
        <time>2020-07-16T08:50:05Z</time>
      </trkpt>
      <trkpt lat="44.96751" lon="5.84465">
        <ele>2143.4</ele>
        <time>2020-07-16T08:50:24Z</time>
      </trkpt>
      <trkpt lat="44.9675" lon="5.84463">
        <ele>2142.92</ele>
        <time>2020-07-16T08:50:55Z</time>
      </trkpt>
      <trkpt lat="44.96751" lon="5.84463">
        <ele>2142.44</ele>
        <time>2020-07-16T08:51:28Z</time>
      </trkpt>
      <trkpt lat="44.9675" lon="5.84463">
        <ele>2141.95</ele>
        <time>2020-07-16T08:51:59Z</time>
      </trkpt>
      <trkpt lat="44.9675" lon="5.84463">
        <ele>2141.47</ele>
        <time>2020-07-16T08:52:27Z</time>
      </trkpt>
      <trkpt lat="44.96757" lon="5.84472">
        <ele>2141.95</ele>
        <time>2020-07-16T08:52:39Z</time>
      </trkpt>
      <trkpt lat="44.96759" lon="5.84479">
        <ele>2142.92</ele>
        <time>2020-07-16T08:52:46Z</time>
      </trkpt>
      <trkpt lat="44.96769" lon="5.84489">
        <ele>2145.32</ele>
        <time>2020-07-16T08:53:01Z</time>
      </trkpt>
      <trkpt lat="44.96779" lon="5.845">
        <ele>2148.2</ele>
        <time>2020-07-16T08:53:19Z</time>
      </trkpt>
      <trkpt lat="44.96786" lon="5.84511">
        <ele>2150.61</ele>
        <time>2020-07-16T08:53:35Z</time>
      </trkpt>
      <trkpt lat="44.96794" lon="5.84518">
        <ele>2153.01</ele>
        <time>2020-07-16T08:53:51Z</time>
      </trkpt>
      <trkpt lat="44.96804" lon="5.84523">
        <ele>2155.41</ele>
        <time>2020-07-16T08:54:05Z</time>
      </trkpt>
      <trkpt lat="44.96813" lon="5.84528">
        <ele>2158.3</ele>
        <time>2020-07-16T08:54:24Z</time>
      </trkpt>
      <trkpt lat="44.96822" lon="5.84528">
        <ele>2160.22</ele>
        <time>2020-07-16T08:54:38Z</time>
      </trkpt>
      <trkpt lat="44.96833" lon="5.84528">
        <ele>2163.1</ele>
        <time>2020-07-16T08:54:54Z</time>
      </trkpt>
      <trkpt lat="44.96842" lon="5.84535">
        <ele>2165.03</ele>
        <time>2020-07-16T08:55:07Z</time>
      </trkpt>
      <trkpt lat="44.96851" lon="5.84543">
        <ele>2166.47</ele>
        <time>2020-07-16T08:55:21Z</time>
      </trkpt>
      <trkpt lat="44.96853" lon="5.84544">
        <ele>2166.95</ele>
        <time>2020-07-16T08:55:23Z</time>
      </trkpt>
      <trkpt lat="44.96861" lon="5.84551">
        <ele>2168.39</ele>
        <time>2020-07-16T08:55:35Z</time>
      </trkpt>
      <trkpt lat="44.96872" lon="5.84563">
        <ele>2170.79</ele>
        <time>2020-07-16T08:55:53Z</time>
      </trkpt>
      <trkpt lat="44.96879" lon="5.84575">
        <ele>2172.72</ele>
        <time>2020-07-16T08:56:08Z</time>
      </trkpt>
      <trkpt lat="44.96891" lon="5.84587">
        <ele>2175.12</ele>
        <time>2020-07-16T08:56:26Z</time>
      </trkpt>
      <trkpt lat="44.96895" lon="5.84591">
        <ele>2175.6</ele>
        <time>2020-07-16T08:56:33Z</time>
      </trkpt>
      <trkpt lat="44.96896" lon="5.84592">
        <ele>2175.6</ele>
        <time>2020-07-16T08:56:34Z</time>
      </trkpt>
      <trkpt lat="44.96898" lon="5.84593">
        <ele>2176.08</ele>
        <time>2020-07-16T08:56:36Z</time>
      </trkpt>
      <trkpt lat="44.96899" lon="5.84594">
        <ele>2176.08</ele>
        <time>2020-07-16T08:56:37Z</time>
      </trkpt>
      <trkpt lat="44.96912" lon="5.84606">
        <ele>2176.08</ele>
        <time>2020-07-16T08:56:53Z</time>
      </trkpt>
      <trkpt lat="44.96922" lon="5.8461">
        <ele>2178.48</ele>
        <time>2020-07-16T08:57:03Z</time>
      </trkpt>
      <trkpt lat="44.9694" lon="5.84616">
        <ele>2177.52</ele>
        <time>2020-07-16T08:57:18Z</time>
      </trkpt>
      <trkpt lat="44.96954" lon="5.84618">
        <ele>2177.04</ele>
        <time>2020-07-16T08:57:33Z</time>
      </trkpt>
      <trkpt lat="44.96966" lon="5.84622">
        <ele>2178.97</ele>
        <time>2020-07-16T08:57:48Z</time>
      </trkpt>
      <trkpt lat="44.96981" lon="5.84625">
        <ele>2180.89</ele>
        <time>2020-07-16T08:58:04Z</time>
      </trkpt>
      <trkpt lat="44.96983" lon="5.84627">
        <ele>2181.37</ele>
        <time>2020-07-16T08:58:07Z</time>
      </trkpt>
      <trkpt lat="44.96994" lon="5.84632">
        <ele>2182.33</ele>
        <time>2020-07-16T08:58:21Z</time>
      </trkpt>
      <trkpt lat="44.97006" lon="5.84637">
        <ele>2183.77</ele>
        <time>2020-07-16T08:58:35Z</time>
      </trkpt>
      <trkpt lat="44.97015" lon="5.8464">
        <ele>2185.21</ele>
        <time>2020-07-16T08:58:51Z</time>
      </trkpt>
      <trkpt lat="44.97027" lon="5.84646">
        <ele>2187.62</ele>
        <time>2020-07-16T08:59:08Z</time>
      </trkpt>
      <trkpt lat="44.97034" lon="5.84648">
        <ele>2189.06</ele>
        <time>2020-07-16T08:59:24Z</time>
      </trkpt>
      <trkpt lat="44.97035" lon="5.84648">
        <ele>2190.02</ele>
        <time>2020-07-16T08:59:49Z</time>
      </trkpt>
      <trkpt lat="44.97035" lon="5.84647">
        <ele>2190.5</ele>
        <time>2020-07-16T09:00:19Z</time>
      </trkpt>
      <trkpt lat="44.97035" lon="5.84648">
        <ele>2190.5</ele>
        <time>2020-07-16T09:00:51Z</time>
      </trkpt>
      <trkpt lat="44.97031" lon="5.84645">
        <ele>2190.5</ele>
        <time>2020-07-16T09:01:14Z</time>
      </trkpt>
      <trkpt lat="44.97041" lon="5.84652">
        <ele>2190.98</ele>
        <time>2020-07-16T09:01:29Z</time>
      </trkpt>
      <trkpt lat="44.97055" lon="5.84659">
        <ele>2193.39</ele>
        <time>2020-07-16T09:01:45Z</time>
      </trkpt>
      <trkpt lat="44.97066" lon="5.84665">
        <ele>2195.79</ele>
        <time>2020-07-16T09:01:59Z</time>
      </trkpt>
      <trkpt lat="44.97068" lon="5.84667">
        <ele>2196.27</ele>
        <time>2020-07-16T09:02:01Z</time>
      </trkpt>
      <trkpt lat="44.97082" lon="5.84674">
        <ele>2198.19</ele>
        <time>2020-07-16T09:02:16Z</time>
      </trkpt>
      <trkpt lat="44.97096" lon="5.84677">
        <ele>2200.11</ele>
        <time>2020-07-16T09:02:32Z</time>
      </trkpt>
      <trkpt lat="44.97111" lon="5.8468">
        <ele>2202.04</ele>
        <time>2020-07-16T09:02:47Z</time>
      </trkpt>
      <trkpt lat="44.97128" lon="5.84687">
        <ele>2203.48</ele>
        <time>2020-07-16T09:03:03Z</time>
      </trkpt>
      <trkpt lat="44.97129" lon="5.84687">
        <ele>2203.96</ele>
        <time>2020-07-16T09:03:04Z</time>
      </trkpt>
      <trkpt lat="44.97136" lon="5.84689">
        <ele>2203.96</ele>
        <time>2020-07-16T09:03:11Z</time>
      </trkpt>
      <trkpt lat="44.9715" lon="5.847">
        <ele>2205.4</ele>
        <time>2020-07-16T09:03:26Z</time>
      </trkpt>
      <trkpt lat="44.97166" lon="5.84705">
        <ele>2206.36</ele>
        <time>2020-07-16T09:03:41Z</time>
      </trkpt>
      <trkpt lat="44.97174" lon="5.84704">
        <ele>2206.84</ele>
        <time>2020-07-16T09:03:50Z</time>
      </trkpt>
      <trkpt lat="44.97179" lon="5.84707">
        <ele>2206.84</ele>
        <time>2020-07-16T09:03:57Z</time>
      </trkpt>
      <trkpt lat="44.97183" lon="5.84709">
        <ele>2206.36</ele>
        <time>2020-07-16T09:04:02Z</time>
      </trkpt>
      <trkpt lat="44.97204" lon="5.84711">
        <ele>2203.96</ele>
        <time>2020-07-16T09:04:20Z</time>
      </trkpt>
      <trkpt lat="44.97221" lon="5.84716">
        <ele>2202.04</ele>
        <time>2020-07-16T09:04:35Z</time>
      </trkpt>
      <trkpt lat="44.97224" lon="5.84718">
        <ele>2201.56</ele>
        <time>2020-07-16T09:04:38Z</time>
      </trkpt>
      <trkpt lat="44.97225" lon="5.84719">
        <ele>2201.56</ele>
        <time>2020-07-16T09:04:39Z</time>
      </trkpt>
      <trkpt lat="44.97234" lon="5.84742">
        <ele>2200.59</ele>
        <time>2020-07-16T09:04:56Z</time>
      </trkpt>
      <trkpt lat="44.97242" lon="5.84759">
        <ele>2202.04</ele>
        <time>2020-07-16T09:05:11Z</time>
      </trkpt>
      <trkpt lat="44.97251" lon="5.84776">
        <ele>2205.4</ele>
        <time>2020-07-16T09:05:29Z</time>
      </trkpt>
      <trkpt lat="44.97257" lon="5.8479">
        <ele>2207.32</ele>
        <time>2020-07-16T09:05:44Z</time>
      </trkpt>
      <trkpt lat="44.97266" lon="5.84807">
        <ele>2209.73</ele>
        <time>2020-07-16T09:06:03Z</time>
      </trkpt>
      <trkpt lat="44.97272" lon="5.8482">
        <ele>2211.65</ele>
        <time>2020-07-16T09:06:19Z</time>
      </trkpt>
      <trkpt lat="44.97279" lon="5.84829">
        <ele>2213.57</ele>
        <time>2020-07-16T09:06:31Z</time>
      </trkpt>
      <trkpt lat="44.97285" lon="5.84844">
        <ele>2215.01</ele>
        <time>2020-07-16T09:06:45Z</time>
      </trkpt>
      <trkpt lat="44.97288" lon="5.84854">
        <ele>2216.46</ele>
        <time>2020-07-16T09:06:54Z</time>
      </trkpt>
      <trkpt lat="44.97297" lon="5.84865">
        <ele>2218.38</ele>
        <time>2020-07-16T09:07:08Z</time>
      </trkpt>
      <trkpt lat="44.97309" lon="5.84878">
        <ele>2220.78</ele>
        <time>2020-07-16T09:07:24Z</time>
      </trkpt>
      <trkpt lat="44.97317" lon="5.84888">
        <ele>2223.19</ele>
        <time>2020-07-16T09:07:40Z</time>
      </trkpt>
      <trkpt lat="44.97322" lon="5.84902">
        <ele>2226.55</ele>
        <time>2020-07-16T09:07:58Z</time>
      </trkpt>
      <trkpt lat="44.97333" lon="5.84912">
        <ele>2229.43</ele>
        <time>2020-07-16T09:08:16Z</time>
      </trkpt>
      <trkpt lat="44.97342" lon="5.84926">
        <ele>2231.36</ele>
        <time>2020-07-16T09:08:32Z</time>
      </trkpt>
      <trkpt lat="44.97352" lon="5.84937">
        <ele>2233.28</ele>
        <time>2020-07-16T09:08:47Z</time>
      </trkpt>
      <trkpt lat="44.9736" lon="5.84947">
        <ele>2235.2</ele>
        <time>2020-07-16T09:09:00Z</time>
      </trkpt>
      <trkpt lat="44.9736" lon="5.84947">
        <ele>2235.68</ele>
        <time>2020-07-16T09:09:01Z</time>
      </trkpt>
      <trkpt lat="44.97361" lon="5.84948">
        <ele>2235.68</ele>
        <time>2020-07-16T09:09:02Z</time>
      </trkpt>
      <trkpt lat="44.97362" lon="5.84949">
        <ele>2235.68</ele>
        <time>2020-07-16T09:09:03Z</time>
      </trkpt>
      <trkpt lat="44.97372" lon="5.8496">
        <ele>2237.61</ele>
        <time>2020-07-16T09:09:18Z</time>
      </trkpt>
      <trkpt lat="44.97381" lon="5.84973">
        <ele>2240.01</ele>
        <time>2020-07-16T09:09:35Z</time>
      </trkpt>
      <trkpt lat="44.97384" lon="5.84976">
        <ele>2240.01</ele>
        <time>2020-07-16T09:09:38Z</time>
      </trkpt>
      <trkpt lat="44.97393" lon="5.84987">
        <ele>2241.93</ele>
        <time>2020-07-16T09:09:53Z</time>
      </trkpt>
      <trkpt lat="44.97395" lon="5.8499">
        <ele>2242.41</ele>
        <time>2020-07-16T09:09:56Z</time>
      </trkpt>
      <trkpt lat="44.97405" lon="5.85005">
        <ele>2244.82</ele>
        <time>2020-07-16T09:10:14Z</time>
      </trkpt>
      <trkpt lat="44.97414" lon="5.85018">
        <ele>2248.18</ele>
        <time>2020-07-16T09:10:32Z</time>
      </trkpt>
      <trkpt lat="44.97422" lon="5.85036">
        <ele>2251.06</ele>
        <time>2020-07-16T09:10:51Z</time>
      </trkpt>
      <trkpt lat="44.97427" lon="5.85047">
        <ele>2254.43</ele>
        <time>2020-07-16T09:11:07Z</time>
      </trkpt>
      <trkpt lat="44.97437" lon="5.85058">
        <ele>2257.31</ele>
        <time>2020-07-16T09:11:26Z</time>
      </trkpt>
      <trkpt lat="44.97444" lon="5.85067">
        <ele>2260.68</ele>
        <time>2020-07-16T09:11:37Z</time>
      </trkpt>
      <trkpt lat="44.97448" lon="5.8507">
        <ele>2262.12</ele>
        <time>2020-07-16T09:11:43Z</time>
      </trkpt>
      <trkpt lat="44.97452" lon="5.85073">
        <ele>2262.6</ele>
        <time>2020-07-16T09:11:48Z</time>
      </trkpt>
      <trkpt lat="44.97453" lon="5.85074">
        <ele>2262.6</ele>
        <time>2020-07-16T09:11:49Z</time>
      </trkpt>
      <trkpt lat="44.97468" lon="5.85084">
        <ele>2264.52</ele>
        <time>2020-07-16T09:12:05Z</time>
      </trkpt>
      <trkpt lat="44.97477" lon="5.85091">
        <ele>2265</ele>
        <time>2020-07-16T09:12:15Z</time>
      </trkpt>
      <trkpt lat="44.97488" lon="5.851">
        <ele>2266.93</ele>
        <time>2020-07-16T09:12:30Z</time>
      </trkpt>
      <trkpt lat="44.97499" lon="5.85108">
        <ele>2268.37</ele>
        <time>2020-07-16T09:12:44Z</time>
      </trkpt>
      <trkpt lat="44.975" lon="5.85108">
        <ele>2268.37</ele>
        <time>2020-07-16T09:12:45Z</time>
      </trkpt>
      <trkpt lat="44.97501" lon="5.85109">
        <ele>2268.37</ele>
        <time>2020-07-16T09:12:46Z</time>
      </trkpt>
      <trkpt lat="44.97509" lon="5.85118">
        <ele>2270.29</ele>
        <time>2020-07-16T09:12:59Z</time>
      </trkpt>
      <trkpt lat="44.9751" lon="5.85119">
        <ele>2270.29</ele>
        <time>2020-07-16T09:13:00Z</time>
      </trkpt>
      <trkpt lat="44.97512" lon="5.8512">
        <ele>2270.77</ele>
        <time>2020-07-16T09:13:01Z</time>
      </trkpt>
      <trkpt lat="44.97513" lon="5.85121">
        <ele>2270.77</ele>
        <time>2020-07-16T09:13:02Z</time>
      </trkpt>
      <trkpt lat="44.97514" lon="5.85122">
        <ele>2271.25</ele>
        <time>2020-07-16T09:13:03Z</time>
      </trkpt>
      <trkpt lat="44.97514" lon="5.85123">
        <ele>2271.25</ele>
        <time>2020-07-16T09:13:04Z</time>
      </trkpt>
      <trkpt lat="44.97515" lon="5.85124">
        <ele>2271.25</ele>
        <time>2020-07-16T09:13:05Z</time>
      </trkpt>
      <trkpt lat="44.97516" lon="5.85125">
        <ele>2271.73</ele>
        <time>2020-07-16T09:13:06Z</time>
      </trkpt>
      <trkpt lat="44.97517" lon="5.85126">
        <ele>2271.73</ele>
        <time>2020-07-16T09:13:07Z</time>
      </trkpt>
      <trkpt lat="44.97523" lon="5.85131">
        <ele>2273.17</ele>
        <time>2020-07-16T09:13:16Z</time>
      </trkpt>
      <trkpt lat="44.97523" lon="5.85131">
        <ele>2273.17</ele>
        <time>2020-07-16T09:13:17Z</time>
      </trkpt>
      <trkpt lat="44.97525" lon="5.85132">
        <ele>2273.17</ele>
        <time>2020-07-16T09:13:18Z</time>
      </trkpt>
      <trkpt lat="44.97526" lon="5.85132">
        <ele>2273.17</ele>
        <time>2020-07-16T09:13:19Z</time>
      </trkpt>
      <trkpt lat="44.97527" lon="5.85133">
        <ele>2273.66</ele>
        <time>2020-07-16T09:13:20Z</time>
      </trkpt>
      <trkpt lat="44.97528" lon="5.85134">
        <ele>2273.66</ele>
        <time>2020-07-16T09:13:21Z</time>
      </trkpt>
      <trkpt lat="44.97531" lon="5.85136">
        <ele>2274.14</ele>
        <time>2020-07-16T09:13:24Z</time>
      </trkpt>
      <trkpt lat="44.97532" lon="5.85137">
        <ele>2274.14</ele>
        <time>2020-07-16T09:13:25Z</time>
      </trkpt>
      <trkpt lat="44.97534" lon="5.85137">
        <ele>2274.14</ele>
        <time>2020-07-16T09:13:26Z</time>
      </trkpt>
      <trkpt lat="44.97535" lon="5.85138">
        <ele>2274.62</ele>
        <time>2020-07-16T09:13:27Z</time>
      </trkpt>
      <trkpt lat="44.97536" lon="5.85139">
        <ele>2274.62</ele>
        <time>2020-07-16T09:13:28Z</time>
      </trkpt>
      <trkpt lat="44.97537" lon="5.85139">
        <ele>2274.62</ele>
        <time>2020-07-16T09:13:29Z</time>
      </trkpt>
      <trkpt lat="44.97556" lon="5.8515">
        <ele>2275.58</ele>
        <time>2020-07-16T09:13:45Z</time>
      </trkpt>
      <trkpt lat="44.97557" lon="5.85151">
        <ele>2275.58</ele>
        <time>2020-07-16T09:13:46Z</time>
      </trkpt>
      <trkpt lat="44.97558" lon="5.85151">
        <ele>2275.58</ele>
        <time>2020-07-16T09:13:47Z</time>
      </trkpt>
      <trkpt lat="44.9756" lon="5.85151">
        <ele>2275.58</ele>
        <time>2020-07-16T09:13:48Z</time>
      </trkpt>
      <trkpt lat="44.97561" lon="5.85152">
        <ele>2275.58</ele>
        <time>2020-07-16T09:13:49Z</time>
      </trkpt>
      <trkpt lat="44.97562" lon="5.85153">
        <ele>2275.1</ele>
        <time>2020-07-16T09:13:50Z</time>
      </trkpt>
      <trkpt lat="44.97563" lon="5.85153">
        <ele>2275.1</ele>
        <time>2020-07-16T09:13:51Z</time>
      </trkpt>
      <trkpt lat="44.97565" lon="5.85154">
        <ele>2275.1</ele>
        <time>2020-07-16T09:13:52Z</time>
      </trkpt>
      <trkpt lat="44.97566" lon="5.85155">
        <ele>2275.58</ele>
        <time>2020-07-16T09:13:53Z</time>
      </trkpt>
      <trkpt lat="44.97567" lon="5.85156">
        <ele>2275.58</ele>
        <time>2020-07-16T09:13:54Z</time>
      </trkpt>
      <trkpt lat="44.97581" lon="5.85166">
        <ele>2275.58</ele>
        <time>2020-07-16T09:14:07Z</time>
      </trkpt>
      <trkpt lat="44.97593" lon="5.85178">
        <ele>2277.98</ele>
        <time>2020-07-16T09:14:21Z</time>
      </trkpt>
      <trkpt lat="44.97595" lon="5.8518">
        <ele>2277.98</ele>
        <time>2020-07-16T09:14:23Z</time>
      </trkpt>
      <trkpt lat="44.97596" lon="5.85181">
        <ele>2277.98</ele>
        <time>2020-07-16T09:14:24Z</time>
      </trkpt>
      <trkpt lat="44.97604" lon="5.85189">
        <ele>2279.42</ele>
        <time>2020-07-16T09:14:35Z</time>
      </trkpt>
      <trkpt lat="44.97605" lon="5.8519">
        <ele>2279.42</ele>
        <time>2020-07-16T09:14:36Z</time>
      </trkpt>
      <trkpt lat="44.97609" lon="5.85199">
        <ele>2278.94</ele>
        <time>2020-07-16T09:14:43Z</time>
      </trkpt>
      <trkpt lat="44.97613" lon="5.85206">
        <ele>2277.98</ele>
        <time>2020-07-16T09:14:56Z</time>
      </trkpt>
      <trkpt lat="44.97621" lon="5.85213">
        <ele>2277.98</ele>
        <time>2020-07-16T09:15:09Z</time>
      </trkpt>
      <trkpt lat="44.97623" lon="5.85215">
        <ele>2277.98</ele>
        <time>2020-07-16T09:15:11Z</time>
      </trkpt>
      <trkpt lat="44.97634" lon="5.85227">
        <ele>2278.94</ele>
        <time>2020-07-16T09:15:28Z</time>
      </trkpt>
      <trkpt lat="44.97643" lon="5.85233">
        <ele>2277.5</ele>
        <time>2020-07-16T09:15:43Z</time>
      </trkpt>
      <trkpt lat="44.97649" lon="5.85236">
        <ele>2276.54</ele>
        <time>2020-07-16T09:15:50Z</time>
      </trkpt>
      <trkpt lat="44.97656" lon="5.85237">
        <ele>2275.1</ele>
        <time>2020-07-16T09:16:03Z</time>
      </trkpt>
      <trkpt lat="44.97661" lon="5.85244">
        <ele>2274.62</ele>
        <time>2020-07-16T09:16:17Z</time>
      </trkpt>
      <trkpt lat="44.97662" lon="5.85249">
        <ele>2274.14</ele>
        <time>2020-07-16T09:16:21Z</time>
      </trkpt>
      <trkpt lat="44.97662" lon="5.85251">
        <ele>2274.14</ele>
        <time>2020-07-16T09:16:22Z</time>
      </trkpt>
      <trkpt lat="44.97662" lon="5.85252">
        <ele>2274.14</ele>
        <time>2020-07-16T09:16:23Z</time>
      </trkpt>
      <trkpt lat="44.97664" lon="5.85256">
        <ele>2273.66</ele>
        <time>2020-07-16T09:16:26Z</time>
      </trkpt>
      <trkpt lat="44.97674" lon="5.85274">
        <ele>2273.17</ele>
        <time>2020-07-16T09:16:43Z</time>
      </trkpt>
      <trkpt lat="44.97677" lon="5.85287">
        <ele>2276.06</ele>
        <time>2020-07-16T09:17:00Z</time>
      </trkpt>
      <trkpt lat="44.9768" lon="5.85297">
        <ele>2279.42</ele>
        <time>2020-07-16T09:17:18Z</time>
      </trkpt>
      <trkpt lat="44.97682" lon="5.85307">
        <ele>2281.83</ele>
        <time>2020-07-16T09:17:35Z</time>
      </trkpt>
      <trkpt lat="44.97687" lon="5.85326">
        <ele>2282.31</ele>
        <time>2020-07-16T09:17:55Z</time>
      </trkpt>
      <trkpt lat="44.97692" lon="5.85338">
        <ele>2285.19</ele>
        <time>2020-07-16T09:18:12Z</time>
      </trkpt>
      <trkpt lat="44.97701" lon="5.85351">
        <ele>2288.08</ele>
        <time>2020-07-16T09:18:29Z</time>
      </trkpt>
      <trkpt lat="44.97707" lon="5.85362">
        <ele>2290.48</ele>
        <time>2020-07-16T09:18:44Z</time>
      </trkpt>
      <trkpt lat="44.97718" lon="5.85376">
        <ele>2293.36</ele>
        <time>2020-07-16T09:19:05Z</time>
      </trkpt>
      <trkpt lat="44.97726" lon="5.85383">
        <ele>2296.73</ele>
        <time>2020-07-16T09:19:19Z</time>
      </trkpt>
      <trkpt lat="44.97732" lon="5.85394">
        <ele>2300.09</ele>
        <time>2020-07-16T09:19:35Z</time>
      </trkpt>
      <trkpt lat="44.97738" lon="5.85404">
        <ele>2302.98</ele>
        <time>2020-07-16T09:19:50Z</time>
      </trkpt>
      <trkpt lat="44.97745" lon="5.85414">
        <ele>2305.86</ele>
        <time>2020-07-16T09:20:06Z</time>
      </trkpt>
      <trkpt lat="44.9775" lon="5.85424">
        <ele>2308.26</ele>
        <time>2020-07-16T09:20:18Z</time>
      </trkpt>
      <trkpt lat="44.97757" lon="5.85436">
        <ele>2311.15</ele>
        <time>2020-07-16T09:20:33Z</time>
      </trkpt>
      <trkpt lat="44.97763" lon="5.85451">
        <ele>2314.03</ele>
        <time>2020-07-16T09:20:49Z</time>
      </trkpt>
      <trkpt lat="44.97768" lon="5.85467">
        <ele>2317.4</ele>
        <time>2020-07-16T09:21:07Z</time>
      </trkpt>
      <trkpt lat="44.97771" lon="5.8548">
        <ele>2319.8</ele>
        <time>2020-07-16T09:21:22Z</time>
      </trkpt>
      <trkpt lat="44.97776" lon="5.85494">
        <ele>2322.2</ele>
        <time>2020-07-16T09:21:37Z</time>
      </trkpt>
      <trkpt lat="44.9778" lon="5.85511">
        <ele>2325.57</ele>
        <time>2020-07-16T09:21:55Z</time>
      </trkpt>
      <trkpt lat="44.97772" lon="5.85516">
        <ele>2328.45</ele>
        <time>2020-07-16T09:22:09Z</time>
      </trkpt>
      <trkpt lat="44.97763" lon="5.85521">
        <ele>2331.81</ele>
        <time>2020-07-16T09:22:22Z</time>
      </trkpt>
      <trkpt lat="44.97751" lon="5.85525">
        <ele>2334.7</ele>
        <time>2020-07-16T09:22:37Z</time>
      </trkpt>
      <trkpt lat="44.97741" lon="5.85528">
        <ele>2337.58</ele>
        <time>2020-07-16T09:22:53Z</time>
      </trkpt>
      <trkpt lat="44.97733" lon="5.85531">
        <ele>2340.47</ele>
        <time>2020-07-16T09:23:07Z</time>
      </trkpt>
      <trkpt lat="44.97724" lon="5.85531">
        <ele>2343.35</ele>
        <time>2020-07-16T09:23:21Z</time>
      </trkpt>
      <trkpt lat="44.97717" lon="5.85534">
        <ele>2346.23</ele>
        <time>2020-07-16T09:23:34Z</time>
      </trkpt>
      <trkpt lat="44.97709" lon="5.8554">
        <ele>2349.6</ele>
        <time>2020-07-16T09:23:48Z</time>
      </trkpt>
      <trkpt lat="44.97701" lon="5.85541">
        <ele>2352</ele>
        <time>2020-07-16T09:24:01Z</time>
      </trkpt>
      <trkpt lat="44.97693" lon="5.8555">
        <ele>2354.89</ele>
        <time>2020-07-16T09:24:16Z</time>
      </trkpt>
      <trkpt lat="44.97686" lon="5.85557">
        <ele>2357.29</ele>
        <time>2020-07-16T09:24:30Z</time>
      </trkpt>
      <trkpt lat="44.97687" lon="5.85558">
        <ele>2357.77</ele>
        <time>2020-07-16T09:24:44Z</time>
      </trkpt>
      <trkpt lat="44.97687" lon="5.85558">
        <ele>2358.73</ele>
        <time>2020-07-16T09:25:24Z</time>
      </trkpt>
      <trkpt lat="44.97686" lon="5.85556">
        <ele>2355.37</ele>
        <time>2020-07-16T09:25:40Z</time>
      </trkpt>
      <trkpt lat="44.97686" lon="5.85556">
        <ele>2354.41</ele>
        <time>2020-07-16T09:25:42Z</time>
      </trkpt>
      <trkpt lat="44.97686" lon="5.85556">
        <ele>2357.77</ele>
        <time>2020-07-16T09:25:46Z</time>
      </trkpt>
      <trkpt lat="44.97686" lon="5.85556">
        <ele>2359.21</ele>
        <time>2020-07-16T09:25:49Z</time>
      </trkpt>
      <trkpt lat="44.97686" lon="5.85556">
        <ele>2355.85</ele>
        <time>2020-07-16T09:26:03Z</time>
      </trkpt>
      <trkpt lat="44.97686" lon="5.85556">
        <ele>2355.37</ele>
        <time>2020-07-16T09:26:05Z</time>
      </trkpt>
      <trkpt lat="44.97686" lon="5.85555">
        <ele>2358.25</ele>
        <time>2020-07-16T09:26:10Z</time>
      </trkpt>
      <trkpt lat="44.97687" lon="5.85555">
        <ele>2358.73</ele>
        <time>2020-07-16T09:26:11Z</time>
      </trkpt>
      <trkpt lat="44.97686" lon="5.85555">
        <ele>2356.81</ele>
        <time>2020-07-16T09:26:15Z</time>
      </trkpt>
      <trkpt lat="44.97686" lon="5.85555">
        <ele>2360.17</ele>
        <time>2020-07-16T09:26:19Z</time>
      </trkpt>
      <trkpt lat="44.97687" lon="5.85558">
        <ele>2357.77</ele>
        <time>2020-07-16T09:26:41Z</time>
      </trkpt>
      <trkpt lat="44.97686" lon="5.85557">
        <ele>2357.77</ele>
        <time>2020-07-16T09:27:08Z</time>
      </trkpt>
      <trkpt lat="44.97685" lon="5.85559">
        <ele>2357.77</ele>
        <time>2020-07-16T09:27:31Z</time>
      </trkpt>
      <trkpt lat="44.97687" lon="5.8556">
        <ele>2357.77</ele>
        <time>2020-07-16T09:27:57Z</time>
      </trkpt>
      <trkpt lat="44.97687" lon="5.85558">
        <ele>2357.77</ele>
        <time>2020-07-16T09:28:31Z</time>
      </trkpt>
      <trkpt lat="44.97686" lon="5.85559">
        <ele>2357.77</ele>
        <time>2020-07-16T09:28:51Z</time>
      </trkpt>
      <trkpt lat="44.97688" lon="5.85558">
        <ele>2357.77</ele>
        <time>2020-07-16T09:29:18Z</time>
      </trkpt>
      <trkpt lat="44.97689" lon="5.85559">
        <ele>2357.77</ele>
        <time>2020-07-16T09:29:42Z</time>
      </trkpt>
      <trkpt lat="44.9769" lon="5.85558">
        <ele>2357.77</ele>
        <time>2020-07-16T09:30:06Z</time>
      </trkpt>
      <trkpt lat="44.97689" lon="5.85555">
        <ele>2357.77</ele>
        <time>2020-07-16T09:30:27Z</time>
      </trkpt>
      <trkpt lat="44.97693" lon="5.8555">
        <ele>2357.77</ele>
        <time>2020-07-16T09:30:37Z</time>
      </trkpt>
      <trkpt lat="44.97693" lon="5.85549">
        <ele>2357.77</ele>
        <time>2020-07-16T09:30:38Z</time>
      </trkpt>
      <trkpt lat="44.977" lon="5.85547">
        <ele>2354.41</ele>
        <time>2020-07-16T09:30:49Z</time>
      </trkpt>
      <trkpt lat="44.97707" lon="5.85544">
        <ele>2352</ele>
        <time>2020-07-16T09:31:06Z</time>
      </trkpt>
      <trkpt lat="44.97716" lon="5.85537">
        <ele>2349.6</ele>
        <time>2020-07-16T09:31:19Z</time>
      </trkpt>
      <trkpt lat="44.97727" lon="5.85533">
        <ele>2347.2</ele>
        <time>2020-07-16T09:31:34Z</time>
      </trkpt>
      <trkpt lat="44.97735" lon="5.85529">
        <ele>2344.31</ele>
        <time>2020-07-16T09:31:48Z</time>
      </trkpt>
      <trkpt lat="44.97745" lon="5.85528">
        <ele>2341.43</ele>
        <time>2020-07-16T09:32:03Z</time>
      </trkpt>
      <trkpt lat="44.97752" lon="5.85527">
        <ele>2338.54</ele>
        <time>2020-07-16T09:32:14Z</time>
      </trkpt>
      <trkpt lat="44.97762" lon="5.85523">
        <ele>2335.66</ele>
        <time>2020-07-16T09:32:27Z</time>
      </trkpt>
      <trkpt lat="44.97772" lon="5.8552">
        <ele>2332.3</ele>
        <time>2020-07-16T09:32:41Z</time>
      </trkpt>
      <trkpt lat="44.9778" lon="5.8552">
        <ele>2329.41</ele>
        <time>2020-07-16T09:32:52Z</time>
      </trkpt>
      <trkpt lat="44.97788" lon="5.85516">
        <ele>2326.05</ele>
        <time>2020-07-16T09:33:04Z</time>
      </trkpt>
      <trkpt lat="44.97797" lon="5.85513">
        <ele>2323.16</ele>
        <time>2020-07-16T09:33:17Z</time>
      </trkpt>
      <trkpt lat="44.97799" lon="5.85512">
        <ele>2322.68</ele>
        <time>2020-07-16T09:33:20Z</time>
      </trkpt>
      <trkpt lat="44.97801" lon="5.85513">
        <ele>2322.2</ele>
        <time>2020-07-16T09:33:21Z</time>
      </trkpt>
      <trkpt lat="44.97802" lon="5.85513">
        <ele>2322.2</ele>
        <time>2020-07-16T09:33:22Z</time>
      </trkpt>
      <trkpt lat="44.97803" lon="5.85512">
        <ele>2321.72</ele>
        <time>2020-07-16T09:33:23Z</time>
      </trkpt>
      <trkpt lat="44.97805" lon="5.85512">
        <ele>2320.76</ele>
        <time>2020-07-16T09:33:25Z</time>
      </trkpt>
      <trkpt lat="44.97806" lon="5.85513">
        <ele>2320.76</ele>
        <time>2020-07-16T09:33:26Z</time>
      </trkpt>
      <trkpt lat="44.9781" lon="5.85514">
        <ele>2319.8</ele>
        <time>2020-07-16T09:33:29Z</time>
      </trkpt>
      <trkpt lat="44.97811" lon="5.85514">
        <ele>2319.32</ele>
        <time>2020-07-16T09:33:30Z</time>
      </trkpt>
      <trkpt lat="44.97812" lon="5.85512">
        <ele>2318.84</ele>
        <time>2020-07-16T09:33:31Z</time>
      </trkpt>
      <trkpt lat="44.97818" lon="5.85512">
        <ele>2316.43</ele>
        <time>2020-07-16T09:33:40Z</time>
      </trkpt>
      <trkpt lat="44.97819" lon="5.85511">
        <ele>2315.95</ele>
        <time>2020-07-16T09:33:41Z</time>
      </trkpt>
      <trkpt lat="44.97822" lon="5.8551">
        <ele>2314.99</ele>
        <time>2020-07-16T09:33:43Z</time>
      </trkpt>
      <trkpt lat="44.97824" lon="5.8551">
        <ele>2314.51</ele>
        <time>2020-07-16T09:33:45Z</time>
      </trkpt>
      <trkpt lat="44.9783" lon="5.85505">
        <ele>2312.11</ele>
        <time>2020-07-16T09:33:52Z</time>
      </trkpt>
      <trkpt lat="44.97831" lon="5.85506">
        <ele>2311.63</ele>
        <time>2020-07-16T09:33:53Z</time>
      </trkpt>
      <trkpt lat="44.97837" lon="5.85506">
        <ele>2310.67</ele>
        <time>2020-07-16T09:33:59Z</time>
      </trkpt>
      <trkpt lat="44.97838" lon="5.85506">
        <ele>2310.19</ele>
        <time>2020-07-16T09:34:00Z</time>
      </trkpt>
      <trkpt lat="44.97841" lon="5.85504">
        <ele>2309.7</ele>
        <time>2020-07-16T09:34:05Z</time>
      </trkpt>
      <trkpt lat="44.97842" lon="5.85503">
        <ele>2309.22</ele>
        <time>2020-07-16T09:34:06Z</time>
      </trkpt>
      <trkpt lat="44.97844" lon="5.85503">
        <ele>2309.22</ele>
        <time>2020-07-16T09:34:07Z</time>
      </trkpt>
      <trkpt lat="44.97845" lon="5.85503">
        <ele>2308.74</ele>
        <time>2020-07-16T09:34:08Z</time>
      </trkpt>
      <trkpt lat="44.97853" lon="5.855">
        <ele>2307.3</ele>
        <time>2020-07-16T09:34:16Z</time>
      </trkpt>
      <trkpt lat="44.97866" lon="5.85502">
        <ele>2304.9</ele>
        <time>2020-07-16T09:34:26Z</time>
      </trkpt>
      <trkpt lat="44.97881" lon="5.85497">
        <ele>2303.94</ele>
        <time>2020-07-16T09:34:39Z</time>
      </trkpt>
      <trkpt lat="44.97882" lon="5.85496">
        <ele>2303.46</ele>
        <time>2020-07-16T09:34:40Z</time>
      </trkpt>
      <trkpt lat="44.97884" lon="5.85496">
        <ele>2303.46</ele>
        <time>2020-07-16T09:34:42Z</time>
      </trkpt>
      <trkpt lat="44.97885" lon="5.85496">
        <ele>2303.46</ele>
        <time>2020-07-16T09:34:43Z</time>
      </trkpt>
      <trkpt lat="44.97886" lon="5.85496">
        <ele>2302.98</ele>
        <time>2020-07-16T09:34:44Z</time>
      </trkpt>
      <trkpt lat="44.97896" lon="5.85499">
        <ele>2300.57</ele>
        <time>2020-07-16T09:34:59Z</time>
      </trkpt>
      <trkpt lat="44.97905" lon="5.855">
        <ele>2298.17</ele>
        <time>2020-07-16T09:35:13Z</time>
      </trkpt>
      <trkpt lat="44.97912" lon="5.85505">
        <ele>2294.8</ele>
        <time>2020-07-16T09:35:23Z</time>
      </trkpt>
      <trkpt lat="44.97921" lon="5.85505">
        <ele>2292.88</ele>
        <time>2020-07-16T09:35:35Z</time>
      </trkpt>
      <trkpt lat="44.97931" lon="5.85504">
        <ele>2290.96</ele>
        <time>2020-07-16T09:35:51Z</time>
      </trkpt>
      <trkpt lat="44.97935" lon="5.855">
        <ele>2289.04</ele>
        <time>2020-07-16T09:36:06Z</time>
      </trkpt>
      <trkpt lat="44.97935" lon="5.85494">
        <ele>2288.08</ele>
        <time>2020-07-16T09:36:21Z</time>
      </trkpt>
      <trkpt lat="44.97934" lon="5.85486">
        <ele>2287.59</ele>
        <time>2020-07-16T09:36:32Z</time>
      </trkpt>
      <trkpt lat="44.97934" lon="5.85483">
        <ele>2286.63</ele>
        <time>2020-07-16T09:36:45Z</time>
      </trkpt>
      <trkpt lat="44.97936" lon="5.85483">
        <ele>2283.75</ele>
        <time>2020-07-16T09:36:58Z</time>
      </trkpt>
      <trkpt lat="44.97936" lon="5.85483">
        <ele>2287.11</ele>
        <time>2020-07-16T09:37:06Z</time>
      </trkpt>
      <trkpt lat="44.97936" lon="5.85482">
        <ele>2284.71</ele>
        <time>2020-07-16T09:37:30Z</time>
      </trkpt>
      <trkpt lat="44.97935" lon="5.85483">
        <ele>2284.23</ele>
        <time>2020-07-16T09:38:09Z</time>
      </trkpt>
      <trkpt lat="44.97933" lon="5.85481">
        <ele>2284.71</ele>
        <time>2020-07-16T09:38:19Z</time>
      </trkpt>
      <trkpt lat="44.97932" lon="5.8548">
        <ele>2284.71</ele>
        <time>2020-07-16T09:38:22Z</time>
      </trkpt>
      <trkpt lat="44.97933" lon="5.85481">
        <ele>2280.38</ele>
        <time>2020-07-16T09:38:53Z</time>
      </trkpt>
      <trkpt lat="44.97933" lon="5.85481">
        <ele>2277.02</ele>
        <time>2020-07-16T09:38:55Z</time>
      </trkpt>
      <trkpt lat="44.97933" lon="5.85481">
        <ele>2277.5</ele>
        <time>2020-07-16T09:38:56Z</time>
      </trkpt>
      <trkpt lat="44.97933" lon="5.85482">
        <ele>2280.87</ele>
        <time>2020-07-16T09:39:02Z</time>
      </trkpt>
      <trkpt lat="44.97935" lon="5.85482">
        <ele>2284.23</ele>
        <time>2020-07-16T09:39:16Z</time>
      </trkpt>
      <trkpt lat="44.97936" lon="5.85482">
        <ele>2284.71</ele>
        <time>2020-07-16T09:39:18Z</time>
      </trkpt>
      <trkpt lat="44.97941" lon="5.85484">
        <ele>2280.87</ele>
        <time>2020-07-16T09:39:27Z</time>
      </trkpt>
      <trkpt lat="44.97942" lon="5.85484">
        <ele>2285.19</ele>
        <time>2020-07-16T09:39:29Z</time>
      </trkpt>
      <trkpt lat="44.97942" lon="5.85484">
        <ele>2289.04</ele>
        <time>2020-07-16T09:39:30Z</time>
      </trkpt>
      <trkpt lat="44.97943" lon="5.85483">
        <ele>2292.4</ele>
        <time>2020-07-16T09:39:32Z</time>
      </trkpt>
      <trkpt lat="44.97943" lon="5.85483">
        <ele>2292.4</ele>
        <time>2020-07-16T09:39:33Z</time>
      </trkpt>
      <trkpt lat="44.97943" lon="5.85483">
        <ele>2289.04</ele>
        <time>2020-07-16T09:39:39Z</time>
      </trkpt>
      <trkpt lat="44.97944" lon="5.85482">
        <ele>2286.15</ele>
        <time>2020-07-16T09:39:47Z</time>
      </trkpt>
      <trkpt lat="44.97941" lon="5.8548">
        <ele>2282.79</ele>
        <time>2020-07-16T09:40:08Z</time>
      </trkpt>
      <trkpt lat="44.97938" lon="5.85489">
        <ele>2283.75</ele>
        <time>2020-07-16T09:40:59Z</time>
      </trkpt>
      <trkpt lat="44.97956" lon="5.855">
        <ele>2283.75</ele>
        <time>2020-07-16T09:41:40Z</time>
      </trkpt>
      <trkpt lat="44.97939" lon="5.85489">
        <ele>2284.23</ele>
        <time>2020-07-16T09:41:53Z</time>
      </trkpt>
      <trkpt lat="44.97936" lon="5.85486">
        <ele>2284.23</ele>
        <time>2020-07-16T09:41:56Z</time>
      </trkpt>
      <trkpt lat="44.97935" lon="5.85488">
        <ele>2284.23</ele>
        <time>2020-07-16T09:42:44Z</time>
      </trkpt>
      <trkpt lat="44.9794" lon="5.85491">
        <ele>2284.23</ele>
        <time>2020-07-16T09:43:11Z</time>
      </trkpt>
      <trkpt lat="44.97939" lon="5.85491">
        <ele>2284.23</ele>
        <time>2020-07-16T09:43:25Z</time>
      </trkpt>
      <trkpt lat="44.97941" lon="5.8549">
        <ele>2283.75</ele>
        <time>2020-07-16T09:43:35Z</time>
      </trkpt>
      <trkpt lat="44.97935" lon="5.85485">
        <ele>2283.27</ele>
        <time>2020-07-16T09:44:22Z</time>
      </trkpt>
      <trkpt lat="44.97934" lon="5.8548">
        <ele>2284.23</ele>
        <time>2020-07-16T09:44:57Z</time>
      </trkpt>
      <trkpt lat="44.97935" lon="5.85479">
        <ele>2284.23</ele>
        <time>2020-07-16T09:45:19Z</time>
      </trkpt>
      <trkpt lat="44.97937" lon="5.8548">
        <ele>2284.23</ele>
        <time>2020-07-16T09:46:05Z</time>
      </trkpt>
      <trkpt lat="44.97937" lon="5.8548">
        <ele>2284.23</ele>
        <time>2020-07-16T09:46:43Z</time>
      </trkpt>
      <trkpt lat="44.97937" lon="5.8548">
        <ele>2284.23</ele>
        <time>2020-07-16T09:46:44Z</time>
      </trkpt>
      <trkpt lat="44.97937" lon="5.8548">
        <ele>2284.23</ele>
        <time>2020-07-16T09:46:45Z</time>
      </trkpt>
      <trkpt lat="44.97937" lon="5.8548">
        <ele>2284.23</ele>
        <time>2020-07-16T09:46:46Z</time>
      </trkpt>
      <trkpt lat="44.97937" lon="5.8548">
        <ele>2284.23</ele>
        <time>2020-07-16T09:46:47Z</time>
      </trkpt>
      <trkpt lat="44.97937" lon="5.8548">
        <ele>2284.23</ele>
        <time>2020-07-16T09:46:48Z</time>
      </trkpt>
      <trkpt lat="44.97937" lon="5.8548">
        <ele>2284.23</ele>
        <time>2020-07-16T09:46:49Z</time>
      </trkpt>
      <trkpt lat="44.97937" lon="5.8548">
        <ele>2284.23</ele>
        <time>2020-07-16T09:46:50Z</time>
      </trkpt>
      <trkpt lat="44.97937" lon="5.8548">
        <ele>2284.23</ele>
        <time>2020-07-16T09:46:51Z</time>
      </trkpt>
      <trkpt lat="44.97937" lon="5.8548">
        <ele>2284.23</ele>
        <time>2020-07-16T09:46:52Z</time>
      </trkpt>
      <trkpt lat="44.97937" lon="5.8548">
        <ele>2284.23</ele>
        <time>2020-07-16T09:46:53Z</time>
      </trkpt>
      <trkpt lat="44.97937" lon="5.8548">
        <ele>2284.23</ele>
        <time>2020-07-16T09:46:54Z</time>
      </trkpt>
      <trkpt lat="44.97937" lon="5.8548">
        <ele>2284.23</ele>
        <time>2020-07-16T09:46:55Z</time>
      </trkpt>
      <trkpt lat="44.97937" lon="5.8548">
        <ele>2284.23</ele>
        <time>2020-07-16T09:46:56Z</time>
      </trkpt>
      <trkpt lat="44.97937" lon="5.8548">
        <ele>2284.23</ele>
        <time>2020-07-16T09:46:57Z</time>
      </trkpt>
      <trkpt lat="44.97937" lon="5.8548">
        <ele>2284.23</ele>
        <time>2020-07-16T09:46:58Z</time>
      </trkpt>
      <trkpt lat="44.97937" lon="5.8548">
        <ele>2284.23</ele>
        <time>2020-07-16T09:46:59Z</time>
      </trkpt>
      <trkpt lat="44.97937" lon="5.8548">
        <ele>2284.23</ele>
        <time>2020-07-16T09:47:00Z</time>
      </trkpt>
      <trkpt lat="44.97937" lon="5.8548">
        <ele>2284.23</ele>
        <time>2020-07-16T09:47:01Z</time>
      </trkpt>
      <trkpt lat="44.97937" lon="5.8548">
        <ele>2284.23</ele>
        <time>2020-07-16T09:47:02Z</time>
      </trkpt>
      <trkpt lat="44.97937" lon="5.8548">
        <ele>2284.23</ele>
        <time>2020-07-16T09:47:03Z</time>
      </trkpt>
      <trkpt lat="44.97937" lon="5.8548">
        <ele>2284.23</ele>
        <time>2020-07-16T09:47:04Z</time>
      </trkpt>
      <trkpt lat="44.97937" lon="5.8548">
        <ele>2284.23</ele>
        <time>2020-07-16T09:47:05Z</time>
      </trkpt>
      <trkpt lat="44.97937" lon="5.8548">
        <ele>2284.23</ele>
        <time>2020-07-16T09:47:06Z</time>
      </trkpt>
      <trkpt lat="44.97937" lon="5.8548">
        <ele>2284.23</ele>
        <time>2020-07-16T09:47:07Z</time>
      </trkpt>
      <trkpt lat="44.97937" lon="5.8548">
        <ele>2284.23</ele>
        <time>2020-07-16T09:47:08Z</time>
      </trkpt>
      <trkpt lat="44.97937" lon="5.8548">
        <ele>2284.23</ele>
        <time>2020-07-16T09:47:09Z</time>
      </trkpt>
      <trkpt lat="44.97937" lon="5.8548">
        <ele>2284.23</ele>
        <time>2020-07-16T09:47:10Z</time>
      </trkpt>
      <trkpt lat="44.97937" lon="5.8548">
        <ele>2284.23</ele>
        <time>2020-07-16T09:47:11Z</time>
      </trkpt>
      <trkpt lat="44.97937" lon="5.8548">
        <ele>2284.23</ele>
        <time>2020-07-16T09:47:12Z</time>
      </trkpt>
      <trkpt lat="44.97937" lon="5.8548">
        <ele>2284.23</ele>
        <time>2020-07-16T09:47:13Z</time>
      </trkpt>
      <trkpt lat="44.97937" lon="5.8548">
        <ele>2284.23</ele>
        <time>2020-07-16T09:47:14Z</time>
      </trkpt>
      <trkpt lat="44.97937" lon="5.8548">
        <ele>2284.23</ele>
        <time>2020-07-16T09:47:15Z</time>
      </trkpt>
      <trkpt lat="44.97937" lon="5.8548">
        <ele>2284.23</ele>
        <time>2020-07-16T09:47:16Z</time>
      </trkpt>
      <trkpt lat="44.97937" lon="5.8548">
        <ele>2284.23</ele>
        <time>2020-07-16T09:47:17Z</time>
      </trkpt>
      <trkpt lat="44.97959" lon="5.85515">
        <ele>2284.23</ele>
        <time>2020-07-16T09:47:18Z</time>
      </trkpt>
      <trkpt lat="44.97958" lon="5.85525">
        <ele>2284.23</ele>
        <time>2020-07-16T09:47:41Z</time>
      </trkpt>
      <trkpt lat="44.97967" lon="5.85517">
        <ele>2282.79</ele>
        <time>2020-07-16T09:48:18Z</time>
      </trkpt>
      <trkpt lat="44.97969" lon="5.85518">
        <ele>2282.79</ele>
        <time>2020-07-16T09:48:45Z</time>
      </trkpt>
      <trkpt lat="44.97971" lon="5.85518">
        <ele>2282.79</ele>
        <time>2020-07-16T09:48:47Z</time>
      </trkpt>
      <trkpt lat="44.97943" lon="5.85516">
        <ele>2283.27</ele>
        <time>2020-07-16T09:49:11Z</time>
      </trkpt>
      <trkpt lat="44.97932" lon="5.8552">
        <ele>2283.75</ele>
        <time>2020-07-16T09:49:41Z</time>
      </trkpt>
      <trkpt lat="44.97932" lon="5.8552">
        <ele>2282.79</ele>
        <time>2020-07-16T09:50:36Z</time>
      </trkpt>
      <trkpt lat="44.97941" lon="5.85477">
        <ele>2283.75</ele>
        <time>2020-07-16T09:54:09Z</time>
      </trkpt>
      <trkpt lat="44.97949" lon="5.85485">
        <ele>2283.75</ele>
        <time>2020-07-16T09:54:14Z</time>
      </trkpt>
      <trkpt lat="44.97947" lon="5.85524">
        <ele>2283.75</ele>
        <time>2020-07-16T09:55:07Z</time>
      </trkpt>
      <trkpt lat="44.97947" lon="5.85524">
        <ele>2284.23</ele>
        <time>2020-07-16T09:55:21Z</time>
      </trkpt>
      <trkpt lat="44.97947" lon="5.85524">
        <ele>2284.23</ele>
        <time>2020-07-16T09:55:22Z</time>
      </trkpt>
      <trkpt lat="44.97947" lon="5.85524">
        <ele>2284.23</ele>
        <time>2020-07-16T09:55:23Z</time>
      </trkpt>
      <trkpt lat="44.97947" lon="5.85524">
        <ele>2284.23</ele>
        <time>2020-07-16T09:55:24Z</time>
      </trkpt>
      <trkpt lat="44.97947" lon="5.85524">
        <ele>2284.23</ele>
        <time>2020-07-16T09:55:25Z</time>
      </trkpt>
      <trkpt lat="44.97947" lon="5.85524">
        <ele>2284.23</ele>
        <time>2020-07-16T09:55:26Z</time>
      </trkpt>
      <trkpt lat="44.97947" lon="5.85524">
        <ele>2284.23</ele>
        <time>2020-07-16T09:55:27Z</time>
      </trkpt>
      <trkpt lat="44.97947" lon="5.85524">
        <ele>2283.75</ele>
        <time>2020-07-16T09:55:28Z</time>
      </trkpt>
      <trkpt lat="44.97947" lon="5.85524">
        <ele>2283.75</ele>
        <time>2020-07-16T09:55:29Z</time>
      </trkpt>
      <trkpt lat="44.97947" lon="5.85524">
        <ele>2283.75</ele>
        <time>2020-07-16T09:55:30Z</time>
      </trkpt>
      <trkpt lat="44.97947" lon="5.85524">
        <ele>2283.75</ele>
        <time>2020-07-16T09:55:31Z</time>
      </trkpt>
      <trkpt lat="44.97947" lon="5.85524">
        <ele>2283.75</ele>
        <time>2020-07-16T09:55:32Z</time>
      </trkpt>
      <trkpt lat="44.97947" lon="5.85524">
        <ele>2283.75</ele>
        <time>2020-07-16T09:55:33Z</time>
      </trkpt>
      <trkpt lat="44.97947" lon="5.85524">
        <ele>2283.75</ele>
        <time>2020-07-16T09:55:34Z</time>
      </trkpt>
      <trkpt lat="44.97947" lon="5.85524">
        <ele>2283.75</ele>
        <time>2020-07-16T09:55:35Z</time>
      </trkpt>
      <trkpt lat="44.97947" lon="5.85524">
        <ele>2283.75</ele>
        <time>2020-07-16T09:55:36Z</time>
      </trkpt>
      <trkpt lat="44.97947" lon="5.85524">
        <ele>2283.75</ele>
        <time>2020-07-16T09:55:37Z</time>
      </trkpt>
      <trkpt lat="44.97947" lon="5.85524">
        <ele>2283.27</ele>
        <time>2020-07-16T09:55:38Z</time>
      </trkpt>
      <trkpt lat="44.97947" lon="5.85524">
        <ele>2283.27</ele>
        <time>2020-07-16T09:55:39Z</time>
      </trkpt>
      <trkpt lat="44.97947" lon="5.85524">
        <ele>2283.27</ele>
        <time>2020-07-16T09:55:40Z</time>
      </trkpt>
      <trkpt lat="44.97947" lon="5.85524">
        <ele>2283.27</ele>
        <time>2020-07-16T09:55:41Z</time>
      </trkpt>
      <trkpt lat="44.97947" lon="5.85524">
        <ele>2283.27</ele>
        <time>2020-07-16T09:55:42Z</time>
      </trkpt>
      <trkpt lat="44.97947" lon="5.85524">
        <ele>2283.27</ele>
        <time>2020-07-16T09:55:43Z</time>
      </trkpt>
      <trkpt lat="44.97947" lon="5.85524">
        <ele>2283.27</ele>
        <time>2020-07-16T09:55:44Z</time>
      </trkpt>
      <trkpt lat="44.97947" lon="5.85524">
        <ele>2283.27</ele>
        <time>2020-07-16T09:55:45Z</time>
      </trkpt>
      <trkpt lat="44.97947" lon="5.85524">
        <ele>2283.27</ele>
        <time>2020-07-16T09:55:46Z</time>
      </trkpt>
      <trkpt lat="44.97947" lon="5.85524">
        <ele>2283.27</ele>
        <time>2020-07-16T09:55:47Z</time>
      </trkpt>
      <trkpt lat="44.97947" lon="5.85524">
        <ele>2283.27</ele>
        <time>2020-07-16T09:55:48Z</time>
      </trkpt>
      <trkpt lat="44.97947" lon="5.85524">
        <ele>2283.27</ele>
        <time>2020-07-16T09:55:49Z</time>
      </trkpt>
      <trkpt lat="44.97947" lon="5.85524">
        <ele>2283.75</ele>
        <time>2020-07-16T09:55:50Z</time>
      </trkpt>
      <trkpt lat="44.97947" lon="5.85524">
        <ele>2283.75</ele>
        <time>2020-07-16T09:55:51Z</time>
      </trkpt>
      <trkpt lat="44.97947" lon="5.85524">
        <ele>2283.75</ele>
        <time>2020-07-16T09:55:52Z</time>
      </trkpt>
      <trkpt lat="44.97947" lon="5.85524">
        <ele>2283.75</ele>
        <time>2020-07-16T09:55:53Z</time>
      </trkpt>
      <trkpt lat="44.97947" lon="5.85524">
        <ele>2283.75</ele>
        <time>2020-07-16T09:55:54Z</time>
      </trkpt>
      <trkpt lat="44.97947" lon="5.85524">
        <ele>2283.75</ele>
        <time>2020-07-16T09:55:55Z</time>
      </trkpt>
      <trkpt lat="44.97947" lon="5.85524">
        <ele>2283.75</ele>
        <time>2020-07-16T09:55:56Z</time>
      </trkpt>
      <trkpt lat="44.97947" lon="5.85524">
        <ele>2283.75</ele>
        <time>2020-07-16T09:55:57Z</time>
      </trkpt>
      <trkpt lat="44.97947" lon="5.85524">
        <ele>2283.75</ele>
        <time>2020-07-16T09:55:58Z</time>
      </trkpt>
      <trkpt lat="44.97947" lon="5.85524">
        <ele>2283.75</ele>
        <time>2020-07-16T09:55:59Z</time>
      </trkpt>
      <trkpt lat="44.97947" lon="5.85524">
        <ele>2283.75</ele>
        <time>2020-07-16T09:56:00Z</time>
      </trkpt>
      <trkpt lat="44.97947" lon="5.85524">
        <ele>2283.75</ele>
        <time>2020-07-16T09:56:01Z</time>
      </trkpt>
      <trkpt lat="44.97947" lon="5.85524">
        <ele>2283.75</ele>
        <time>2020-07-16T09:56:02Z</time>
      </trkpt>
      <trkpt lat="44.97947" lon="5.85524">
        <ele>2283.75</ele>
        <time>2020-07-16T09:56:03Z</time>
      </trkpt>
      <trkpt lat="44.97947" lon="5.85524">
        <ele>2283.75</ele>
        <time>2020-07-16T09:56:04Z</time>
      </trkpt>
      <trkpt lat="44.97947" lon="5.85524">
        <ele>2283.75</ele>
        <time>2020-07-16T09:56:05Z</time>
      </trkpt>
      <trkpt lat="44.97947" lon="5.85524">
        <ele>2283.75</ele>
        <time>2020-07-16T09:56:06Z</time>
      </trkpt>
      <trkpt lat="44.97941" lon="5.85488">
        <ele>2283.75</ele>
        <time>2020-07-16T09:56:07Z</time>
      </trkpt>
      <trkpt lat="44.97936" lon="5.85482">
        <ele>2284.23</ele>
        <time>2020-07-16T09:56:19Z</time>
      </trkpt>
      <trkpt lat="44.97938" lon="5.85484">
        <ele>2282.31</ele>
        <time>2020-07-16T09:56:47Z</time>
      </trkpt>
      <trkpt lat="44.97936" lon="5.85483">
        <ele>2282.79</ele>
        <time>2020-07-16T09:57:19Z</time>
      </trkpt>
      <trkpt lat="44.97938" lon="5.85483">
        <ele>2282.31</ele>
        <time>2020-07-16T09:57:47Z</time>
      </trkpt>
      <trkpt lat="44.97927" lon="5.85483">
        <ele>2281.83</ele>
        <time>2020-07-16T09:58:26Z</time>
      </trkpt>
      <trkpt lat="44.97928" lon="5.85483">
        <ele>2281.83</ele>
        <time>2020-07-16T09:58:28Z</time>
      </trkpt>
      <trkpt lat="44.97938" lon="5.85483">
        <ele>2282.31</ele>
        <time>2020-07-16T09:59:09Z</time>
      </trkpt>
      <trkpt lat="44.97938" lon="5.85484">
        <ele>2282.31</ele>
        <time>2020-07-16T09:59:25Z</time>
      </trkpt>
      <trkpt lat="44.97937" lon="5.85484">
        <ele>2282.79</ele>
        <time>2020-07-16T10:00:03Z</time>
      </trkpt>
      <trkpt lat="44.97936" lon="5.85482">
        <ele>2282.79</ele>
        <time>2020-07-16T10:00:45Z</time>
      </trkpt>
      <trkpt lat="44.97937" lon="5.85483">
        <ele>2282.79</ele>
        <time>2020-07-16T10:01:30Z</time>
      </trkpt>
      <trkpt lat="44.97939" lon="5.85486">
        <ele>2282.79</ele>
        <time>2020-07-16T10:02:16Z</time>
      </trkpt>
      <trkpt lat="44.9794" lon="5.85486">
        <ele>2282.79</ele>
        <time>2020-07-16T10:02:52Z</time>
      </trkpt>
      <trkpt lat="44.97939" lon="5.85484">
        <ele>2282.79</ele>
        <time>2020-07-16T10:03:47Z</time>
      </trkpt>
      <trkpt lat="44.97938" lon="5.85484">
        <ele>2282.79</ele>
        <time>2020-07-16T10:04:34Z</time>
      </trkpt>
      <trkpt lat="44.97938" lon="5.85484">
        <ele>2282.79</ele>
        <time>2020-07-16T10:05:26Z</time>
      </trkpt>
      <trkpt lat="44.9794" lon="5.85484">
        <ele>2282.79</ele>
        <time>2020-07-16T10:06:13Z</time>
      </trkpt>
      <trkpt lat="44.9794" lon="5.85484">
        <ele>2282.79</ele>
        <time>2020-07-16T10:06:57Z</time>
      </trkpt>
      <trkpt lat="44.97938" lon="5.85485">
        <ele>2282.79</ele>
        <time>2020-07-16T10:07:40Z</time>
      </trkpt>
      <trkpt lat="44.97937" lon="5.85485">
        <ele>2282.79</ele>
        <time>2020-07-16T10:08:17Z</time>
      </trkpt>
      <trkpt lat="44.97937" lon="5.85485">
        <ele>2282.79</ele>
        <time>2020-07-16T10:09:02Z</time>
      </trkpt>
      <trkpt lat="44.97936" lon="5.85483">
        <ele>2282.79</ele>
        <time>2020-07-16T10:09:58Z</time>
      </trkpt>
      <trkpt lat="44.97935" lon="5.85482">
        <ele>2282.79</ele>
        <time>2020-07-16T10:10:49Z</time>
      </trkpt>
      <trkpt lat="44.97935" lon="5.85482">
        <ele>2282.79</ele>
        <time>2020-07-16T10:11:37Z</time>
      </trkpt>
      <trkpt lat="44.97935" lon="5.85482">
        <ele>2282.79</ele>
        <time>2020-07-16T10:12:20Z</time>
      </trkpt>
      <trkpt lat="44.97937" lon="5.85484">
        <ele>2282.79</ele>
        <time>2020-07-16T10:13:04Z</time>
      </trkpt>
      <trkpt lat="44.97937" lon="5.85484">
        <ele>2282.79</ele>
        <time>2020-07-16T10:13:50Z</time>
      </trkpt>
      <trkpt lat="44.97937" lon="5.85485">
        <ele>2282.79</ele>
        <time>2020-07-16T10:14:39Z</time>
      </trkpt>
      <trkpt lat="44.97937" lon="5.85487">
        <ele>2282.79</ele>
        <time>2020-07-16T10:15:18Z</time>
      </trkpt>
      <trkpt lat="44.97937" lon="5.85487">
        <ele>2282.79</ele>
        <time>2020-07-16T10:15:58Z</time>
      </trkpt>
      <trkpt lat="44.97937" lon="5.85483">
        <ele>2282.79</ele>
        <time>2020-07-16T10:16:33Z</time>
      </trkpt>
      <trkpt lat="44.97936" lon="5.85483">
        <ele>2286.63</ele>
        <time>2020-07-16T10:16:59Z</time>
      </trkpt>
      <trkpt lat="44.97936" lon="5.85483">
        <ele>2286.63</ele>
        <time>2020-07-16T10:17:00Z</time>
      </trkpt>
      <trkpt lat="44.97935" lon="5.85479">
        <ele>2285.19</ele>
        <time>2020-07-16T10:17:24Z</time>
      </trkpt>
      <trkpt lat="44.97935" lon="5.85478">
        <ele>2284.71</ele>
        <time>2020-07-16T10:17:53Z</time>
      </trkpt>
      <trkpt lat="44.97935" lon="5.85476">
        <ele>2284.71</ele>
        <time>2020-07-16T10:17:54Z</time>
      </trkpt>
      <trkpt lat="44.97937" lon="5.85485">
        <ele>2285.67</ele>
        <time>2020-07-16T10:18:15Z</time>
      </trkpt>
      <trkpt lat="44.97938" lon="5.85486">
        <ele>2286.63</ele>
        <time>2020-07-16T10:18:45Z</time>
      </trkpt>
      <trkpt lat="44.97938" lon="5.85485">
        <ele>2283.75</ele>
        <time>2020-07-16T10:19:10Z</time>
      </trkpt>
      <trkpt lat="44.97938" lon="5.85485">
        <ele>2285.67</ele>
        <time>2020-07-16T10:19:15Z</time>
      </trkpt>
      <trkpt lat="44.97944" lon="5.8549">
        <ele>2283.75</ele>
        <time>2020-07-16T10:19:31Z</time>
      </trkpt>
      <trkpt lat="44.9795" lon="5.85495">
        <ele>2281.35</ele>
        <time>2020-07-16T10:19:44Z</time>
      </trkpt>
      <trkpt lat="44.97954" lon="5.85494">
        <ele>2279.9</ele>
        <time>2020-07-16T10:19:55Z</time>
      </trkpt>
      <trkpt lat="44.9796" lon="5.85493">
        <ele>2277.98</ele>
        <time>2020-07-16T10:20:09Z</time>
      </trkpt>
      <trkpt lat="44.97969" lon="5.85495">
        <ele>2274.62</ele>
        <time>2020-07-16T10:20:24Z</time>
      </trkpt>
      <trkpt lat="44.97971" lon="5.85496">
        <ele>2271.25</ele>
        <time>2020-07-16T10:20:28Z</time>
      </trkpt>
      <trkpt lat="44.97975" lon="5.85497">
        <ele>2274.62</ele>
        <time>2020-07-16T10:20:38Z</time>
      </trkpt>
      <trkpt lat="44.97976" lon="5.85493">
        <ele>2271.73</ele>
        <time>2020-07-16T10:20:48Z</time>
      </trkpt>
      <trkpt lat="44.97983" lon="5.85496">
        <ele>2269.33</ele>
        <time>2020-07-16T10:21:01Z</time>
      </trkpt>
      <trkpt lat="44.97985" lon="5.85497">
        <ele>2270.77</ele>
        <time>2020-07-16T10:21:04Z</time>
      </trkpt>
      <trkpt lat="44.97994" lon="5.855">
        <ele>2267.89</ele>
        <time>2020-07-16T10:21:15Z</time>
      </trkpt>
      <trkpt lat="44.97996" lon="5.855">
        <ele>2266.93</ele>
        <time>2020-07-16T10:21:17Z</time>
      </trkpt>
      <trkpt lat="44.98" lon="5.85501">
        <ele>2265.48</ele>
        <time>2020-07-16T10:21:22Z</time>
      </trkpt>
      <trkpt lat="44.98007" lon="5.85503">
        <ele>2263.56</ele>
        <time>2020-07-16T10:21:30Z</time>
      </trkpt>
      <trkpt lat="44.98008" lon="5.85503">
        <ele>2263.08</ele>
        <time>2020-07-16T10:21:31Z</time>
      </trkpt>
      <trkpt lat="44.98019" lon="5.85506">
        <ele>2260.2</ele>
        <time>2020-07-16T10:21:45Z</time>
      </trkpt>
      <trkpt lat="44.98022" lon="5.85509">
        <ele>2259.72</ele>
        <time>2020-07-16T10:21:49Z</time>
      </trkpt>
      <trkpt lat="44.98024" lon="5.8551">
        <ele>2259.72</ele>
        <time>2020-07-16T10:21:51Z</time>
      </trkpt>
      <trkpt lat="44.9803" lon="5.85514">
        <ele>2258.27</ele>
        <time>2020-07-16T10:21:59Z</time>
      </trkpt>
      <trkpt lat="44.98033" lon="5.85514">
        <ele>2257.31</ele>
        <time>2020-07-16T10:22:02Z</time>
      </trkpt>
      <trkpt lat="44.98044" lon="5.85518">
        <ele>2256.83</ele>
        <time>2020-07-16T10:22:17Z</time>
      </trkpt>
      <trkpt lat="44.98045" lon="5.85518">
        <ele>2256.83</ele>
        <time>2020-07-16T10:22:18Z</time>
      </trkpt>
      <trkpt lat="44.98047" lon="5.85518">
        <ele>2256.35</ele>
        <time>2020-07-16T10:22:19Z</time>
      </trkpt>
      <trkpt lat="44.98061" lon="5.85515">
        <ele>2254.43</ele>
        <time>2020-07-16T10:22:35Z</time>
      </trkpt>
      <trkpt lat="44.98068" lon="5.85512">
        <ele>2252.03</ele>
        <time>2020-07-16T10:22:48Z</time>
      </trkpt>
      <trkpt lat="44.98067" lon="5.85508">
        <ele>2252.03</ele>
        <time>2020-07-16T10:22:51Z</time>
      </trkpt>
      <trkpt lat="44.98059" lon="5.85498">
        <ele>2249.62</ele>
        <time>2020-07-16T10:23:06Z</time>
      </trkpt>
      <trkpt lat="44.98057" lon="5.85494">
        <ele>2249.14</ele>
        <time>2020-07-16T10:23:09Z</time>
      </trkpt>
      <trkpt lat="44.98057" lon="5.85493">
        <ele>2248.66</ele>
        <time>2020-07-16T10:23:10Z</time>
      </trkpt>
      <trkpt lat="44.98055" lon="5.85491">
        <ele>2248.18</ele>
        <time>2020-07-16T10:23:12Z</time>
      </trkpt>
      <trkpt lat="44.98048" lon="5.85478">
        <ele>2245.3</ele>
        <time>2020-07-16T10:23:25Z</time>
      </trkpt>
      <trkpt lat="44.9805" lon="5.85463">
        <ele>2242.41</ele>
        <time>2020-07-16T10:23:39Z</time>
      </trkpt>
      <trkpt lat="44.98051" lon="5.85459">
        <ele>2241.45</ele>
        <time>2020-07-16T10:23:42Z</time>
      </trkpt>
      <trkpt lat="44.98054" lon="5.85446">
        <ele>2238.09</ele>
        <time>2020-07-16T10:23:58Z</time>
      </trkpt>
      <trkpt lat="44.98054" lon="5.85438">
        <ele>2236.16</ele>
        <time>2020-07-16T10:24:09Z</time>
      </trkpt>
      <trkpt lat="44.98057" lon="5.85428">
        <ele>2233.28</ele>
        <time>2020-07-16T10:24:20Z</time>
      </trkpt>
      <trkpt lat="44.98055" lon="5.85417">
        <ele>2231.36</ele>
        <time>2020-07-16T10:24:33Z</time>
      </trkpt>
      <trkpt lat="44.9805" lon="5.85408">
        <ele>2227.99</ele>
        <time>2020-07-16T10:24:43Z</time>
      </trkpt>
      <trkpt lat="44.98047" lon="5.85404">
        <ele>2224.63</ele>
        <time>2020-07-16T10:24:52Z</time>
      </trkpt>
      <trkpt lat="44.9804" lon="5.85398">
        <ele>2221.74</ele>
        <time>2020-07-16T10:25:01Z</time>
      </trkpt>
      <trkpt lat="44.98033" lon="5.85397">
        <ele>2218.38</ele>
        <time>2020-07-16T10:25:13Z</time>
      </trkpt>
      <trkpt lat="44.98032" lon="5.85399">
        <ele>2216.94</ele>
        <time>2020-07-16T10:25:32Z</time>
      </trkpt>
      <trkpt lat="44.98028" lon="5.85394">
        <ele>2216.94</ele>
        <time>2020-07-16T10:25:51Z</time>
      </trkpt>
      <trkpt lat="44.98028" lon="5.85393">
        <ele>2216.94</ele>
        <time>2020-07-16T10:25:52Z</time>
      </trkpt>
      <trkpt lat="44.98026" lon="5.85391">
        <ele>2216.46</ele>
        <time>2020-07-16T10:25:54Z</time>
      </trkpt>
      <trkpt lat="44.98026" lon="5.85389">
        <ele>2216.46</ele>
        <time>2020-07-16T10:25:55Z</time>
      </trkpt>
      <trkpt lat="44.98017" lon="5.8538">
        <ele>2213.09</ele>
        <time>2020-07-16T10:26:10Z</time>
      </trkpt>
      <trkpt lat="44.98015" lon="5.85376">
        <ele>2210.21</ele>
        <time>2020-07-16T10:26:13Z</time>
      </trkpt>
      <trkpt lat="44.98015" lon="5.85375">
        <ele>2209.73</ele>
        <time>2020-07-16T10:26:14Z</time>
      </trkpt>
      <trkpt lat="44.98014" lon="5.85371">
        <ele>2210.21</ele>
        <time>2020-07-16T10:26:17Z</time>
      </trkpt>
      <trkpt lat="44.98014" lon="5.85369">
        <ele>2210.69</ele>
        <time>2020-07-16T10:26:18Z</time>
      </trkpt>
      <trkpt lat="44.98014" lon="5.85367">
        <ele>2211.17</ele>
        <time>2020-07-16T10:26:19Z</time>
      </trkpt>
      <trkpt lat="44.98014" lon="5.85366">
        <ele>2211.65</ele>
        <time>2020-07-16T10:26:20Z</time>
      </trkpt>
      <trkpt lat="44.98013" lon="5.85364">
        <ele>2211.65</ele>
        <time>2020-07-16T10:26:21Z</time>
      </trkpt>
      <trkpt lat="44.98012" lon="5.85363">
        <ele>2211.65</ele>
        <time>2020-07-16T10:26:22Z</time>
      </trkpt>
      <trkpt lat="44.98006" lon="5.85356">
        <ele>2210.21</ele>
        <time>2020-07-16T10:26:30Z</time>
      </trkpt>
      <trkpt lat="44.98005" lon="5.85354">
        <ele>2209.73</ele>
        <time>2020-07-16T10:26:31Z</time>
      </trkpt>
      <trkpt lat="44.98006" lon="5.85351">
        <ele>2208.77</ele>
        <time>2020-07-16T10:26:33Z</time>
      </trkpt>
      <trkpt lat="44.98006" lon="5.8535">
        <ele>2208.77</ele>
        <time>2020-07-16T10:26:34Z</time>
      </trkpt>
      <trkpt lat="44.98006" lon="5.85348">
        <ele>2208.29</ele>
        <time>2020-07-16T10:26:35Z</time>
      </trkpt>
      <trkpt lat="44.98005" lon="5.85348">
        <ele>2207.81</ele>
        <time>2020-07-16T10:26:36Z</time>
      </trkpt>
      <trkpt lat="44.98004" lon="5.85347">
        <ele>2207.81</ele>
        <time>2020-07-16T10:26:37Z</time>
      </trkpt>
      <trkpt lat="44.98002" lon="5.85347">
        <ele>2206.84</ele>
        <time>2020-07-16T10:26:39Z</time>
      </trkpt>
      <trkpt lat="44.97992" lon="5.85346">
        <ele>2203.96</ele>
        <time>2020-07-16T10:26:50Z</time>
      </trkpt>
      <trkpt lat="44.97993" lon="5.85341">
        <ele>2202.04</ele>
        <time>2020-07-16T10:26:55Z</time>
      </trkpt>
      <trkpt lat="44.97991" lon="5.85337">
        <ele>2200.59</ele>
        <time>2020-07-16T10:26:58Z</time>
      </trkpt>
      <trkpt lat="44.97991" lon="5.85335">
        <ele>2200.59</ele>
        <time>2020-07-16T10:26:59Z</time>
      </trkpt>
      <trkpt lat="44.9799" lon="5.85333">
        <ele>2200.59</ele>
        <time>2020-07-16T10:27:00Z</time>
      </trkpt>
      <trkpt lat="44.9799" lon="5.85332">
        <ele>2200.11</ele>
        <time>2020-07-16T10:27:01Z</time>
      </trkpt>
      <trkpt lat="44.9799" lon="5.8533">
        <ele>2200.11</ele>
        <time>2020-07-16T10:27:02Z</time>
      </trkpt>
      <trkpt lat="44.97989" lon="5.85329">
        <ele>2199.63</ele>
        <time>2020-07-16T10:27:03Z</time>
      </trkpt>
      <trkpt lat="44.97989" lon="5.85326">
        <ele>2199.15</ele>
        <time>2020-07-16T10:27:05Z</time>
      </trkpt>
      <trkpt lat="44.97989" lon="5.85324">
        <ele>2199.15</ele>
        <time>2020-07-16T10:27:06Z</time>
      </trkpt>
      <trkpt lat="44.97989" lon="5.85323">
        <ele>2198.19</ele>
        <time>2020-07-16T10:27:07Z</time>
      </trkpt>
      <trkpt lat="44.97988" lon="5.85314">
        <ele>2197.23</ele>
        <time>2020-07-16T10:27:14Z</time>
      </trkpt>
      <trkpt lat="44.97987" lon="5.85312">
        <ele>2196.75</ele>
        <time>2020-07-16T10:27:15Z</time>
      </trkpt>
      <trkpt lat="44.97986" lon="5.85311">
        <ele>2196.75</ele>
        <time>2020-07-16T10:27:16Z</time>
      </trkpt>
      <trkpt lat="44.97985" lon="5.8531">
        <ele>2196.27</ele>
        <time>2020-07-16T10:27:17Z</time>
      </trkpt>
      <trkpt lat="44.97984" lon="5.85309">
        <ele>2196.27</ele>
        <time>2020-07-16T10:27:18Z</time>
      </trkpt>
      <trkpt lat="44.97971" lon="5.85296">
        <ele>2193.39</ele>
        <time>2020-07-16T10:27:32Z</time>
      </trkpt>
      <trkpt lat="44.97962" lon="5.85294">
        <ele>2190.5</ele>
        <time>2020-07-16T10:27:44Z</time>
      </trkpt>
      <trkpt lat="44.97952" lon="5.85288">
        <ele>2187.62</ele>
        <time>2020-07-16T10:27:58Z</time>
      </trkpt>
      <trkpt lat="44.97948" lon="5.85287">
        <ele>2186.66</ele>
        <time>2020-07-16T10:28:02Z</time>
      </trkpt>
      <trkpt lat="44.97947" lon="5.85287">
        <ele>2186.66</ele>
        <time>2020-07-16T10:28:03Z</time>
      </trkpt>
      <trkpt lat="44.97946" lon="5.85287">
        <ele>2186.18</ele>
        <time>2020-07-16T10:28:04Z</time>
      </trkpt>
      <trkpt lat="44.97939" lon="5.85285">
        <ele>2185.21</ele>
        <time>2020-07-16T10:28:10Z</time>
      </trkpt>
      <trkpt lat="44.97938" lon="5.85284">
        <ele>2185.21</ele>
        <time>2020-07-16T10:28:11Z</time>
      </trkpt>
      <trkpt lat="44.97938" lon="5.85284">
        <ele>2185.21</ele>
        <time>2020-07-16T10:28:12Z</time>
      </trkpt>
      <trkpt lat="44.9793" lon="5.8528">
        <ele>2183.29</ele>
        <time>2020-07-16T10:28:27Z</time>
      </trkpt>
      <trkpt lat="44.97928" lon="5.85276">
        <ele>2182.33</ele>
        <time>2020-07-16T10:28:33Z</time>
      </trkpt>
      <trkpt lat="44.97927" lon="5.85275">
        <ele>2181.85</ele>
        <time>2020-07-16T10:28:34Z</time>
      </trkpt>
      <trkpt lat="44.97926" lon="5.85274">
        <ele>2181.85</ele>
        <time>2020-07-16T10:28:35Z</time>
      </trkpt>
      <trkpt lat="44.97925" lon="5.85273">
        <ele>2181.37</ele>
        <time>2020-07-16T10:28:36Z</time>
      </trkpt>
      <trkpt lat="44.97918" lon="5.85251">
        <ele>2178.97</ele>
        <time>2020-07-16T10:28:53Z</time>
      </trkpt>
      <trkpt lat="44.97914" lon="5.8524">
        <ele>2175.12</ele>
        <time>2020-07-16T10:29:02Z</time>
      </trkpt>
      <trkpt lat="44.97911" lon="5.85235">
        <ele>2176.08</ele>
        <time>2020-07-16T10:29:06Z</time>
      </trkpt>
      <trkpt lat="44.97909" lon="5.85232">
        <ele>2176.56</ele>
        <time>2020-07-16T10:29:08Z</time>
      </trkpt>
      <trkpt lat="44.97895" lon="5.85216">
        <ele>2173.2</ele>
        <time>2020-07-16T10:29:22Z</time>
      </trkpt>
      <trkpt lat="44.97884" lon="5.85202">
        <ele>2170.31</ele>
        <time>2020-07-16T10:29:34Z</time>
      </trkpt>
      <trkpt lat="44.97883" lon="5.852">
        <ele>2169.35</ele>
        <time>2020-07-16T10:29:36Z</time>
      </trkpt>
      <trkpt lat="44.97873" lon="5.85187">
        <ele>2167.43</ele>
        <time>2020-07-16T10:29:49Z</time>
      </trkpt>
      <trkpt lat="44.9787" lon="5.85179">
        <ele>2166.47</ele>
        <time>2020-07-16T10:30:02Z</time>
      </trkpt>
      <trkpt lat="44.97873" lon="5.85169">
        <ele>2165.51</ele>
        <time>2020-07-16T10:30:19Z</time>
      </trkpt>
      <trkpt lat="44.97868" lon="5.85167">
        <ele>2163.58</ele>
        <time>2020-07-16T10:30:32Z</time>
      </trkpt>
      <trkpt lat="44.97863" lon="5.8517">
        <ele>2160.7</ele>
        <time>2020-07-16T10:30:45Z</time>
      </trkpt>
      <trkpt lat="44.97857" lon="5.8517">
        <ele>2157.82</ele>
        <time>2020-07-16T10:30:56Z</time>
      </trkpt>
      <trkpt lat="44.97851" lon="5.85168">
        <ele>2154.45</ele>
        <time>2020-07-16T10:31:10Z</time>
      </trkpt>
      <trkpt lat="44.97849" lon="5.85165">
        <ele>2153.97</ele>
        <time>2020-07-16T10:31:13Z</time>
      </trkpt>
      <trkpt lat="44.97847" lon="5.85164">
        <ele>2153.97</ele>
        <time>2020-07-16T10:31:14Z</time>
      </trkpt>
      <trkpt lat="44.97845" lon="5.85163">
        <ele>2153.49</ele>
        <time>2020-07-16T10:31:16Z</time>
      </trkpt>
      <trkpt lat="44.97835" lon="5.85157">
        <ele>2152.05</ele>
        <time>2020-07-16T10:31:32Z</time>
      </trkpt>
      <trkpt lat="44.97829" lon="5.85154">
        <ele>2149.16</ele>
        <time>2020-07-16T10:31:48Z</time>
      </trkpt>
      <trkpt lat="44.97823" lon="5.85149">
        <ele>2145.8</ele>
        <time>2020-07-16T10:32:02Z</time>
      </trkpt>
      <trkpt lat="44.97818" lon="5.85142">
        <ele>2142.92</ele>
        <time>2020-07-16T10:32:17Z</time>
      </trkpt>
      <trkpt lat="44.97812" lon="5.85138">
        <ele>2139.55</ele>
        <time>2020-07-16T10:32:30Z</time>
      </trkpt>
      <trkpt lat="44.97809" lon="5.8513">
        <ele>2136.67</ele>
        <time>2020-07-16T10:32:43Z</time>
      </trkpt>
      <trkpt lat="44.97803" lon="5.85123">
        <ele>2133.3</ele>
        <time>2020-07-16T10:32:56Z</time>
      </trkpt>
      <trkpt lat="44.97801" lon="5.85117">
        <ele>2131.86</ele>
        <time>2020-07-16T10:33:03Z</time>
      </trkpt>
      <trkpt lat="44.97798" lon="5.85109">
        <ele>2128.98</ele>
        <time>2020-07-16T10:33:16Z</time>
      </trkpt>
      <trkpt lat="44.97794" lon="5.851">
        <ele>2125.61</ele>
        <time>2020-07-16T10:33:30Z</time>
      </trkpt>
      <trkpt lat="44.97792" lon="5.85092">
        <ele>2122.73</ele>
        <time>2020-07-16T10:33:43Z</time>
      </trkpt>
      <trkpt lat="44.9779" lon="5.85088">
        <ele>2120.32</ele>
        <time>2020-07-16T10:33:54Z</time>
      </trkpt>
      <trkpt lat="44.97788" lon="5.85082">
        <ele>2116.96</ele>
        <time>2020-07-16T10:34:05Z</time>
      </trkpt>
      <trkpt lat="44.97787" lon="5.85074">
        <ele>2114.08</ele>
        <time>2020-07-16T10:34:20Z</time>
      </trkpt>
      <trkpt lat="44.97792" lon="5.85068">
        <ele>2111.19</ele>
        <time>2020-07-16T10:34:35Z</time>
      </trkpt>
      <trkpt lat="44.97794" lon="5.85058">
        <ele>2107.83</ele>
        <time>2020-07-16T10:34:48Z</time>
      </trkpt>
      <trkpt lat="44.97792" lon="5.85048">
        <ele>2104.94</ele>
        <time>2020-07-16T10:35:01Z</time>
      </trkpt>
      <trkpt lat="44.97792" lon="5.85042">
        <ele>2101.58</ele>
        <time>2020-07-16T10:35:12Z</time>
      </trkpt>
      <trkpt lat="44.97796" lon="5.85031">
        <ele>2098.7</ele>
        <time>2020-07-16T10:35:25Z</time>
      </trkpt>
      <trkpt lat="44.97797" lon="5.85026">
        <ele>2097.73</ele>
        <time>2020-07-16T10:35:28Z</time>
      </trkpt>
      <trkpt lat="44.97796" lon="5.85019">
        <ele>2096.77</ele>
        <time>2020-07-16T10:35:33Z</time>
      </trkpt>
      <trkpt lat="44.97796" lon="5.85017">
        <ele>2096.29</ele>
        <time>2020-07-16T10:35:34Z</time>
      </trkpt>
      <trkpt lat="44.97791" lon="5.85008">
        <ele>2092.93</ele>
        <time>2020-07-16T10:35:45Z</time>
      </trkpt>
      <trkpt lat="44.97792" lon="5.85004">
        <ele>2091.97</ele>
        <time>2020-07-16T10:35:49Z</time>
      </trkpt>
      <trkpt lat="44.97789" lon="5.84996">
        <ele>2089.08</ele>
        <time>2020-07-16T10:35:56Z</time>
      </trkpt>
      <trkpt lat="44.97784" lon="5.84988">
        <ele>2085.72</ele>
        <time>2020-07-16T10:36:07Z</time>
      </trkpt>
      <trkpt lat="44.97783" lon="5.84977">
        <ele>2083.79</ele>
        <time>2020-07-16T10:36:17Z</time>
      </trkpt>
      <trkpt lat="44.97782" lon="5.8497">
        <ele>2081.87</ele>
        <time>2020-07-16T10:36:23Z</time>
      </trkpt>
      <trkpt lat="44.97783" lon="5.84957">
        <ele>2080.43</ele>
        <time>2020-07-16T10:36:33Z</time>
      </trkpt>
      <trkpt lat="44.97786" lon="5.84942">
        <ele>2076.59</ele>
        <time>2020-07-16T10:36:46Z</time>
      </trkpt>
      <trkpt lat="44.97792" lon="5.84931">
        <ele>2073.22</ele>
        <time>2020-07-16T10:37:01Z</time>
      </trkpt>
      <trkpt lat="44.97792" lon="5.8493">
        <ele>2071.78</ele>
        <time>2020-07-16T10:37:37Z</time>
      </trkpt>
      <trkpt lat="44.97794" lon="5.84929">
        <ele>2070.82</ele>
        <time>2020-07-16T10:38:04Z</time>
      </trkpt>
      <trkpt lat="44.97797" lon="5.84928">
        <ele>2070.82</ele>
        <time>2020-07-16T10:38:07Z</time>
      </trkpt>
      <trkpt lat="44.97802" lon="5.84923">
        <ele>2068.41</ele>
        <time>2020-07-16T10:38:18Z</time>
      </trkpt>
      <trkpt lat="44.97807" lon="5.84913">
        <ele>2065.53</ele>
        <time>2020-07-16T10:38:28Z</time>
      </trkpt>
      <trkpt lat="44.9781" lon="5.84902">
        <ele>2062.65</ele>
        <time>2020-07-16T10:38:40Z</time>
      </trkpt>
      <trkpt lat="44.97814" lon="5.84892">
        <ele>2059.76</ele>
        <time>2020-07-16T10:38:53Z</time>
      </trkpt>
      <trkpt lat="44.97816" lon="5.84888">
        <ele>2056.88</ele>
        <time>2020-07-16T10:39:04Z</time>
      </trkpt>
      <trkpt lat="44.97821" lon="5.84883">
        <ele>2053.51</ele>
        <time>2020-07-16T10:39:16Z</time>
      </trkpt>
      <trkpt lat="44.97826" lon="5.84883">
        <ele>2050.63</ele>
        <time>2020-07-16T10:39:31Z</time>
      </trkpt>
      <trkpt lat="44.97829" lon="5.84878">
        <ele>2048.23</ele>
        <time>2020-07-16T10:39:46Z</time>
      </trkpt>
      <trkpt lat="44.97831" lon="5.84876">
        <ele>2046.3</ele>
        <time>2020-07-16T10:39:59Z</time>
      </trkpt>
      <trkpt lat="44.97832" lon="5.84874">
        <ele>2044.86</ele>
        <time>2020-07-16T10:40:15Z</time>
      </trkpt>
      <trkpt lat="44.97833" lon="5.84871">
        <ele>2042.46</ele>
        <time>2020-07-16T10:40:32Z</time>
      </trkpt>
      <trkpt lat="44.97833" lon="5.84872">
        <ele>2042.46</ele>
        <time>2020-07-16T10:40:53Z</time>
      </trkpt>
      <trkpt lat="44.97834" lon="5.84872">
        <ele>2042.46</ele>
        <time>2020-07-16T10:41:13Z</time>
      </trkpt>
      <trkpt lat="44.97838" lon="5.84868">
        <ele>2040.54</ele>
        <time>2020-07-16T10:41:25Z</time>
      </trkpt>
      <trkpt lat="44.97841" lon="5.84866">
        <ele>2039.09</ele>
        <time>2020-07-16T10:41:32Z</time>
      </trkpt>
      <trkpt lat="44.97843" lon="5.84865">
        <ele>2038.61</ele>
        <time>2020-07-16T10:41:34Z</time>
      </trkpt>
      <trkpt lat="44.97846" lon="5.84865">
        <ele>2037.65</ele>
        <time>2020-07-16T10:41:37Z</time>
      </trkpt>
      <trkpt lat="44.97852" lon="5.84866">
        <ele>2036.21</ele>
        <time>2020-07-16T10:41:44Z</time>
      </trkpt>
      <trkpt lat="44.9786" lon="5.84858">
        <ele>2034.29</ele>
        <time>2020-07-16T10:41:57Z</time>
      </trkpt>
      <trkpt lat="44.97865" lon="5.84846">
        <ele>2032.36</ele>
        <time>2020-07-16T10:42:09Z</time>
      </trkpt>
      <trkpt lat="44.97865" lon="5.84845">
        <ele>2032.36</ele>
        <time>2020-07-16T10:42:10Z</time>
      </trkpt>
      <trkpt lat="44.97871" lon="5.84842">
        <ele>2029.96</ele>
        <time>2020-07-16T10:42:18Z</time>
      </trkpt>
      <trkpt lat="44.97872" lon="5.84841">
        <ele>2029.48</ele>
        <time>2020-07-16T10:42:19Z</time>
      </trkpt>
      <trkpt lat="44.97879" lon="5.8483">
        <ele>2027.56</ele>
        <time>2020-07-16T10:42:30Z</time>
      </trkpt>
      <trkpt lat="44.97886" lon="5.84826">
        <ele>2025.64</ele>
        <time>2020-07-16T10:42:37Z</time>
      </trkpt>
      <trkpt lat="44.97888" lon="5.84825">
        <ele>2025.15</ele>
        <time>2020-07-16T10:42:39Z</time>
      </trkpt>
      <trkpt lat="44.97899" lon="5.84827">
        <ele>2021.79</ele>
        <time>2020-07-16T10:42:52Z</time>
      </trkpt>
      <trkpt lat="44.97908" lon="5.84822">
        <ele>2018.91</ele>
        <time>2020-07-16T10:43:05Z</time>
      </trkpt>
      <trkpt lat="44.97914" lon="5.84826">
        <ele>2016.02</ele>
        <time>2020-07-16T10:43:19Z</time>
      </trkpt>
      <trkpt lat="44.97922" lon="5.84825">
        <ele>2012.66</ele>
        <time>2020-07-16T10:43:34Z</time>
      </trkpt>
      <trkpt lat="44.9793" lon="5.84823">
        <ele>2010.25</ele>
        <time>2020-07-16T10:43:44Z</time>
      </trkpt>
      <trkpt lat="44.97931" lon="5.84823">
        <ele>2009.77</ele>
        <time>2020-07-16T10:43:45Z</time>
      </trkpt>
      <trkpt lat="44.97932" lon="5.84822">
        <ele>2009.77</ele>
        <time>2020-07-16T10:43:46Z</time>
      </trkpt>
      <trkpt lat="44.97934" lon="5.84821">
        <ele>2009.29</ele>
        <time>2020-07-16T10:43:48Z</time>
      </trkpt>
      <trkpt lat="44.97944" lon="5.84821">
        <ele>2005.93</ele>
        <time>2020-07-16T10:44:02Z</time>
      </trkpt>
      <trkpt lat="44.97945" lon="5.84819">
        <ele>2004.97</ele>
        <time>2020-07-16T10:44:17Z</time>
      </trkpt>
      <trkpt lat="44.97948" lon="5.8482">
        <ele>2004.97</ele>
        <time>2020-07-16T10:44:25Z</time>
      </trkpt>
      <trkpt lat="44.97958" lon="5.84816">
        <ele>2003.52</ele>
        <time>2020-07-16T10:44:36Z</time>
      </trkpt>
      <trkpt lat="44.97975" lon="5.84813">
        <ele>2001.6</ele>
        <time>2020-07-16T10:44:51Z</time>
      </trkpt>
      <trkpt lat="44.9798" lon="5.84811">
        <ele>2001.12</ele>
        <time>2020-07-16T10:44:56Z</time>
      </trkpt>
      <trkpt lat="44.97987" lon="5.84813">
        <ele>2000.16</ele>
        <time>2020-07-16T10:45:05Z</time>
      </trkpt>
      <trkpt lat="44.97989" lon="5.84813">
        <ele>1999.68</ele>
        <time>2020-07-16T10:45:07Z</time>
      </trkpt>
      <trkpt lat="44.9799" lon="5.84813">
        <ele>1999.68</ele>
        <time>2020-07-16T10:45:08Z</time>
      </trkpt>
      <trkpt lat="44.98001" lon="5.84815">
        <ele>1998.24</ele>
        <time>2020-07-16T10:45:20Z</time>
      </trkpt>
      <trkpt lat="44.98007" lon="5.84818">
        <ele>1996.8</ele>
        <time>2020-07-16T10:45:28Z</time>
      </trkpt>
      <trkpt lat="44.98009" lon="5.84819">
        <ele>1996.8</ele>
        <time>2020-07-16T10:45:30Z</time>
      </trkpt>
      <trkpt lat="44.9801" lon="5.84819">
        <ele>1996.8</ele>
        <time>2020-07-16T10:45:31Z</time>
      </trkpt>
      <trkpt lat="44.98011" lon="5.84819">
        <ele>1996.32</ele>
        <time>2020-07-16T10:45:32Z</time>
      </trkpt>
      <trkpt lat="44.98012" lon="5.8482">
        <ele>1995.83</ele>
        <time>2020-07-16T10:45:33Z</time>
      </trkpt>
      <trkpt lat="44.98014" lon="5.8482">
        <ele>1995.83</ele>
        <time>2020-07-16T10:45:34Z</time>
      </trkpt>
      <trkpt lat="44.98031" lon="5.84825">
        <ele>1994.39</ele>
        <time>2020-07-16T10:45:49Z</time>
      </trkpt>
      <trkpt lat="44.98047" lon="5.84827">
        <ele>1991.99</ele>
        <time>2020-07-16T10:46:05Z</time>
      </trkpt>
      <trkpt lat="44.98049" lon="5.84827">
        <ele>1991.99</ele>
        <time>2020-07-16T10:46:07Z</time>
      </trkpt>
      <trkpt lat="44.9805" lon="5.84828">
        <ele>1991.51</ele>
        <time>2020-07-16T10:46:08Z</time>
      </trkpt>
      <trkpt lat="44.98051" lon="5.84828">
        <ele>1991.51</ele>
        <time>2020-07-16T10:46:09Z</time>
      </trkpt>
      <trkpt lat="44.98062" lon="5.84833">
        <ele>1989.59</ele>
        <time>2020-07-16T10:46:20Z</time>
      </trkpt>
      <trkpt lat="44.98063" lon="5.84833">
        <ele>1989.59</ele>
        <time>2020-07-16T10:46:21Z</time>
      </trkpt>
      <trkpt lat="44.98065" lon="5.84833">
        <ele>1989.1</ele>
        <time>2020-07-16T10:46:22Z</time>
      </trkpt>
      <trkpt lat="44.98066" lon="5.84833">
        <ele>1989.1</ele>
        <time>2020-07-16T10:46:23Z</time>
      </trkpt>
      <trkpt lat="44.98067" lon="5.84832">
        <ele>1988.62</ele>
        <time>2020-07-16T10:46:25Z</time>
      </trkpt>
      <trkpt lat="44.98073" lon="5.84832">
        <ele>1987.18</ele>
        <time>2020-07-16T10:46:30Z</time>
      </trkpt>
      <trkpt lat="44.98085" lon="5.84834">
        <ele>1984.78</ele>
        <time>2020-07-16T10:46:44Z</time>
      </trkpt>
      <trkpt lat="44.98099" lon="5.84831">
        <ele>1982.38</ele>
        <time>2020-07-16T10:46:58Z</time>
      </trkpt>
      <trkpt lat="44.98113" lon="5.84832">
        <ele>1980.45</ele>
        <time>2020-07-16T10:47:11Z</time>
      </trkpt>
      <trkpt lat="44.9812" lon="5.84834">
        <ele>1979.97</ele>
        <time>2020-07-16T10:47:18Z</time>
      </trkpt>
      <trkpt lat="44.98141" lon="5.84836">
        <ele>1978.05</ele>
        <time>2020-07-16T10:47:35Z</time>
      </trkpt>
      <trkpt lat="44.98151" lon="5.84837">
        <ele>1978.05</ele>
        <time>2020-07-16T10:47:45Z</time>
      </trkpt>
      <trkpt lat="44.98152" lon="5.84837">
        <ele>1978.05</ele>
        <time>2020-07-16T10:47:46Z</time>
      </trkpt>
      <trkpt lat="44.98153" lon="5.84837">
        <ele>1978.05</ele>
        <time>2020-07-16T10:47:47Z</time>
      </trkpt>
      <trkpt lat="44.98164" lon="5.84831">
        <ele>1978.05</ele>
        <time>2020-07-16T10:48:01Z</time>
      </trkpt>
      <trkpt lat="44.98171" lon="5.84835">
        <ele>1976.61</ele>
        <time>2020-07-16T10:48:12Z</time>
      </trkpt>
      <trkpt lat="44.98177" lon="5.84837">
        <ele>1975.65</ele>
        <time>2020-07-16T10:48:20Z</time>
      </trkpt>
      <trkpt lat="44.98187" lon="5.84834">
        <ele>1974.2</ele>
        <time>2020-07-16T10:48:30Z</time>
      </trkpt>
      <trkpt lat="44.9819" lon="5.84833">
        <ele>1974.2</ele>
        <time>2020-07-16T10:48:33Z</time>
      </trkpt>
      <trkpt lat="44.98197" lon="5.84834">
        <ele>1973.72</ele>
        <time>2020-07-16T10:48:41Z</time>
      </trkpt>
      <trkpt lat="44.98198" lon="5.84834">
        <ele>1973.24</ele>
        <time>2020-07-16T10:48:42Z</time>
      </trkpt>
      <trkpt lat="44.98199" lon="5.84835">
        <ele>1973.24</ele>
        <time>2020-07-16T10:48:43Z</time>
      </trkpt>
      <trkpt lat="44.98209" lon="5.84844">
        <ele>1971.8</ele>
        <time>2020-07-16T10:48:55Z</time>
      </trkpt>
      <trkpt lat="44.98218" lon="5.84843">
        <ele>1970.84</ele>
        <time>2020-07-16T10:49:03Z</time>
      </trkpt>
      <trkpt lat="44.98227" lon="5.84837">
        <ele>1968.44</ele>
        <time>2020-07-16T10:49:16Z</time>
      </trkpt>
      <trkpt lat="44.98227" lon="5.84836">
        <ele>1965.07</ele>
        <time>2020-07-16T10:49:23Z</time>
      </trkpt>
      <trkpt lat="44.98227" lon="5.84836">
        <ele>1964.59</ele>
        <time>2020-07-16T10:49:24Z</time>
      </trkpt>
      <trkpt lat="44.98228" lon="5.84835">
        <ele>1966.99</ele>
        <time>2020-07-16T10:49:46Z</time>
      </trkpt>
      <trkpt lat="44.98233" lon="5.84828">
        <ele>1965.07</ele>
        <time>2020-07-16T10:50:00Z</time>
      </trkpt>
      <trkpt lat="44.98234" lon="5.84835">
        <ele>1963.63</ele>
        <time>2020-07-16T10:50:14Z</time>
      </trkpt>
      <trkpt lat="44.98235" lon="5.84843">
        <ele>1962.67</ele>
        <time>2020-07-16T10:50:28Z</time>
      </trkpt>
      <trkpt lat="44.98242" lon="5.84839">
        <ele>1959.3</ele>
        <time>2020-07-16T10:50:43Z</time>
      </trkpt>
      <trkpt lat="44.98249" lon="5.84839">
        <ele>1957.86</ele>
        <time>2020-07-16T10:50:52Z</time>
      </trkpt>
      <trkpt lat="44.9825" lon="5.84838">
        <ele>1957.38</ele>
        <time>2020-07-16T10:50:53Z</time>
      </trkpt>
      <trkpt lat="44.98251" lon="5.84837">
        <ele>1957.38</ele>
        <time>2020-07-16T10:50:54Z</time>
      </trkpt>
      <trkpt lat="44.98252" lon="5.84836">
        <ele>1957.38</ele>
        <time>2020-07-16T10:50:55Z</time>
      </trkpt>
      <trkpt lat="44.98253" lon="5.84835">
        <ele>1956.9</ele>
        <time>2020-07-16T10:50:56Z</time>
      </trkpt>
      <trkpt lat="44.98255" lon="5.84834">
        <ele>1956.42</ele>
        <time>2020-07-16T10:50:58Z</time>
      </trkpt>
      <trkpt lat="44.98265" lon="5.84828">
        <ele>1953.06</ele>
        <time>2020-07-16T10:51:10Z</time>
      </trkpt>
      <trkpt lat="44.9827" lon="5.84823">
        <ele>1951.61</ele>
        <time>2020-07-16T10:51:16Z</time>
      </trkpt>
      <trkpt lat="44.98272" lon="5.84822">
        <ele>1951.61</ele>
        <time>2020-07-16T10:51:18Z</time>
      </trkpt>
      <trkpt lat="44.98283" lon="5.84818">
        <ele>1948.73</ele>
        <time>2020-07-16T10:51:30Z</time>
      </trkpt>
      <trkpt lat="44.98284" lon="5.84818">
        <ele>1948.73</ele>
        <time>2020-07-16T10:51:31Z</time>
      </trkpt>
      <trkpt lat="44.98286" lon="5.84818">
        <ele>1948.25</ele>
        <time>2020-07-16T10:51:32Z</time>
      </trkpt>
      <trkpt lat="44.98301" lon="5.84814">
        <ele>1945.85</ele>
        <time>2020-07-16T10:51:45Z</time>
      </trkpt>
      <trkpt lat="44.98308" lon="5.84811">
        <ele>1945.36</ele>
        <time>2020-07-16T10:51:51Z</time>
      </trkpt>
      <trkpt lat="44.98318" lon="5.84808">
        <ele>1943.92</ele>
        <time>2020-07-16T10:52:01Z</time>
      </trkpt>
      <trkpt lat="44.98321" lon="5.84805">
        <ele>1943.44</ele>
        <time>2020-07-16T10:52:04Z</time>
      </trkpt>
      <trkpt lat="44.98322" lon="5.84805">
        <ele>1943.44</ele>
        <time>2020-07-16T10:52:05Z</time>
      </trkpt>
      <trkpt lat="44.98323" lon="5.84804">
        <ele>1943.44</ele>
        <time>2020-07-16T10:52:06Z</time>
      </trkpt>
      <trkpt lat="44.98324" lon="5.84802">
        <ele>1942.96</ele>
        <time>2020-07-16T10:52:07Z</time>
      </trkpt>
      <trkpt lat="44.98324" lon="5.84801">
        <ele>1942.96</ele>
        <time>2020-07-16T10:52:08Z</time>
      </trkpt>
      <trkpt lat="44.98329" lon="5.84795">
        <ele>1942.48</ele>
        <time>2020-07-16T10:52:14Z</time>
      </trkpt>
      <trkpt lat="44.9833" lon="5.84794">
        <ele>1942</ele>
        <time>2020-07-16T10:52:15Z</time>
      </trkpt>
      <trkpt lat="44.98331" lon="5.84793">
        <ele>1942</ele>
        <time>2020-07-16T10:52:16Z</time>
      </trkpt>
      <trkpt lat="44.98333" lon="5.84792">
        <ele>1942</ele>
        <time>2020-07-16T10:52:18Z</time>
      </trkpt>
      <trkpt lat="44.98343" lon="5.8478">
        <ele>1939.6</ele>
        <time>2020-07-16T10:52:30Z</time>
      </trkpt>
      <trkpt lat="44.98344" lon="5.84779">
        <ele>1939.6</ele>
        <time>2020-07-16T10:52:31Z</time>
      </trkpt>
      <trkpt lat="44.98345" lon="5.84777">
        <ele>1939.6</ele>
        <time>2020-07-16T10:52:32Z</time>
      </trkpt>
      <trkpt lat="44.98346" lon="5.84776">
        <ele>1939.6</ele>
        <time>2020-07-16T10:52:33Z</time>
      </trkpt>
      <trkpt lat="44.98346" lon="5.84774">
        <ele>1939.6</ele>
        <time>2020-07-16T10:52:34Z</time>
      </trkpt>
      <trkpt lat="44.98346" lon="5.84773">
        <ele>1939.6</ele>
        <time>2020-07-16T10:52:35Z</time>
      </trkpt>
      <trkpt lat="44.98346" lon="5.84771">
        <ele>1939.6</ele>
        <time>2020-07-16T10:52:36Z</time>
      </trkpt>
      <trkpt lat="44.98346" lon="5.84769">
        <ele>1939.12</ele>
        <time>2020-07-16T10:52:37Z</time>
      </trkpt>
      <trkpt lat="44.98344" lon="5.84746">
        <ele>1937.19</ele>
        <time>2020-07-16T10:52:53Z</time>
      </trkpt>
      <trkpt lat="44.98345" lon="5.84733">
        <ele>1936.23</ele>
        <time>2020-07-16T10:53:01Z</time>
      </trkpt>
      <trkpt lat="44.98345" lon="5.84732">
        <ele>1936.23</ele>
        <time>2020-07-16T10:53:02Z</time>
      </trkpt>
      <trkpt lat="44.98346" lon="5.84717">
        <ele>1932.87</ele>
        <time>2020-07-16T10:53:16Z</time>
      </trkpt>
      <trkpt lat="44.98336" lon="5.84704">
        <ele>1929.5</ele>
        <time>2020-07-16T10:53:30Z</time>
      </trkpt>
      <trkpt lat="44.98334" lon="5.84701">
        <ele>1929.02</ele>
        <time>2020-07-16T10:53:33Z</time>
      </trkpt>
      <trkpt lat="44.98333" lon="5.84699">
        <ele>1929.02</ele>
        <time>2020-07-16T10:53:34Z</time>
      </trkpt>
      <trkpt lat="44.98332" lon="5.84698">
        <ele>1928.54</ele>
        <time>2020-07-16T10:53:35Z</time>
      </trkpt>
      <trkpt lat="44.98331" lon="5.84698">
        <ele>1928.54</ele>
        <time>2020-07-16T10:53:36Z</time>
      </trkpt>
      <trkpt lat="44.98324" lon="5.84691">
        <ele>1926.62</ele>
        <time>2020-07-16T10:53:46Z</time>
      </trkpt>
      <trkpt lat="44.98323" lon="5.84691">
        <ele>1926.62</ele>
        <time>2020-07-16T10:53:47Z</time>
      </trkpt>
      <trkpt lat="44.98322" lon="5.8469">
        <ele>1926.62</ele>
        <time>2020-07-16T10:53:48Z</time>
      </trkpt>
      <trkpt lat="44.98312" lon="5.8469">
        <ele>1923.25</ele>
        <time>2020-07-16T10:54:03Z</time>
      </trkpt>
      <trkpt lat="44.9831" lon="5.84689">
        <ele>1922.29</ele>
        <time>2020-07-16T10:54:05Z</time>
      </trkpt>
      <trkpt lat="44.98309" lon="5.84688">
        <ele>1922.29</ele>
        <time>2020-07-16T10:54:06Z</time>
      </trkpt>
      <trkpt lat="44.98307" lon="5.84687">
        <ele>1921.81</ele>
        <time>2020-07-16T10:54:07Z</time>
      </trkpt>
      <trkpt lat="44.98306" lon="5.84687">
        <ele>1921.81</ele>
        <time>2020-07-16T10:54:08Z</time>
      </trkpt>
      <trkpt lat="44.98305" lon="5.84687">
        <ele>1921.81</ele>
        <time>2020-07-16T10:54:09Z</time>
      </trkpt>
      <trkpt lat="44.98303" lon="5.84687">
        <ele>1921.33</ele>
        <time>2020-07-16T10:54:10Z</time>
      </trkpt>
      <trkpt lat="44.98302" lon="5.84688">
        <ele>1921.33</ele>
        <time>2020-07-16T10:54:11Z</time>
      </trkpt>
      <trkpt lat="44.98292" lon="5.8469">
        <ele>1920.37</ele>
        <time>2020-07-16T10:54:24Z</time>
      </trkpt>
      <trkpt lat="44.98291" lon="5.84681">
        <ele>1918.45</ele>
        <time>2020-07-16T10:54:35Z</time>
      </trkpt>
      <trkpt lat="44.98291" lon="5.84679">
        <ele>1918.45</ele>
        <time>2020-07-16T10:54:36Z</time>
      </trkpt>
      <trkpt lat="44.98291" lon="5.84678">
        <ele>1917.97</ele>
        <time>2020-07-16T10:54:37Z</time>
      </trkpt>
      <trkpt lat="44.98291" lon="5.84676">
        <ele>1917.97</ele>
        <time>2020-07-16T10:54:38Z</time>
      </trkpt>
      <trkpt lat="44.98289" lon="5.8466">
        <ele>1914.6</ele>
        <time>2020-07-16T10:54:52Z</time>
      </trkpt>
      <trkpt lat="44.98287" lon="5.84651">
        <ele>1911.72</ele>
        <time>2020-07-16T10:55:05Z</time>
      </trkpt>
      <trkpt lat="44.9828" lon="5.84648">
        <ele>1908.83</ele>
        <time>2020-07-16T10:55:18Z</time>
      </trkpt>
      <trkpt lat="44.98278" lon="5.84648">
        <ele>1908.83</ele>
        <time>2020-07-16T10:55:20Z</time>
      </trkpt>
      <trkpt lat="44.98277" lon="5.84647">
        <ele>1908.83</ele>
        <time>2020-07-16T10:55:21Z</time>
      </trkpt>
      <trkpt lat="44.98274" lon="5.84648">
        <ele>1907.87</ele>
        <time>2020-07-16T10:55:24Z</time>
      </trkpt>
      <trkpt lat="44.98273" lon="5.84648">
        <ele>1907.87</ele>
        <time>2020-07-16T10:55:25Z</time>
      </trkpt>
      <trkpt lat="44.98272" lon="5.84648">
        <ele>1907.39</ele>
        <time>2020-07-16T10:55:26Z</time>
      </trkpt>
      <trkpt lat="44.98271" lon="5.84649">
        <ele>1907.39</ele>
        <time>2020-07-16T10:55:27Z</time>
      </trkpt>
      <trkpt lat="44.98262" lon="5.84645">
        <ele>1904.99</ele>
        <time>2020-07-16T10:55:39Z</time>
      </trkpt>
      <trkpt lat="44.98257" lon="5.84641">
        <ele>1902.59</ele>
        <time>2020-07-16T10:55:50Z</time>
      </trkpt>
      <trkpt lat="44.98254" lon="5.84641">
        <ele>1901.14</ele>
        <time>2020-07-16T10:56:04Z</time>
      </trkpt>
      <trkpt lat="44.9825" lon="5.84643">
        <ele>1899.7</ele>
        <time>2020-07-16T10:56:18Z</time>
      </trkpt>
      <trkpt lat="44.98248" lon="5.84645">
        <ele>1900.18</ele>
        <time>2020-07-16T10:56:35Z</time>
      </trkpt>
      <trkpt lat="44.98247" lon="5.84644">
        <ele>1899.7</ele>
        <time>2020-07-16T10:57:03Z</time>
      </trkpt>
      <trkpt lat="44.98246" lon="5.84644">
        <ele>1899.22</ele>
        <time>2020-07-16T10:57:29Z</time>
      </trkpt>
      <trkpt lat="44.98246" lon="5.84641">
        <ele>1899.22</ele>
        <time>2020-07-16T10:58:05Z</time>
      </trkpt>
      <trkpt lat="44.98241" lon="5.84638">
        <ele>1897.78</ele>
        <time>2020-07-16T10:58:19Z</time>
      </trkpt>
      <trkpt lat="44.98238" lon="5.84631">
        <ele>1896.82</ele>
        <time>2020-07-16T10:58:32Z</time>
      </trkpt>
      <trkpt lat="44.98238" lon="5.84631">
        <ele>1894.42</ele>
        <time>2020-07-16T10:58:39Z</time>
      </trkpt>
      <trkpt lat="44.98239" lon="5.84632">
        <ele>1894.9</ele>
        <time>2020-07-16T10:58:46Z</time>
      </trkpt>
      <trkpt lat="44.98237" lon="5.84629">
        <ele>1895.38</ele>
        <time>2020-07-16T10:58:59Z</time>
      </trkpt>
      <trkpt lat="44.98232" lon="5.84619">
        <ele>1893.45</ele>
        <time>2020-07-16T10:59:11Z</time>
      </trkpt>
      <trkpt lat="44.98231" lon="5.84615">
        <ele>1892.97</ele>
        <time>2020-07-16T10:59:14Z</time>
      </trkpt>
      <trkpt lat="44.98231" lon="5.84613">
        <ele>1892.97</ele>
        <time>2020-07-16T10:59:15Z</time>
      </trkpt>
      <trkpt lat="44.98231" lon="5.84611">
        <ele>1892.97</ele>
        <time>2020-07-16T10:59:16Z</time>
      </trkpt>
      <trkpt lat="44.98231" lon="5.84609">
        <ele>1892.97</ele>
        <time>2020-07-16T10:59:17Z</time>
      </trkpt>
      <trkpt lat="44.98231" lon="5.84588">
        <ele>1892.01</ele>
        <time>2020-07-16T10:59:31Z</time>
      </trkpt>
      <trkpt lat="44.98228" lon="5.84572">
        <ele>1892.01</ele>
        <time>2020-07-16T10:59:43Z</time>
      </trkpt>
      <trkpt lat="44.98228" lon="5.8457">
        <ele>1892.01</ele>
        <time>2020-07-16T10:59:44Z</time>
      </trkpt>
      <trkpt lat="44.98222" lon="5.8456">
        <ele>1892.49</ele>
        <time>2020-07-16T10:59:52Z</time>
      </trkpt>
      <trkpt lat="44.98222" lon="5.84558">
        <ele>1892.49</ele>
        <time>2020-07-16T10:59:53Z</time>
      </trkpt>
      <trkpt lat="44.98223" lon="5.84548">
        <ele>1892.01</ele>
        <time>2020-07-16T10:59:59Z</time>
      </trkpt>
      <trkpt lat="44.98218" lon="5.84534">
        <ele>1892.01</ele>
        <time>2020-07-16T11:00:11Z</time>
      </trkpt>
      <trkpt lat="44.98212" lon="5.84518">
        <ele>1892.97</ele>
        <time>2020-07-16T11:00:26Z</time>
      </trkpt>
      <trkpt lat="44.98212" lon="5.84515">
        <ele>1892.97</ele>
        <time>2020-07-16T11:00:28Z</time>
      </trkpt>
      <trkpt lat="44.98212" lon="5.84514">
        <ele>1892.97</ele>
        <time>2020-07-16T11:00:29Z</time>
      </trkpt>
      <trkpt lat="44.98208" lon="5.84487">
        <ele>1892.49</ele>
        <time>2020-07-16T11:00:48Z</time>
      </trkpt>
      <trkpt lat="44.98209" lon="5.84484">
        <ele>1892.97</ele>
        <time>2020-07-16T11:01:03Z</time>
      </trkpt>
      <trkpt lat="44.9821" lon="5.84485">
        <ele>1894.42</ele>
        <time>2020-07-16T11:01:15Z</time>
      </trkpt>
      <trkpt lat="44.98213" lon="5.84488">
        <ele>1894.42</ele>
        <time>2020-07-16T11:01:19Z</time>
      </trkpt>
      <trkpt lat="44.98214" lon="5.84488">
        <ele>1894.42</ele>
        <time>2020-07-16T11:01:20Z</time>
      </trkpt>
      <trkpt lat="44.98215" lon="5.84489">
        <ele>1893.93</ele>
        <time>2020-07-16T11:01:21Z</time>
      </trkpt>
      <trkpt lat="44.98216" lon="5.8449">
        <ele>1893.93</ele>
        <time>2020-07-16T11:01:22Z</time>
      </trkpt>
      <trkpt lat="44.98217" lon="5.8449">
        <ele>1893.45</ele>
        <time>2020-07-16T11:01:23Z</time>
      </trkpt>
      <trkpt lat="44.98219" lon="5.84492">
        <ele>1892.97</ele>
        <time>2020-07-16T11:01:25Z</time>
      </trkpt>
      <trkpt lat="44.98224" lon="5.84492">
        <ele>1892.01</ele>
        <time>2020-07-16T11:01:31Z</time>
      </trkpt>
      <trkpt lat="44.98227" lon="5.8449">
        <ele>1891.05</ele>
        <time>2020-07-16T11:01:35Z</time>
      </trkpt>
      <trkpt lat="44.98228" lon="5.84489">
        <ele>1890.57</ele>
        <time>2020-07-16T11:01:36Z</time>
      </trkpt>
      <trkpt lat="44.98229" lon="5.84488">
        <ele>1890.57</ele>
        <time>2020-07-16T11:01:37Z</time>
      </trkpt>
      <trkpt lat="44.9823" lon="5.84487">
        <ele>1890.57</ele>
        <time>2020-07-16T11:01:38Z</time>
      </trkpt>
      <trkpt lat="44.98231" lon="5.84487">
        <ele>1890.57</ele>
        <time>2020-07-16T11:01:39Z</time>
      </trkpt>
      <trkpt lat="44.98232" lon="5.84487">
        <ele>1890.09</ele>
        <time>2020-07-16T11:01:40Z</time>
      </trkpt>
      <trkpt lat="44.9825" lon="5.84503">
        <ele>1889.61</ele>
        <time>2020-07-16T11:01:58Z</time>
      </trkpt>
      <trkpt lat="44.98255" lon="5.84507">
        <ele>1889.61</ele>
        <time>2020-07-16T11:02:03Z</time>
      </trkpt>
      <trkpt lat="44.98272" lon="5.84522">
        <ele>1886.72</ele>
        <time>2020-07-16T11:02:20Z</time>
      </trkpt>
      <trkpt lat="44.98276" lon="5.84525">
        <ele>1888.17</ele>
        <time>2020-07-16T11:02:25Z</time>
      </trkpt>
      <trkpt lat="44.98291" lon="5.84528">
        <ele>1886.72</ele>
        <time>2020-07-16T11:02:39Z</time>
      </trkpt>
      <trkpt lat="44.98302" lon="5.84524">
        <ele>1885.76</ele>
        <time>2020-07-16T11:02:51Z</time>
      </trkpt>
      <trkpt lat="44.98312" lon="5.84515">
        <ele>1883.84</ele>
        <time>2020-07-16T11:03:06Z</time>
      </trkpt>
      <trkpt lat="44.98313" lon="5.84515">
        <ele>1883.84</ele>
        <time>2020-07-16T11:03:07Z</time>
      </trkpt>
      <trkpt lat="44.98315" lon="5.84515">
        <ele>1883.36</ele>
        <time>2020-07-16T11:03:08Z</time>
      </trkpt>
      <trkpt lat="44.98316" lon="5.84515">
        <ele>1883.36</ele>
        <time>2020-07-16T11:03:09Z</time>
      </trkpt>
      <trkpt lat="44.98329" lon="5.84511">
        <ele>1881.44</ele>
        <time>2020-07-16T11:03:23Z</time>
      </trkpt>
      <trkpt lat="44.98331" lon="5.84512">
        <ele>1881.44</ele>
        <time>2020-07-16T11:03:24Z</time>
      </trkpt>
      <trkpt lat="44.98334" lon="5.84514">
        <ele>1880.96</ele>
        <time>2020-07-16T11:03:27Z</time>
      </trkpt>
      <trkpt lat="44.98335" lon="5.84514">
        <ele>1880.48</ele>
        <time>2020-07-16T11:03:28Z</time>
      </trkpt>
      <trkpt lat="44.98352" lon="5.84515">
        <ele>1879.03</ele>
        <time>2020-07-16T11:03:46Z</time>
      </trkpt>
      <trkpt lat="44.9836" lon="5.84517">
        <ele>1878.55</ele>
        <time>2020-07-16T11:04:03Z</time>
      </trkpt>
      <trkpt lat="44.98368" lon="5.84515">
        <ele>1879.03</ele>
        <time>2020-07-16T11:04:19Z</time>
      </trkpt>
      <trkpt lat="44.98379" lon="5.84514">
        <ele>1880.48</ele>
        <time>2020-07-16T11:04:39Z</time>
      </trkpt>
      <trkpt lat="44.9838" lon="5.84514">
        <ele>1880.48</ele>
        <time>2020-07-16T11:04:40Z</time>
      </trkpt>
      <trkpt lat="44.98381" lon="5.84514">
        <ele>1880.48</ele>
        <time>2020-07-16T11:04:41Z</time>
      </trkpt>
      <trkpt lat="44.98382" lon="5.84513">
        <ele>1880.96</ele>
        <time>2020-07-16T11:04:42Z</time>
      </trkpt>
      <trkpt lat="44.98386" lon="5.84512">
        <ele>1881.44</ele>
        <time>2020-07-16T11:04:47Z</time>
      </trkpt>
      <trkpt lat="44.98391" lon="5.84506">
        <ele>1882.4</ele>
        <time>2020-07-16T11:04:54Z</time>
      </trkpt>
      <trkpt lat="44.984" lon="5.84506">
        <ele>1882.88</ele>
        <time>2020-07-16T11:05:03Z</time>
      </trkpt>
      <trkpt lat="44.98401" lon="5.84507">
        <ele>1882.88</ele>
        <time>2020-07-16T11:05:04Z</time>
      </trkpt>
      <trkpt lat="44.98417" lon="5.84519">
        <ele>1882.4</ele>
        <time>2020-07-16T11:05:22Z</time>
      </trkpt>
      <trkpt lat="44.98432" lon="5.84528">
        <ele>1880.48</ele>
        <time>2020-07-16T11:05:37Z</time>
      </trkpt>
      <trkpt lat="44.98448" lon="5.84535">
        <ele>1879.03</ele>
        <time>2020-07-16T11:05:54Z</time>
      </trkpt>
      <trkpt lat="44.98456" lon="5.84538">
        <ele>1878.07</ele>
        <time>2020-07-16T11:06:04Z</time>
      </trkpt>
      <trkpt lat="44.9846" lon="5.84538">
        <ele>1878.07</ele>
        <time>2020-07-16T11:06:09Z</time>
      </trkpt>
      <trkpt lat="44.98465" lon="5.84536">
        <ele>1878.07</ele>
        <time>2020-07-16T11:06:15Z</time>
      </trkpt>
      <trkpt lat="44.98469" lon="5.84536">
        <ele>1877.59</ele>
        <time>2020-07-16T11:06:20Z</time>
      </trkpt>
      <trkpt lat="44.9847" lon="5.84537">
        <ele>1877.59</ele>
        <time>2020-07-16T11:06:21Z</time>
      </trkpt>
      <trkpt lat="44.98484" lon="5.8454">
        <ele>1875.67</ele>
        <time>2020-07-16T11:06:36Z</time>
      </trkpt>
      <trkpt lat="44.98496" lon="5.84549">
        <ele>1876.63</ele>
        <time>2020-07-16T11:06:51Z</time>
      </trkpt>
      <trkpt lat="44.98497" lon="5.8455">
        <ele>1877.11</ele>
        <time>2020-07-16T11:06:52Z</time>
      </trkpt>
      <trkpt lat="44.9851" lon="5.8456">
        <ele>1878.07</ele>
        <time>2020-07-16T11:07:09Z</time>
      </trkpt>
      <trkpt lat="44.98518" lon="5.84567">
        <ele>1879.03</ele>
        <time>2020-07-16T11:07:20Z</time>
      </trkpt>
      <trkpt lat="44.9852" lon="5.84568">
        <ele>1879.51</ele>
        <time>2020-07-16T11:07:21Z</time>
      </trkpt>
      <trkpt lat="44.98528" lon="5.84576">
        <ele>1880</ele>
        <time>2020-07-16T11:07:31Z</time>
      </trkpt>
      <trkpt lat="44.9854" lon="5.84583">
        <ele>1882.4</ele>
        <time>2020-07-16T11:07:45Z</time>
      </trkpt>
      <trkpt lat="44.98553" lon="5.8459">
        <ele>1883.36</ele>
        <time>2020-07-16T11:08:00Z</time>
      </trkpt>
      <trkpt lat="44.98563" lon="5.84597">
        <ele>1884.32</ele>
        <time>2020-07-16T11:08:13Z</time>
      </trkpt>
      <trkpt lat="44.98574" lon="5.84606">
        <ele>1887.21</ele>
        <time>2020-07-16T11:08:30Z</time>
      </trkpt>
      <trkpt lat="44.98587" lon="5.84618">
        <ele>1890.57</ele>
        <time>2020-07-16T11:08:48Z</time>
      </trkpt>
      <trkpt lat="44.98594" lon="5.84628">
        <ele>1892.49</ele>
        <time>2020-07-16T11:09:01Z</time>
      </trkpt>
      <trkpt lat="44.98605" lon="5.84637">
        <ele>1894.9</ele>
        <time>2020-07-16T11:09:15Z</time>
      </trkpt>
      <trkpt lat="44.98612" lon="5.84653">
        <ele>1895.86</ele>
        <time>2020-07-16T11:09:30Z</time>
      </trkpt>
      <trkpt lat="44.98613" lon="5.84655">
        <ele>1896.34</ele>
        <time>2020-07-16T11:09:32Z</time>
      </trkpt>
      <trkpt lat="44.98616" lon="5.84663">
        <ele>1894.9</ele>
        <time>2020-07-16T11:09:38Z</time>
      </trkpt>
      <trkpt lat="44.9862" lon="5.8467">
        <ele>1897.78</ele>
        <time>2020-07-16T11:09:46Z</time>
      </trkpt>
      <trkpt lat="44.98622" lon="5.84671">
        <ele>1898.74</ele>
        <time>2020-07-16T11:09:48Z</time>
      </trkpt>
      <trkpt lat="44.98626" lon="5.84676">
        <ele>1898.74</ele>
        <time>2020-07-16T11:09:55Z</time>
      </trkpt>
      <trkpt lat="44.98635" lon="5.84682">
        <ele>1899.7</ele>
        <time>2020-07-16T11:10:06Z</time>
      </trkpt>
      <trkpt lat="44.98639" lon="5.84681">
        <ele>1900.18</ele>
        <time>2020-07-16T11:10:10Z</time>
      </trkpt>
      <trkpt lat="44.98653" lon="5.8467">
        <ele>1902.11</ele>
        <time>2020-07-16T11:10:27Z</time>
      </trkpt>
      <trkpt lat="44.98663" lon="5.84669">
        <ele>1904.51</ele>
        <time>2020-07-16T11:10:40Z</time>
      </trkpt>
      <trkpt lat="44.98667" lon="5.84677">
        <ele>1905.47</ele>
        <time>2020-07-16T11:10:48Z</time>
      </trkpt>
      <trkpt lat="44.98667" lon="5.84679">
        <ele>1905.95</ele>
        <time>2020-07-16T11:10:50Z</time>
      </trkpt>
      <trkpt lat="44.98667" lon="5.84688">
        <ele>1906.43</ele>
        <time>2020-07-16T11:10:57Z</time>
      </trkpt>
      <trkpt lat="44.98668" lon="5.8469">
        <ele>1906.91</ele>
        <time>2020-07-16T11:10:58Z</time>
      </trkpt>
      <trkpt lat="44.98667" lon="5.84691">
        <ele>1906.91</ele>
        <time>2020-07-16T11:10:59Z</time>
      </trkpt>
      <trkpt lat="44.98667" lon="5.84693">
        <ele>1906.91</ele>
        <time>2020-07-16T11:11:00Z</time>
      </trkpt>
      <trkpt lat="44.98667" lon="5.84694">
        <ele>1907.39</ele>
        <time>2020-07-16T11:11:01Z</time>
      </trkpt>
      <trkpt lat="44.98669" lon="5.84717">
        <ele>1909.32</ele>
        <time>2020-07-16T11:11:17Z</time>
      </trkpt>
      <trkpt lat="44.98668" lon="5.8474">
        <ele>1909.8</ele>
        <time>2020-07-16T11:11:32Z</time>
      </trkpt>
      <trkpt lat="44.98668" lon="5.84741">
        <ele>1909.8</ele>
        <time>2020-07-16T11:11:33Z</time>
      </trkpt>
      <trkpt lat="44.98669" lon="5.84751">
        <ele>1909.8</ele>
        <time>2020-07-16T11:11:40Z</time>
      </trkpt>
      <trkpt lat="44.98668" lon="5.84766">
        <ele>1912.68</ele>
        <time>2020-07-16T11:11:54Z</time>
      </trkpt>
      <trkpt lat="44.98668" lon="5.84782">
        <ele>1915.08</ele>
        <time>2020-07-16T11:12:08Z</time>
      </trkpt>
      <trkpt lat="44.98672" lon="5.84799">
        <ele>1917.01</ele>
        <time>2020-07-16T11:12:22Z</time>
      </trkpt>
      <trkpt lat="44.98678" lon="5.84813">
        <ele>1919.41</ele>
        <time>2020-07-16T11:12:36Z</time>
      </trkpt>
      <trkpt lat="44.98685" lon="5.84828">
        <ele>1922.29</ele>
        <time>2020-07-16T11:12:51Z</time>
      </trkpt>
      <trkpt lat="44.98691" lon="5.84841">
        <ele>1925.66</ele>
        <time>2020-07-16T11:13:05Z</time>
      </trkpt>
      <trkpt lat="44.98697" lon="5.84854">
        <ele>1929.02</ele>
        <time>2020-07-16T11:13:20Z</time>
      </trkpt>
      <trkpt lat="44.987" lon="5.84869">
        <ele>1931.43</ele>
        <time>2020-07-16T11:13:34Z</time>
      </trkpt>
      <trkpt lat="44.98696" lon="5.84883">
        <ele>1934.31</ele>
        <time>2020-07-16T11:13:48Z</time>
      </trkpt>
      <trkpt lat="44.98691" lon="5.84897">
        <ele>1937.19</ele>
        <time>2020-07-16T11:14:04Z</time>
      </trkpt>
      <trkpt lat="44.98688" lon="5.84909">
        <ele>1940.08</ele>
        <time>2020-07-16T11:14:18Z</time>
      </trkpt>
      <trkpt lat="44.98686" lon="5.84914">
        <ele>1941.52</ele>
        <time>2020-07-16T11:14:24Z</time>
      </trkpt>
      <trkpt lat="44.98683" lon="5.84924">
        <ele>1943.44</ele>
        <time>2020-07-16T11:14:36Z</time>
      </trkpt>
      <trkpt lat="44.9868" lon="5.84935">
        <ele>1945.85</ele>
        <time>2020-07-16T11:14:49Z</time>
      </trkpt>
      <trkpt lat="44.98679" lon="5.84943">
        <ele>1946.81</ele>
        <time>2020-07-16T11:14:56Z</time>
      </trkpt>
      <trkpt lat="44.98677" lon="5.84963">
        <ele>1949.21</ele>
        <time>2020-07-16T11:15:13Z</time>
      </trkpt>
      <trkpt lat="44.98685" lon="5.84971">
        <ele>1951.61</ele>
        <time>2020-07-16T11:15:29Z</time>
      </trkpt>
      <trkpt lat="44.98694" lon="5.84974">
        <ele>1954.98</ele>
        <time>2020-07-16T11:15:43Z</time>
      </trkpt>
      <trkpt lat="44.98708" lon="5.84979">
        <ele>1957.86</ele>
        <time>2020-07-16T11:16:00Z</time>
      </trkpt>
      <trkpt lat="44.98712" lon="5.84982">
        <ele>1958.82</ele>
        <time>2020-07-16T11:16:05Z</time>
      </trkpt>
      <trkpt lat="44.98726" lon="5.84991">
        <ele>1960.75</ele>
        <time>2020-07-16T11:16:22Z</time>
      </trkpt>
      <trkpt lat="44.98728" lon="5.85005">
        <ele>1962.67</ele>
        <time>2020-07-16T11:16:36Z</time>
      </trkpt>
      <trkpt lat="44.98718" lon="5.85012">
        <ele>1964.59</ele>
        <time>2020-07-16T11:16:50Z</time>
      </trkpt>
      <trkpt lat="44.98713" lon="5.85024">
        <ele>1966.99</ele>
        <time>2020-07-16T11:17:05Z</time>
      </trkpt>
      <trkpt lat="44.98721" lon="5.85033">
        <ele>1970.36</ele>
        <time>2020-07-16T11:17:19Z</time>
      </trkpt>
      <trkpt lat="44.98732" lon="5.85036">
        <ele>1972.28</ele>
        <time>2020-07-16T11:17:34Z</time>
      </trkpt>
      <trkpt lat="44.98739" lon="5.85036">
        <ele>1973.72</ele>
        <time>2020-07-16T11:17:42Z</time>
      </trkpt>
      <trkpt lat="44.98749" lon="5.8503">
        <ele>1976.13</ele>
        <time>2020-07-16T11:17:55Z</time>
      </trkpt>
      <trkpt lat="44.98758" lon="5.85019">
        <ele>1979.01</ele>
        <time>2020-07-16T11:18:11Z</time>
      </trkpt>
      <trkpt lat="44.98768" lon="5.85008">
        <ele>1981.41</ele>
        <time>2020-07-16T11:18:26Z</time>
      </trkpt>
      <trkpt lat="44.98775" lon="5.84999">
        <ele>1983.34</ele>
        <time>2020-07-16T11:18:38Z</time>
      </trkpt>
      <trkpt lat="44.98783" lon="5.84989">
        <ele>1986.7</ele>
        <time>2020-07-16T11:18:52Z</time>
      </trkpt>
      <trkpt lat="44.98793" lon="5.8498">
        <ele>1989.59</ele>
        <time>2020-07-16T11:19:07Z</time>
      </trkpt>
      <trkpt lat="44.98798" lon="5.84975">
        <ele>1991.03</ele>
        <time>2020-07-16T11:19:15Z</time>
      </trkpt>
      <trkpt lat="44.98805" lon="5.84969">
        <ele>1992.47</ele>
        <time>2020-07-16T11:19:25Z</time>
      </trkpt>
      <trkpt lat="44.98815" lon="5.84961">
        <ele>1993.91</ele>
        <time>2020-07-16T11:19:38Z</time>
      </trkpt>
      <trkpt lat="44.9883" lon="5.84958">
        <ele>1995.83</ele>
        <time>2020-07-16T11:19:53Z</time>
      </trkpt>
      <trkpt lat="44.98844" lon="5.84957">
        <ele>1996.32</ele>
        <time>2020-07-16T11:20:09Z</time>
      </trkpt>
      <trkpt lat="44.98854" lon="5.84955">
        <ele>1992.95</ele>
        <time>2020-07-16T11:20:19Z</time>
      </trkpt>
      <trkpt lat="44.98855" lon="5.84955">
        <ele>1992.95</ele>
        <time>2020-07-16T11:20:20Z</time>
      </trkpt>
      <trkpt lat="44.98864" lon="5.84954">
        <ele>1996.32</ele>
        <time>2020-07-16T11:20:34Z</time>
      </trkpt>
      <trkpt lat="44.98869" lon="5.84957">
        <ele>1996.8</ele>
        <time>2020-07-16T11:20:48Z</time>
      </trkpt>
      <trkpt lat="44.98869" lon="5.84955">
        <ele>1996.8</ele>
        <time>2020-07-16T11:21:20Z</time>
      </trkpt>
      <trkpt lat="44.98868" lon="5.84955">
        <ele>1997.28</ele>
        <time>2020-07-16T11:21:40Z</time>
      </trkpt>
      <trkpt lat="44.98868" lon="5.84956">
        <ele>1995.83</ele>
        <time>2020-07-16T11:22:00Z</time>
      </trkpt>
      <trkpt lat="44.98868" lon="5.84955">
        <ele>1997.28</ele>
        <time>2020-07-16T11:22:25Z</time>
      </trkpt>
      <trkpt lat="44.98869" lon="5.84955">
        <ele>1994.39</ele>
        <time>2020-07-16T11:22:48Z</time>
      </trkpt>
      <trkpt lat="44.98869" lon="5.84955">
        <ele>1990.55</ele>
        <time>2020-07-16T11:22:53Z</time>
      </trkpt>
      <trkpt lat="44.98869" lon="5.84955">
        <ele>1994.39</ele>
        <time>2020-07-16T11:22:58Z</time>
      </trkpt>
      <trkpt lat="44.9887" lon="5.84955">
        <ele>1998.72</ele>
        <time>2020-07-16T11:23:09Z</time>
      </trkpt>
      <trkpt lat="44.9887" lon="5.84955">
        <ele>2003.04</ele>
        <time>2020-07-16T11:23:11Z</time>
      </trkpt>
      <trkpt lat="44.9887" lon="5.84955">
        <ele>2004.01</ele>
        <time>2020-07-16T11:23:13Z</time>
      </trkpt>
      <trkpt lat="44.9887" lon="5.84955">
        <ele>2000.64</ele>
        <time>2020-07-16T11:23:19Z</time>
      </trkpt>
      <trkpt lat="44.9887" lon="5.84955">
        <ele>2000.64</ele>
        <time>2020-07-16T11:23:20Z</time>
      </trkpt>
      <trkpt lat="44.98869" lon="5.84955">
        <ele>1997.76</ele>
        <time>2020-07-16T11:23:43Z</time>
      </trkpt>
      <trkpt lat="44.98869" lon="5.84956">
        <ele>1997.76</ele>
        <time>2020-07-16T11:24:11Z</time>
      </trkpt>
      <trkpt lat="44.98868" lon="5.84955">
        <ele>1997.76</ele>
        <time>2020-07-16T11:24:38Z</time>
      </trkpt>
      <trkpt lat="44.98869" lon="5.84955">
        <ele>1997.76</ele>
        <time>2020-07-16T11:25:03Z</time>
      </trkpt>
      <trkpt lat="44.98868" lon="5.84956">
        <ele>1997.76</ele>
        <time>2020-07-16T11:25:27Z</time>
      </trkpt>
      <trkpt lat="44.98869" lon="5.84956">
        <ele>1997.76</ele>
        <time>2020-07-16T11:25:45Z</time>
      </trkpt>
      <trkpt lat="44.98868" lon="5.84958">
        <ele>1997.76</ele>
        <time>2020-07-16T11:26:09Z</time>
      </trkpt>
      <trkpt lat="44.98869" lon="5.84957">
        <ele>1997.76</ele>
        <time>2020-07-16T11:26:37Z</time>
      </trkpt>
      <trkpt lat="44.98869" lon="5.84956">
        <ele>1996.32</ele>
        <time>2020-07-16T11:26:43Z</time>
      </trkpt>
      <trkpt lat="44.98869" lon="5.8495">
        <ele>1997.28</ele>
        <time>2020-07-16T11:27:00Z</time>
      </trkpt>
      <trkpt lat="44.98871" lon="5.84946">
        <ele>1997.28</ele>
        <time>2020-07-16T11:27:13Z</time>
      </trkpt>
      <trkpt lat="44.98879" lon="5.84939">
        <ele>1997.76</ele>
        <time>2020-07-16T11:27:28Z</time>
      </trkpt>
      <trkpt lat="44.98881" lon="5.84932">
        <ele>2001.12</ele>
        <time>2020-07-16T11:27:42Z</time>
      </trkpt>
      <trkpt lat="44.98883" lon="5.84925">
        <ele>2004.01</ele>
        <time>2020-07-16T11:27:57Z</time>
      </trkpt>
      <trkpt lat="44.98886" lon="5.84918">
        <ele>2006.89</ele>
        <time>2020-07-16T11:28:12Z</time>
      </trkpt>
      <trkpt lat="44.98886" lon="5.84913">
        <ele>2010.25</ele>
        <time>2020-07-16T11:28:24Z</time>
      </trkpt>
      <trkpt lat="44.98888" lon="5.84905">
        <ele>2013.14</ele>
        <time>2020-07-16T11:28:39Z</time>
      </trkpt>
      <trkpt lat="44.98891" lon="5.84897">
        <ele>2016.02</ele>
        <time>2020-07-16T11:28:56Z</time>
      </trkpt>
      <trkpt lat="44.98894" lon="5.84891">
        <ele>2019.39</ele>
        <time>2020-07-16T11:29:12Z</time>
      </trkpt>
      <trkpt lat="44.98897" lon="5.84884">
        <ele>2021.31</ele>
        <time>2020-07-16T11:29:28Z</time>
      </trkpt>
      <trkpt lat="44.98901" lon="5.84877">
        <ele>2024.19</ele>
        <time>2020-07-16T11:29:45Z</time>
      </trkpt>
      <trkpt lat="44.98902" lon="5.8487">
        <ele>2027.08</ele>
        <time>2020-07-16T11:29:59Z</time>
      </trkpt>
      <trkpt lat="44.98906" lon="5.84864">
        <ele>2030.44</ele>
        <time>2020-07-16T11:30:10Z</time>
      </trkpt>
      <trkpt lat="44.98911" lon="5.84859">
        <ele>2033.33</ele>
        <time>2020-07-16T11:30:25Z</time>
      </trkpt>
      <trkpt lat="44.98913" lon="5.84853">
        <ele>2036.21</ele>
        <time>2020-07-16T11:30:39Z</time>
      </trkpt>
      <trkpt lat="44.98918" lon="5.84845">
        <ele>2039.09</ele>
        <time>2020-07-16T11:30:55Z</time>
      </trkpt>
      <trkpt lat="44.98923" lon="5.84836">
        <ele>2041.98</ele>
        <time>2020-07-16T11:31:10Z</time>
      </trkpt>
      <trkpt lat="44.98927" lon="5.8483">
        <ele>2043.9</ele>
        <time>2020-07-16T11:31:22Z</time>
      </trkpt>
      <trkpt lat="44.98931" lon="5.84822">
        <ele>2046.78</ele>
        <time>2020-07-16T11:31:36Z</time>
      </trkpt>
      <trkpt lat="44.98934" lon="5.84814">
        <ele>2049.67</ele>
        <time>2020-07-16T11:31:52Z</time>
      </trkpt>
      <trkpt lat="44.9894" lon="5.84807">
        <ele>2052.55</ele>
        <time>2020-07-16T11:32:06Z</time>
      </trkpt>
      <trkpt lat="44.98944" lon="5.84798">
        <ele>2055.44</ele>
        <time>2020-07-16T11:32:21Z</time>
      </trkpt>
      <trkpt lat="44.98949" lon="5.8479">
        <ele>2058.32</ele>
        <time>2020-07-16T11:32:37Z</time>
      </trkpt>
      <trkpt lat="44.9895" lon="5.84782">
        <ele>2061.2</ele>
        <time>2020-07-16T11:32:50Z</time>
      </trkpt>
      <trkpt lat="44.98952" lon="5.84773">
        <ele>2064.57</ele>
        <time>2020-07-16T11:33:05Z</time>
      </trkpt>
      <trkpt lat="44.98955" lon="5.84767">
        <ele>2067.45</ele>
        <time>2020-07-16T11:33:17Z</time>
      </trkpt>
      <trkpt lat="44.98959" lon="5.8476">
        <ele>2069.86</ele>
        <time>2020-07-16T11:33:31Z</time>
      </trkpt>
      <trkpt lat="44.98963" lon="5.84753">
        <ele>2072.74</ele>
        <time>2020-07-16T11:33:46Z</time>
      </trkpt>
      <trkpt lat="44.98968" lon="5.84746">
        <ele>2075.62</ele>
        <time>2020-07-16T11:34:01Z</time>
      </trkpt>
      <trkpt lat="44.98971" lon="5.8474">
        <ele>2078.51</ele>
        <time>2020-07-16T11:34:14Z</time>
      </trkpt>
      <trkpt lat="44.98975" lon="5.84733">
        <ele>2081.39</ele>
        <time>2020-07-16T11:34:29Z</time>
      </trkpt>
      <trkpt lat="44.98979" lon="5.84726">
        <ele>2084.76</ele>
        <time>2020-07-16T11:34:44Z</time>
      </trkpt>
      <trkpt lat="44.98982" lon="5.84719">
        <ele>2087.64</ele>
        <time>2020-07-16T11:34:57Z</time>
      </trkpt>
      <trkpt lat="44.98986" lon="5.84712">
        <ele>2091</ele>
        <time>2020-07-16T11:35:13Z</time>
      </trkpt>
      <trkpt lat="44.98991" lon="5.84706">
        <ele>2093.89</ele>
        <time>2020-07-16T11:35:27Z</time>
      </trkpt>
      <trkpt lat="44.98997" lon="5.84699">
        <ele>2096.77</ele>
        <time>2020-07-16T11:35:40Z</time>
      </trkpt>
      <trkpt lat="44.99" lon="5.84694">
        <ele>2100.14</ele>
        <time>2020-07-16T11:35:55Z</time>
      </trkpt>
      <trkpt lat="44.99005" lon="5.84687">
        <ele>2103.02</ele>
        <time>2020-07-16T11:36:10Z</time>
      </trkpt>
      <trkpt lat="44.99008" lon="5.8468">
        <ele>2105.91</ele>
        <time>2020-07-16T11:36:27Z</time>
      </trkpt>
      <trkpt lat="44.99012" lon="5.84675">
        <ele>2109.27</ele>
        <time>2020-07-16T11:36:39Z</time>
      </trkpt>
      <trkpt lat="44.99014" lon="5.84668">
        <ele>2112.63</ele>
        <time>2020-07-16T11:36:54Z</time>
      </trkpt>
      <trkpt lat="44.99018" lon="5.84663">
        <ele>2115.04</ele>
        <time>2020-07-16T11:37:08Z</time>
      </trkpt>
      <trkpt lat="44.99023" lon="5.84655">
        <ele>2117.92</ele>
        <time>2020-07-16T11:37:23Z</time>
      </trkpt>
      <trkpt lat="44.99028" lon="5.84648">
        <ele>2120.81</ele>
        <time>2020-07-16T11:37:36Z</time>
      </trkpt>
      <trkpt lat="44.99032" lon="5.84641">
        <ele>2123.69</ele>
        <time>2020-07-16T11:37:50Z</time>
      </trkpt>
      <trkpt lat="44.99036" lon="5.84634">
        <ele>2126.57</ele>
        <time>2020-07-16T11:38:05Z</time>
      </trkpt>
      <trkpt lat="44.99039" lon="5.84627">
        <ele>2129.94</ele>
        <time>2020-07-16T11:38:20Z</time>
      </trkpt>
      <trkpt lat="44.99043" lon="5.84621">
        <ele>2132.82</ele>
        <time>2020-07-16T11:38:34Z</time>
      </trkpt>
      <trkpt lat="44.99049" lon="5.84614">
        <ele>2136.19</ele>
        <time>2020-07-16T11:38:48Z</time>
      </trkpt>
      <trkpt lat="44.99053" lon="5.84607">
        <ele>2138.59</ele>
        <time>2020-07-16T11:39:01Z</time>
      </trkpt>
      <trkpt lat="44.99061" lon="5.84597">
        <ele>2141.95</ele>
        <time>2020-07-16T11:39:19Z</time>
      </trkpt>
      <trkpt lat="44.99068" lon="5.84584">
        <ele>2144.84</ele>
        <time>2020-07-16T11:39:33Z</time>
      </trkpt>
      <trkpt lat="44.9907" lon="5.84581">
        <ele>2144.84</ele>
        <time>2020-07-16T11:39:36Z</time>
      </trkpt>
      <trkpt lat="44.99071" lon="5.84581">
        <ele>2145.32</ele>
        <time>2020-07-16T11:39:37Z</time>
      </trkpt>
      <trkpt lat="44.99079" lon="5.84571">
        <ele>2146.76</ele>
        <time>2020-07-16T11:39:51Z</time>
      </trkpt>
      <trkpt lat="44.99088" lon="5.84562">
        <ele>2149.65</ele>
        <time>2020-07-16T11:40:07Z</time>
      </trkpt>
      <trkpt lat="44.99091" lon="5.84556">
        <ele>2151.57</ele>
        <time>2020-07-16T11:40:23Z</time>
      </trkpt>
      <trkpt lat="44.99093" lon="5.84557">
        <ele>2151.57</ele>
        <time>2020-07-16T11:40:40Z</time>
      </trkpt>
      <trkpt lat="44.99093" lon="5.84557">
        <ele>2147.72</ele>
        <time>2020-07-16T11:40:45Z</time>
      </trkpt>
      <trkpt lat="44.99093" lon="5.84556">
        <ele>2144.84</ele>
        <time>2020-07-16T11:40:48Z</time>
      </trkpt>
      <trkpt lat="44.99093" lon="5.84556">
        <ele>2148.2</ele>
        <time>2020-07-16T11:40:50Z</time>
      </trkpt>
      <trkpt lat="44.99093" lon="5.84556">
        <ele>2151.57</ele>
        <time>2020-07-16T11:40:51Z</time>
      </trkpt>
      <trkpt lat="44.99093" lon="5.84556">
        <ele>2154.45</ele>
        <time>2020-07-16T11:40:53Z</time>
      </trkpt>
      <trkpt lat="44.99093" lon="5.84556">
        <ele>2150.61</ele>
        <time>2020-07-16T11:41:09Z</time>
      </trkpt>
      <trkpt lat="44.99093" lon="5.84556">
        <ele>2147.24</ele>
        <time>2020-07-16T11:41:12Z</time>
      </trkpt>
      <trkpt lat="44.99094" lon="5.84557">
        <ele>2151.57</ele>
        <time>2020-07-16T11:41:18Z</time>
      </trkpt>
      <trkpt lat="44.99094" lon="5.84557">
        <ele>2154.45</ele>
        <time>2020-07-16T11:41:21Z</time>
      </trkpt>
      <trkpt lat="44.99094" lon="5.84557">
        <ele>2151.57</ele>
        <time>2020-07-16T11:41:49Z</time>
      </trkpt>
      <trkpt lat="44.99094" lon="5.84556">
        <ele>2151.57</ele>
        <time>2020-07-16T11:42:09Z</time>
      </trkpt>
      <trkpt lat="44.99094" lon="5.84556">
        <ele>2153.01</ele>
        <time>2020-07-16T11:42:29Z</time>
      </trkpt>
      <trkpt lat="44.99094" lon="5.84555">
        <ele>2152.05</ele>
        <time>2020-07-16T11:43:07Z</time>
      </trkpt>
      <trkpt lat="44.99094" lon="5.84556">
        <ele>2152.53</ele>
        <time>2020-07-16T11:43:37Z</time>
      </trkpt>
      <trkpt lat="44.99094" lon="5.84557">
        <ele>2152.53</ele>
        <time>2020-07-16T11:43:50Z</time>
      </trkpt>
      <trkpt lat="44.99094" lon="5.84558">
        <ele>2152.53</ele>
        <time>2020-07-16T11:44:29Z</time>
      </trkpt>
      <trkpt lat="44.99093" lon="5.84558">
        <ele>2152.53</ele>
        <time>2020-07-16T11:45:07Z</time>
      </trkpt>
      <trkpt lat="44.99093" lon="5.84559">
        <ele>2152.53</ele>
        <time>2020-07-16T11:45:39Z</time>
      </trkpt>
      <trkpt lat="44.99093" lon="5.84558">
        <ele>2152.53</ele>
        <time>2020-07-16T11:46:23Z</time>
      </trkpt>
      <trkpt lat="44.99095" lon="5.84559">
        <ele>2152.53</ele>
        <time>2020-07-16T11:47:09Z</time>
      </trkpt>
      <trkpt lat="44.99093" lon="5.84559">
        <ele>2152.53</ele>
        <time>2020-07-16T11:47:46Z</time>
      </trkpt>
      <trkpt lat="44.99093" lon="5.84558">
        <ele>2152.53</ele>
        <time>2020-07-16T11:48:28Z</time>
      </trkpt>
      <trkpt lat="44.99093" lon="5.84559">
        <ele>2152.53</ele>
        <time>2020-07-16T11:49:15Z</time>
      </trkpt>
      <trkpt lat="44.99094" lon="5.84559">
        <ele>2152.53</ele>
        <time>2020-07-16T11:49:38Z</time>
      </trkpt>
      <trkpt lat="44.99095" lon="5.84558">
        <ele>2152.53</ele>
        <time>2020-07-16T11:49:56Z</time>
      </trkpt>
      <trkpt lat="44.99095" lon="5.84558">
        <ele>2152.53</ele>
        <time>2020-07-16T11:50:39Z</time>
      </trkpt>
      <trkpt lat="44.99097" lon="5.84557">
        <ele>2152.53</ele>
        <time>2020-07-16T11:51:05Z</time>
      </trkpt>
      <trkpt lat="44.99098" lon="5.84558">
        <ele>2152.53</ele>
        <time>2020-07-16T11:51:22Z</time>
      </trkpt>
      <trkpt lat="44.99101" lon="5.84558">
        <ele>2152.53</ele>
        <time>2020-07-16T11:51:24Z</time>
      </trkpt>
      <trkpt lat="44.99102" lon="5.84558">
        <ele>2152.53</ele>
        <time>2020-07-16T11:51:25Z</time>
      </trkpt>
      <trkpt lat="44.99103" lon="5.84558">
        <ele>2152.53</ele>
        <time>2020-07-16T11:51:26Z</time>
      </trkpt>
      <trkpt lat="44.99106" lon="5.84558">
        <ele>2152.53</ele>
        <time>2020-07-16T11:51:30Z</time>
      </trkpt>
      <trkpt lat="44.99119" lon="5.84558">
        <ele>2150.61</ele>
        <time>2020-07-16T11:51:47Z</time>
      </trkpt>
      <trkpt lat="44.9913" lon="5.84561">
        <ele>2147.24</ele>
        <time>2020-07-16T11:52:01Z</time>
      </trkpt>
      <trkpt lat="44.99138" lon="5.84559">
        <ele>2144.36</ele>
        <time>2020-07-16T11:52:13Z</time>
      </trkpt>
      <trkpt lat="44.99145" lon="5.84565">
        <ele>2140.99</ele>
        <time>2020-07-16T11:52:26Z</time>
      </trkpt>
      <trkpt lat="44.99148" lon="5.84571">
        <ele>2138.11</ele>
        <time>2020-07-16T11:52:34Z</time>
      </trkpt>
      <trkpt lat="44.99151" lon="5.84573">
        <ele>2136.67</ele>
        <time>2020-07-16T11:52:38Z</time>
      </trkpt>
      <trkpt lat="44.99159" lon="5.84575">
        <ele>2132.82</ele>
        <time>2020-07-16T11:52:48Z</time>
      </trkpt>
      <trkpt lat="44.99162" lon="5.84577">
        <ele>2131.38</ele>
        <time>2020-07-16T11:52:52Z</time>
      </trkpt>
      <trkpt lat="44.99176" lon="5.84575">
        <ele>2128.02</ele>
        <time>2020-07-16T11:53:07Z</time>
      </trkpt>
      <trkpt lat="44.99179" lon="5.84574">
        <ele>2125.13</ele>
        <time>2020-07-16T11:53:12Z</time>
      </trkpt>
      <trkpt lat="44.99181" lon="5.84574">
        <ele>2125.61</ele>
        <time>2020-07-16T11:53:18Z</time>
      </trkpt>
      <trkpt lat="44.99186" lon="5.84575">
        <ele>2124.65</ele>
        <time>2020-07-16T11:53:26Z</time>
      </trkpt>
      <trkpt lat="44.99193" lon="5.84576">
        <ele>2121.77</ele>
        <time>2020-07-16T11:53:35Z</time>
      </trkpt>
      <trkpt lat="44.99203" lon="5.84575">
        <ele>2118.4</ele>
        <time>2020-07-16T11:53:46Z</time>
      </trkpt>
      <trkpt lat="44.99208" lon="5.84577">
        <ele>2117.44</ele>
        <time>2020-07-16T11:53:50Z</time>
      </trkpt>
      <trkpt lat="44.99222" lon="5.84573">
        <ele>2114.08</ele>
        <time>2020-07-16T11:54:05Z</time>
      </trkpt>
      <trkpt lat="44.99225" lon="5.84571">
        <ele>2112.15</ele>
        <time>2020-07-16T11:54:10Z</time>
      </trkpt>
      <trkpt lat="44.99227" lon="5.84568">
        <ele>2113.12</ele>
        <time>2020-07-16T11:54:15Z</time>
      </trkpt>
      <trkpt lat="44.99231" lon="5.84566">
        <ele>2111.19</ele>
        <time>2020-07-16T11:54:26Z</time>
      </trkpt>
      <trkpt lat="44.99225" lon="5.84565">
        <ele>2111.67</ele>
        <time>2020-07-16T11:54:41Z</time>
      </trkpt>
      <trkpt lat="44.99224" lon="5.84566">
        <ele>2114.08</ele>
        <time>2020-07-16T11:54:57Z</time>
      </trkpt>
      <trkpt lat="44.99222" lon="5.84568">
        <ele>2114.56</ele>
        <time>2020-07-16T11:55:11Z</time>
      </trkpt>
      <trkpt lat="44.99222" lon="5.8457">
        <ele>2115.04</ele>
        <time>2020-07-16T11:55:23Z</time>
      </trkpt>
      <trkpt lat="44.9922" lon="5.84572">
        <ele>2114.08</ele>
        <time>2020-07-16T11:55:37Z</time>
      </trkpt>
      <trkpt lat="44.9922" lon="5.84572">
        <ele>2113.6</ele>
        <time>2020-07-16T11:55:52Z</time>
      </trkpt>
      <trkpt lat="44.99211" lon="5.84574">
        <ele>2112.63</ele>
        <time>2020-07-16T11:56:06Z</time>
      </trkpt>
      <trkpt lat="44.99208" lon="5.84574">
        <ele>2115.04</ele>
        <time>2020-07-16T11:56:10Z</time>
      </trkpt>
      <trkpt lat="44.99198" lon="5.84573">
        <ele>2115.52</ele>
        <time>2020-07-16T11:56:24Z</time>
      </trkpt>
      <trkpt lat="44.99187" lon="5.84575">
        <ele>2116</ele>
        <time>2020-07-16T11:56:41Z</time>
      </trkpt>
      <trkpt lat="44.99184" lon="5.84574">
        <ele>2119.36</ele>
        <time>2020-07-16T11:56:46Z</time>
      </trkpt>
      <trkpt lat="44.99183" lon="5.84574">
        <ele>2119.84</ele>
        <time>2020-07-16T11:56:47Z</time>
      </trkpt>
      <trkpt lat="44.99176" lon="5.84574">
        <ele>2122.25</ele>
        <time>2020-07-16T11:57:01Z</time>
      </trkpt>
      <trkpt lat="44.99165" lon="5.84577">
        <ele>2124.17</ele>
        <time>2020-07-16T11:57:16Z</time>
      </trkpt>
      <trkpt lat="44.99162" lon="5.84578">
        <ele>2122.73</ele>
        <time>2020-07-16T11:57:19Z</time>
      </trkpt>
      <trkpt lat="44.99159" lon="5.84577">
        <ele>2126.57</ele>
        <time>2020-07-16T11:57:24Z</time>
      </trkpt>
      <trkpt lat="44.99153" lon="5.84577">
        <ele>2128.02</ele>
        <time>2020-07-16T11:57:36Z</time>
      </trkpt>
      <trkpt lat="44.99145" lon="5.84575">
        <ele>2130.42</ele>
        <time>2020-07-16T11:57:50Z</time>
      </trkpt>
      <trkpt lat="44.9914" lon="5.84572">
        <ele>2133.3</ele>
        <time>2020-07-16T11:58:05Z</time>
      </trkpt>
      <trkpt lat="44.99136" lon="5.84568">
        <ele>2135.23</ele>
        <time>2020-07-16T11:58:19Z</time>
      </trkpt>
      <trkpt lat="44.99133" lon="5.84567">
        <ele>2137.15</ele>
        <time>2020-07-16T11:58:30Z</time>
      </trkpt>
      <trkpt lat="44.99131" lon="5.84562">
        <ele>2139.07</ele>
        <time>2020-07-16T11:58:43Z</time>
      </trkpt>
      <trkpt lat="44.99124" lon="5.84557">
        <ele>2142.44</ele>
        <time>2020-07-16T11:58:57Z</time>
      </trkpt>
      <trkpt lat="44.99117" lon="5.84556">
        <ele>2144.84</ele>
        <time>2020-07-16T11:59:11Z</time>
      </trkpt>
      <trkpt lat="44.99108" lon="5.84557">
        <ele>2146.28</ele>
        <time>2020-07-16T11:59:25Z</time>
      </trkpt>
      <trkpt lat="44.99099" lon="5.84557">
        <ele>2149.16</ele>
        <time>2020-07-16T11:59:41Z</time>
      </trkpt>
      <trkpt lat="44.99093" lon="5.84557">
        <ele>2150.61</ele>
        <time>2020-07-16T11:59:56Z</time>
      </trkpt>
      <trkpt lat="44.99093" lon="5.84557">
        <ele>2153.97</ele>
        <time>2020-07-16T11:59:59Z</time>
      </trkpt>
      <trkpt lat="44.9909" lon="5.8456">
        <ele>2153.01</ele>
        <time>2020-07-16T12:00:14Z</time>
      </trkpt>
      <trkpt lat="44.99091" lon="5.8456">
        <ele>2152.05</ele>
        <time>2020-07-16T12:00:29Z</time>
      </trkpt>
      <trkpt lat="44.99092" lon="5.8456">
        <ele>2153.01</ele>
        <time>2020-07-16T12:00:46Z</time>
      </trkpt>
      <trkpt lat="44.99091" lon="5.84559">
        <ele>2153.01</ele>
        <time>2020-07-16T12:01:07Z</time>
      </trkpt>
      <trkpt lat="44.99088" lon="5.84564">
        <ele>2153.01</ele>
        <time>2020-07-16T12:01:26Z</time>
      </trkpt>
      <trkpt lat="44.99086" lon="5.84565">
        <ele>2151.57</ele>
        <time>2020-07-16T12:01:40Z</time>
      </trkpt>
      <trkpt lat="44.99084" lon="5.84568">
        <ele>2150.61</ele>
        <time>2020-07-16T12:01:52Z</time>
      </trkpt>
      <trkpt lat="44.99079" lon="5.84573">
        <ele>2149.65</ele>
        <time>2020-07-16T12:02:07Z</time>
      </trkpt>
      <trkpt lat="44.99074" lon="5.84579">
        <ele>2148.2</ele>
        <time>2020-07-16T12:02:20Z</time>
      </trkpt>
      <trkpt lat="44.99072" lon="5.84581">
        <ele>2148.2</ele>
        <time>2020-07-16T12:02:22Z</time>
      </trkpt>
      <trkpt lat="44.99069" lon="5.84585">
        <ele>2147.24</ele>
        <time>2020-07-16T12:02:36Z</time>
      </trkpt>
      <trkpt lat="44.99065" lon="5.84593">
        <ele>2148.2</ele>
        <time>2020-07-16T12:02:58Z</time>
      </trkpt>
      <trkpt lat="44.99056" lon="5.84603">
        <ele>2146.28</ele>
        <time>2020-07-16T12:03:12Z</time>
      </trkpt>
      <trkpt lat="44.9905" lon="5.84611">
        <ele>2143.4</ele>
        <time>2020-07-16T12:03:23Z</time>
      </trkpt>
      <trkpt lat="44.99045" lon="5.84619">
        <ele>2140.03</ele>
        <time>2020-07-16T12:03:35Z</time>
      </trkpt>
      <trkpt lat="44.99041" lon="5.84625">
        <ele>2136.67</ele>
        <time>2020-07-16T12:03:48Z</time>
      </trkpt>
      <trkpt lat="44.99039" lon="5.84628">
        <ele>2133.78</ele>
        <time>2020-07-16T12:04:03Z</time>
      </trkpt>
      <trkpt lat="44.99035" lon="5.84636">
        <ele>2132.82</ele>
        <time>2020-07-16T12:04:20Z</time>
      </trkpt>
      <trkpt lat="44.99032" lon="5.84644">
        <ele>2129.46</ele>
        <time>2020-07-16T12:04:32Z</time>
      </trkpt>
      <trkpt lat="44.99027" lon="5.8465">
        <ele>2126.57</ele>
        <time>2020-07-16T12:04:42Z</time>
      </trkpt>
      <trkpt lat="44.99026" lon="5.84651">
        <ele>2125.61</ele>
        <time>2020-07-16T12:04:44Z</time>
      </trkpt>
      <trkpt lat="44.99024" lon="5.84656">
        <ele>2124.65</ele>
        <time>2020-07-16T12:04:49Z</time>
      </trkpt>
      <trkpt lat="44.99019" lon="5.84663">
        <ele>2121.77</ele>
        <time>2020-07-16T12:05:00Z</time>
      </trkpt>
      <trkpt lat="44.99015" lon="5.84669">
        <ele>2118.4</ele>
        <time>2020-07-16T12:05:10Z</time>
      </trkpt>
      <trkpt lat="44.99011" lon="5.84677">
        <ele>2115.52</ele>
        <time>2020-07-16T12:05:21Z</time>
      </trkpt>
      <trkpt lat="44.9901" lon="5.84682">
        <ele>2112.63</ele>
        <time>2020-07-16T12:05:30Z</time>
      </trkpt>
      <trkpt lat="44.99004" lon="5.84689">
        <ele>2109.27</ele>
        <time>2020-07-16T12:05:41Z</time>
      </trkpt>
      <trkpt lat="44.99001" lon="5.84696">
        <ele>2106.39</ele>
        <time>2020-07-16T12:05:53Z</time>
      </trkpt>
      <trkpt lat="44.98994" lon="5.84704">
        <ele>2103.02</ele>
        <time>2020-07-16T12:06:05Z</time>
      </trkpt>
      <trkpt lat="44.98988" lon="5.84711">
        <ele>2099.66</ele>
        <time>2020-07-16T12:06:17Z</time>
      </trkpt>
      <trkpt lat="44.98983" lon="5.84718">
        <ele>2096.77</ele>
        <time>2020-07-16T12:06:27Z</time>
      </trkpt>
      <trkpt lat="44.98979" lon="5.84725">
        <ele>2093.41</ele>
        <time>2020-07-16T12:06:37Z</time>
      </trkpt>
      <trkpt lat="44.98976" lon="5.84731">
        <ele>2090.04</ele>
        <time>2020-07-16T12:06:48Z</time>
      </trkpt>
      <trkpt lat="44.98972" lon="5.84737">
        <ele>2087.16</ele>
        <time>2020-07-16T12:06:58Z</time>
      </trkpt>
      <trkpt lat="44.98968" lon="5.84745">
        <ele>2083.79</ele>
        <time>2020-07-16T12:07:10Z</time>
      </trkpt>
      <trkpt lat="44.98964" lon="5.84751">
        <ele>2080.91</ele>
        <time>2020-07-16T12:07:22Z</time>
      </trkpt>
      <trkpt lat="44.98961" lon="5.84759">
        <ele>2078.03</ele>
        <time>2020-07-16T12:07:34Z</time>
      </trkpt>
      <trkpt lat="44.98957" lon="5.84769">
        <ele>2074.66</ele>
        <time>2020-07-16T12:07:47Z</time>
      </trkpt>
      <trkpt lat="44.98955" lon="5.84776">
        <ele>2071.78</ele>
        <time>2020-07-16T12:07:56Z</time>
      </trkpt>
      <trkpt lat="44.98952" lon="5.84783">
        <ele>2068.41</ele>
        <time>2020-07-16T12:08:07Z</time>
      </trkpt>
      <trkpt lat="44.9895" lon="5.84795">
        <ele>2065.53</ele>
        <time>2020-07-16T12:08:21Z</time>
      </trkpt>
      <trkpt lat="44.98944" lon="5.84803">
        <ele>2062.17</ele>
        <time>2020-07-16T12:08:31Z</time>
      </trkpt>
      <trkpt lat="44.98938" lon="5.84811">
        <ele>2059.28</ele>
        <time>2020-07-16T12:08:42Z</time>
      </trkpt>
      <trkpt lat="44.98936" lon="5.84815">
        <ele>2057.36</ele>
        <time>2020-07-16T12:08:47Z</time>
      </trkpt>
      <trkpt lat="44.98932" lon="5.84821">
        <ele>2053.99</ele>
        <time>2020-07-16T12:08:59Z</time>
      </trkpt>
      <trkpt lat="44.98929" lon="5.84831">
        <ele>2050.63</ele>
        <time>2020-07-16T12:09:13Z</time>
      </trkpt>
      <trkpt lat="44.98923" lon="5.84839">
        <ele>2047.75</ele>
        <time>2020-07-16T12:09:25Z</time>
      </trkpt>
      <trkpt lat="44.98918" lon="5.84848">
        <ele>2044.86</ele>
        <time>2020-07-16T12:09:37Z</time>
      </trkpt>
      <trkpt lat="44.98914" lon="5.84855">
        <ele>2041.5</ele>
        <time>2020-07-16T12:09:54Z</time>
      </trkpt>
      <trkpt lat="44.98913" lon="5.84858">
        <ele>2039.09</ele>
        <time>2020-07-16T12:10:08Z</time>
      </trkpt>
      <trkpt lat="44.98908" lon="5.84863">
        <ele>2035.73</ele>
        <time>2020-07-16T12:10:24Z</time>
      </trkpt>
      <trkpt lat="44.98906" lon="5.84869">
        <ele>2032.84</ele>
        <time>2020-07-16T12:10:35Z</time>
      </trkpt>
      <trkpt lat="44.98902" lon="5.84876">
        <ele>2029.48</ele>
        <time>2020-07-16T12:10:47Z</time>
      </trkpt>
      <trkpt lat="44.98895" lon="5.84883">
        <ele>2026.6</ele>
        <time>2020-07-16T12:11:00Z</time>
      </trkpt>
      <trkpt lat="44.98893" lon="5.8489">
        <ele>2023.23</ele>
        <time>2020-07-16T12:11:13Z</time>
      </trkpt>
      <trkpt lat="44.98893" lon="5.84895">
        <ele>2020.35</ele>
        <time>2020-07-16T12:11:22Z</time>
      </trkpt>
      <trkpt lat="44.9889" lon="5.84901">
        <ele>2017.94</ele>
        <time>2020-07-16T12:11:38Z</time>
      </trkpt>
      <trkpt lat="44.98886" lon="5.84908">
        <ele>2016.02</ele>
        <time>2020-07-16T12:11:51Z</time>
      </trkpt>
      <trkpt lat="44.98885" lon="5.84917">
        <ele>2012.66</ele>
        <time>2020-07-16T12:12:07Z</time>
      </trkpt>
      <trkpt lat="44.98879" lon="5.84925">
        <ele>2009.77</ele>
        <time>2020-07-16T12:12:21Z</time>
      </trkpt>
      <trkpt lat="44.98882" lon="5.84931">
        <ele>2006.41</ele>
        <time>2020-07-16T12:12:29Z</time>
      </trkpt>
      <trkpt lat="44.98881" lon="5.84938">
        <ele>2004.01</ele>
        <time>2020-07-16T12:12:43Z</time>
      </trkpt>
      <trkpt lat="44.9888" lon="5.84944">
        <ele>2001.6</ele>
        <time>2020-07-16T12:12:55Z</time>
      </trkpt>
      <trkpt lat="44.98876" lon="5.84952">
        <ele>1999.2</ele>
        <time>2020-07-16T12:13:10Z</time>
      </trkpt>
      <trkpt lat="44.98876" lon="5.84956">
        <ele>1998.24</ele>
        <time>2020-07-16T12:13:30Z</time>
      </trkpt>
      <trkpt lat="44.98884" lon="5.84962">
        <ele>1996.32</ele>
        <time>2020-07-16T12:13:44Z</time>
      </trkpt>
      <trkpt lat="44.98888" lon="5.84966">
        <ele>1994.87</ele>
        <time>2020-07-16T12:13:51Z</time>
      </trkpt>
      <trkpt lat="44.98893" lon="5.84971">
        <ele>1991.03</ele>
        <time>2020-07-16T12:13:59Z</time>
      </trkpt>
      <trkpt lat="44.98895" lon="5.84972">
        <ele>1989.1</ele>
        <time>2020-07-16T12:14:02Z</time>
      </trkpt>
      <trkpt lat="44.98903" lon="5.84979">
        <ele>1989.59</ele>
        <time>2020-07-16T12:14:15Z</time>
      </trkpt>
      <trkpt lat="44.9891" lon="5.84984">
        <ele>1986.22</ele>
        <time>2020-07-16T12:14:23Z</time>
      </trkpt>
      <trkpt lat="44.98912" lon="5.84985">
        <ele>1985.26</ele>
        <time>2020-07-16T12:14:25Z</time>
      </trkpt>
      <trkpt lat="44.98918" lon="5.84985">
        <ele>1982.38</ele>
        <time>2020-07-16T12:14:33Z</time>
      </trkpt>
      <trkpt lat="44.98919" lon="5.84985">
        <ele>1981.41</ele>
        <time>2020-07-16T12:14:35Z</time>
      </trkpt>
      <trkpt lat="44.9892" lon="5.84985">
        <ele>1980.93</ele>
        <time>2020-07-16T12:14:36Z</time>
      </trkpt>
      <trkpt lat="44.98921" lon="5.84985">
        <ele>1980.93</ele>
        <time>2020-07-16T12:14:37Z</time>
      </trkpt>
      <trkpt lat="44.98927" lon="5.84986">
        <ele>1979.01</ele>
        <time>2020-07-16T12:14:44Z</time>
      </trkpt>
      <trkpt lat="44.98933" lon="5.84986">
        <ele>1977.09</ele>
        <time>2020-07-16T12:14:50Z</time>
      </trkpt>
      <trkpt lat="44.9894" lon="5.84986">
        <ele>1974.2</ele>
        <time>2020-07-16T12:14:59Z</time>
      </trkpt>
      <trkpt lat="44.98948" lon="5.84987">
        <ele>1970.84</ele>
        <time>2020-07-16T12:15:08Z</time>
      </trkpt>
      <trkpt lat="44.98953" lon="5.84989">
        <ele>1969.4</ele>
        <time>2020-07-16T12:15:15Z</time>
      </trkpt>
      <trkpt lat="44.98954" lon="5.84989">
        <ele>1968.92</ele>
        <time>2020-07-16T12:15:16Z</time>
      </trkpt>
      <trkpt lat="44.98956" lon="5.84989">
        <ele>1967.96</ele>
        <time>2020-07-16T12:15:18Z</time>
      </trkpt>
      <trkpt lat="44.98968" lon="5.84992">
        <ele>1964.59</ele>
        <time>2020-07-16T12:15:31Z</time>
      </trkpt>
      <trkpt lat="44.98969" lon="5.84992">
        <ele>1964.59</ele>
        <time>2020-07-16T12:15:32Z</time>
      </trkpt>
      <trkpt lat="44.9897" lon="5.84992">
        <ele>1964.11</ele>
        <time>2020-07-16T12:15:33Z</time>
      </trkpt>
      <trkpt lat="44.98975" lon="5.84992">
        <ele>1961.23</ele>
        <time>2020-07-16T12:15:38Z</time>
      </trkpt>
      <trkpt lat="44.98979" lon="5.84992">
        <ele>1959.3</ele>
        <time>2020-07-16T12:15:42Z</time>
      </trkpt>
      <trkpt lat="44.98982" lon="5.84991">
        <ele>1959.78</ele>
        <time>2020-07-16T12:15:45Z</time>
      </trkpt>
      <trkpt lat="44.98984" lon="5.84989">
        <ele>1959.78</ele>
        <time>2020-07-16T12:15:47Z</time>
      </trkpt>
      <trkpt lat="44.98985" lon="5.84988">
        <ele>1960.27</ele>
        <time>2020-07-16T12:15:48Z</time>
      </trkpt>
      <trkpt lat="44.98986" lon="5.84988">
        <ele>1960.75</ele>
        <time>2020-07-16T12:15:49Z</time>
      </trkpt>
      <trkpt lat="44.98991" lon="5.84989">
        <ele>1960.27</ele>
        <time>2020-07-16T12:15:54Z</time>
      </trkpt>
      <trkpt lat="44.98993" lon="5.84989">
        <ele>1959.78</ele>
        <time>2020-07-16T12:15:55Z</time>
      </trkpt>
      <trkpt lat="44.98994" lon="5.84989">
        <ele>1959.78</ele>
        <time>2020-07-16T12:15:56Z</time>
      </trkpt>
      <trkpt lat="44.98995" lon="5.84989">
        <ele>1959.3</ele>
        <time>2020-07-16T12:15:57Z</time>
      </trkpt>
      <trkpt lat="44.98996" lon="5.84989">
        <ele>1958.82</ele>
        <time>2020-07-16T12:15:58Z</time>
      </trkpt>
      <trkpt lat="44.99005" lon="5.84988">
        <ele>1955.46</ele>
        <time>2020-07-16T12:16:06Z</time>
      </trkpt>
      <trkpt lat="44.99019" lon="5.84988">
        <ele>1952.57</ele>
        <time>2020-07-16T12:16:17Z</time>
      </trkpt>
      <trkpt lat="44.99034" lon="5.84984">
        <ele>1949.21</ele>
        <time>2020-07-16T12:16:31Z</time>
      </trkpt>
      <trkpt lat="44.99039" lon="5.84983">
        <ele>1948.25</ele>
        <time>2020-07-16T12:16:37Z</time>
      </trkpt>
      <trkpt lat="44.9904" lon="5.84983">
        <ele>1947.77</ele>
        <time>2020-07-16T12:16:38Z</time>
      </trkpt>
      <trkpt lat="44.99041" lon="5.84983">
        <ele>1947.77</ele>
        <time>2020-07-16T12:16:39Z</time>
      </trkpt>
      <trkpt lat="44.99043" lon="5.84983">
        <ele>1947.29</ele>
        <time>2020-07-16T12:16:40Z</time>
      </trkpt>
      <trkpt lat="44.99044" lon="5.84983">
        <ele>1946.81</ele>
        <time>2020-07-16T12:16:41Z</time>
      </trkpt>
      <trkpt lat="44.99059" lon="5.84982">
        <ele>1943.92</ele>
        <time>2020-07-16T12:16:54Z</time>
      </trkpt>
      <trkpt lat="44.99065" lon="5.84982">
        <ele>1942.96</ele>
        <time>2020-07-16T12:17:00Z</time>
      </trkpt>
      <trkpt lat="44.99081" lon="5.84984">
        <ele>1939.6</ele>
        <time>2020-07-16T12:17:14Z</time>
      </trkpt>
      <trkpt lat="44.99095" lon="5.84989">
        <ele>1937.19</ele>
        <time>2020-07-16T12:17:27Z</time>
      </trkpt>
      <trkpt lat="44.99107" lon="5.84994">
        <ele>1934.31</ele>
        <time>2020-07-16T12:17:40Z</time>
      </trkpt>
      <trkpt lat="44.99114" lon="5.84999">
        <ele>1931.43</ele>
        <time>2020-07-16T12:17:48Z</time>
      </trkpt>
      <trkpt lat="44.9913" lon="5.85009">
        <ele>1929.02</ele>
        <time>2020-07-16T12:18:05Z</time>
      </trkpt>
      <trkpt lat="44.99145" lon="5.85017">
        <ele>1925.66</ele>
        <time>2020-07-16T12:18:19Z</time>
      </trkpt>
      <trkpt lat="44.99161" lon="5.85022">
        <ele>1922.77</ele>
        <time>2020-07-16T12:18:34Z</time>
      </trkpt>
      <trkpt lat="44.9918" lon="5.8502">
        <ele>1919.41</ele>
        <time>2020-07-16T12:18:51Z</time>
      </trkpt>
      <trkpt lat="44.99192" lon="5.85018">
        <ele>1916.53</ele>
        <time>2020-07-16T12:19:03Z</time>
      </trkpt>
      <trkpt lat="44.99199" lon="5.85017">
        <ele>1913.64</ele>
        <time>2020-07-16T12:19:10Z</time>
      </trkpt>
      <trkpt lat="44.992" lon="5.85017">
        <ele>1913.64</ele>
        <time>2020-07-16T12:19:11Z</time>
      </trkpt>
      <trkpt lat="44.99212" lon="5.85018">
        <ele>1910.28</ele>
        <time>2020-07-16T12:19:21Z</time>
      </trkpt>
      <trkpt lat="44.99225" lon="5.85018">
        <ele>1907.39</ele>
        <time>2020-07-16T12:19:34Z</time>
      </trkpt>
      <trkpt lat="44.99234" lon="5.8502">
        <ele>1904.03</ele>
        <time>2020-07-16T12:19:42Z</time>
      </trkpt>
      <trkpt lat="44.99254" lon="5.85021">
        <ele>1902.59</ele>
        <time>2020-07-16T12:19:59Z</time>
      </trkpt>
      <trkpt lat="44.99274" lon="5.85028">
        <ele>1900.18</ele>
        <time>2020-07-16T12:20:16Z</time>
      </trkpt>
      <trkpt lat="44.99291" lon="5.85037">
        <ele>1897.78</ele>
        <time>2020-07-16T12:20:31Z</time>
      </trkpt>
      <trkpt lat="44.99309" lon="5.85048">
        <ele>1895.86</ele>
        <time>2020-07-16T12:20:48Z</time>
      </trkpt>
      <trkpt lat="44.99315" lon="5.85052">
        <ele>1892.97</ele>
        <time>2020-07-16T12:20:54Z</time>
      </trkpt>
      <trkpt lat="44.99316" lon="5.85052">
        <ele>1892.49</ele>
        <time>2020-07-16T12:20:55Z</time>
      </trkpt>
      <trkpt lat="44.99331" lon="5.85056">
        <ele>1891.05</ele>
        <time>2020-07-16T12:21:11Z</time>
      </trkpt>
      <trkpt lat="44.99334" lon="5.85058">
        <ele>1891.05</ele>
        <time>2020-07-16T12:21:15Z</time>
      </trkpt>
      <trkpt lat="44.99335" lon="5.85059">
        <ele>1891.05</ele>
        <time>2020-07-16T12:21:16Z</time>
      </trkpt>
      <trkpt lat="44.99336" lon="5.8506">
        <ele>1890.57</ele>
        <time>2020-07-16T12:21:17Z</time>
      </trkpt>
      <trkpt lat="44.99337" lon="5.8506">
        <ele>1890.57</ele>
        <time>2020-07-16T12:21:18Z</time>
      </trkpt>
      <trkpt lat="44.99339" lon="5.85062">
        <ele>1890.57</ele>
        <time>2020-07-16T12:21:20Z</time>
      </trkpt>
      <trkpt lat="44.99344" lon="5.85064">
        <ele>1890.57</ele>
        <time>2020-07-16T12:21:27Z</time>
      </trkpt>
      <trkpt lat="44.99349" lon="5.85062">
        <ele>1889.13</ele>
        <time>2020-07-16T12:21:33Z</time>
      </trkpt>
      <trkpt lat="44.9935" lon="5.85061">
        <ele>1889.13</ele>
        <time>2020-07-16T12:21:34Z</time>
      </trkpt>
      <trkpt lat="44.9936" lon="5.85052">
        <ele>1885.76</ele>
        <time>2020-07-16T12:21:46Z</time>
      </trkpt>
      <trkpt lat="44.9937" lon="5.85039">
        <ele>1882.88</ele>
        <time>2020-07-16T12:22:00Z</time>
      </trkpt>
      <trkpt lat="44.99377" lon="5.85034">
        <ele>1880.48</ele>
        <time>2020-07-16T12:22:09Z</time>
      </trkpt>
      <trkpt lat="44.99381" lon="5.85032">
        <ele>1877.59</ele>
        <time>2020-07-16T12:22:17Z</time>
      </trkpt>
      <trkpt lat="44.99385" lon="5.85032">
        <ele>1878.07</ele>
        <time>2020-07-16T12:22:35Z</time>
      </trkpt>
      <trkpt lat="44.99387" lon="5.85032">
        <ele>1877.59</ele>
        <time>2020-07-16T12:22:42Z</time>
      </trkpt>
      <trkpt lat="44.99388" lon="5.85032">
        <ele>1877.11</ele>
        <time>2020-07-16T12:22:44Z</time>
      </trkpt>
      <trkpt lat="44.99396" lon="5.85033">
        <ele>1876.15</ele>
        <time>2020-07-16T12:22:54Z</time>
      </trkpt>
      <trkpt lat="44.99415" lon="5.85034">
        <ele>1873.27</ele>
        <time>2020-07-16T12:23:12Z</time>
      </trkpt>
      <trkpt lat="44.99432" lon="5.85033">
        <ele>1871.82</ele>
        <time>2020-07-16T12:23:27Z</time>
      </trkpt>
      <trkpt lat="44.99453" lon="5.85041">
        <ele>1869.42</ele>
        <time>2020-07-16T12:23:45Z</time>
      </trkpt>
      <trkpt lat="44.99457" lon="5.85042">
        <ele>1870.86</ele>
        <time>2020-07-16T12:23:49Z</time>
      </trkpt>
      <trkpt lat="44.99478" lon="5.85049">
        <ele>1868.94</ele>
        <time>2020-07-16T12:24:07Z</time>
      </trkpt>
      <trkpt lat="44.99498" lon="5.85053">
        <ele>1867.98</ele>
        <time>2020-07-16T12:24:25Z</time>
      </trkpt>
      <trkpt lat="44.99504" lon="5.85054">
        <ele>1866.06</ele>
        <time>2020-07-16T12:24:31Z</time>
      </trkpt>
      <trkpt lat="44.99521" lon="5.85053">
        <ele>1867.02</ele>
        <time>2020-07-16T12:24:47Z</time>
      </trkpt>
      <trkpt lat="44.99542" lon="5.85053">
        <ele>1864.61</ele>
        <time>2020-07-16T12:25:05Z</time>
      </trkpt>
      <trkpt lat="44.99563" lon="5.85052">
        <ele>1863.17</ele>
        <time>2020-07-16T12:25:23Z</time>
      </trkpt>
      <trkpt lat="44.99584" lon="5.85046">
        <ele>1859.81</ele>
        <time>2020-07-16T12:25:42Z</time>
      </trkpt>
      <trkpt lat="44.99604" lon="5.85054">
        <ele>1858.37</ele>
        <time>2020-07-16T12:25:59Z</time>
      </trkpt>
      <trkpt lat="44.99613" lon="5.85059">
        <ele>1857.4</ele>
        <time>2020-07-16T12:26:07Z</time>
      </trkpt>
      <trkpt lat="44.99632" lon="5.85057">
        <ele>1855.96</ele>
        <time>2020-07-16T12:26:25Z</time>
      </trkpt>
      <trkpt lat="44.99648" lon="5.85056">
        <ele>1855</ele>
        <time>2020-07-16T12:26:39Z</time>
      </trkpt>
      <trkpt lat="44.99668" lon="5.85058">
        <ele>1854.04</ele>
        <time>2020-07-16T12:26:58Z</time>
      </trkpt>
      <trkpt lat="44.9968" lon="5.8506">
        <ele>1852.6</ele>
        <time>2020-07-16T12:27:10Z</time>
      </trkpt>
      <trkpt lat="44.99687" lon="5.85063">
        <ele>1853.56</ele>
        <time>2020-07-16T12:27:17Z</time>
      </trkpt>
      <trkpt lat="44.99699" lon="5.85071">
        <ele>1852.6</ele>
        <time>2020-07-16T12:27:29Z</time>
      </trkpt>
      <trkpt lat="44.99704" lon="5.85082">
        <ele>1852.12</ele>
        <time>2020-07-16T12:27:37Z</time>
      </trkpt>
      <trkpt lat="44.99712" lon="5.85098">
        <ele>1852.12</ele>
        <time>2020-07-16T12:27:49Z</time>
      </trkpt>
      <trkpt lat="44.99717" lon="5.85102">
        <ele>1851.64</ele>
        <time>2020-07-16T12:27:54Z</time>
      </trkpt>
      <trkpt lat="44.99738" lon="5.85111">
        <ele>1850.19</ele>
        <time>2020-07-16T12:28:14Z</time>
      </trkpt>
      <trkpt lat="44.99751" lon="5.85112">
        <ele>1848.75</ele>
        <time>2020-07-16T12:28:28Z</time>
      </trkpt>
      <trkpt lat="44.99753" lon="5.85112">
        <ele>1849.23</ele>
        <time>2020-07-16T12:28:46Z</time>
      </trkpt>
      <trkpt lat="44.99753" lon="5.85109">
        <ele>1848.75</ele>
        <time>2020-07-16T12:29:04Z</time>
      </trkpt>
      <trkpt lat="44.99754" lon="5.85108">
        <ele>1846.83</ele>
        <time>2020-07-16T12:29:27Z</time>
      </trkpt>
      <trkpt lat="44.99755" lon="5.85099">
        <ele>1847.79</ele>
        <time>2020-07-16T12:29:40Z</time>
      </trkpt>
      <trkpt lat="44.9975" lon="5.85091">
        <ele>1849.71</ele>
        <time>2020-07-16T12:29:54Z</time>
      </trkpt>
      <trkpt lat="44.99748" lon="5.85094">
        <ele>1850.68</ele>
        <time>2020-07-16T12:30:15Z</time>
      </trkpt>
      <trkpt lat="44.99746" lon="5.85094">
        <ele>1849.71</ele>
        <time>2020-07-16T12:30:29Z</time>
      </trkpt>
      <trkpt lat="44.99747" lon="5.85094">
        <ele>1851.64</ele>
        <time>2020-07-16T12:30:35Z</time>
      </trkpt>
      <trkpt lat="44.99745" lon="5.85092">
        <ele>1851.16</ele>
        <time>2020-07-16T12:30:52Z</time>
      </trkpt>
      <trkpt lat="44.99738" lon="5.85083">
        <ele>1852.6</ele>
        <time>2020-07-16T12:31:06Z</time>
      </trkpt>
      <trkpt lat="44.99732" lon="5.85073">
        <ele>1855</ele>
        <time>2020-07-16T12:31:22Z</time>
      </trkpt>
      <trkpt lat="44.99732" lon="5.85053">
        <ele>1856.44</ele>
        <time>2020-07-16T12:31:40Z</time>
      </trkpt>
      <trkpt lat="44.99736" lon="5.8505">
        <ele>1857.4</ele>
        <time>2020-07-16T12:31:46Z</time>
      </trkpt>
      <trkpt lat="44.99737" lon="5.8505">
        <ele>1857.4</ele>
        <time>2020-07-16T12:31:47Z</time>
      </trkpt>
      <trkpt lat="44.99738" lon="5.85049">
        <ele>1857.4</ele>
        <time>2020-07-16T12:31:48Z</time>
      </trkpt>
      <trkpt lat="44.99758" lon="5.85044">
        <ele>1857.89</ele>
        <time>2020-07-16T12:32:07Z</time>
      </trkpt>
      <trkpt lat="44.99777" lon="5.85043">
        <ele>1856.92</ele>
        <time>2020-07-16T12:32:25Z</time>
      </trkpt>
      <trkpt lat="44.99783" lon="5.85041">
        <ele>1856.92</ele>
        <time>2020-07-16T12:32:31Z</time>
      </trkpt>
      <trkpt lat="44.99784" lon="5.85041">
        <ele>1856.92</ele>
        <time>2020-07-16T12:32:32Z</time>
      </trkpt>
      <trkpt lat="44.99785" lon="5.85042">
        <ele>1856.92</ele>
        <time>2020-07-16T12:32:33Z</time>
      </trkpt>
      <trkpt lat="44.99787" lon="5.85042">
        <ele>1857.4</ele>
        <time>2020-07-16T12:32:34Z</time>
      </trkpt>
      <trkpt lat="44.99788" lon="5.85042">
        <ele>1857.4</ele>
        <time>2020-07-16T12:32:35Z</time>
      </trkpt>
      <trkpt lat="44.99789" lon="5.85041">
        <ele>1857.4</ele>
        <time>2020-07-16T12:32:36Z</time>
      </trkpt>
      <trkpt lat="44.9979" lon="5.85041">
        <ele>1857.4</ele>
        <time>2020-07-16T12:32:37Z</time>
      </trkpt>
      <trkpt lat="44.99791" lon="5.8504">
        <ele>1857.89</ele>
        <time>2020-07-16T12:32:38Z</time>
      </trkpt>
      <trkpt lat="44.99803" lon="5.85029">
        <ele>1857.89</ele>
        <time>2020-07-16T12:32:53Z</time>
      </trkpt>
      <trkpt lat="44.99804" lon="5.85029">
        <ele>1858.37</ele>
        <time>2020-07-16T12:32:54Z</time>
      </trkpt>
      <trkpt lat="44.99804" lon="5.85028">
        <ele>1858.37</ele>
        <time>2020-07-16T12:32:55Z</time>
      </trkpt>
      <trkpt lat="44.99815" lon="5.8502">
        <ele>1858.37</ele>
        <time>2020-07-16T12:33:10Z</time>
      </trkpt>
      <trkpt lat="44.99822" lon="5.85018">
        <ele>1859.81</ele>
        <time>2020-07-16T12:33:18Z</time>
      </trkpt>
      <trkpt lat="44.99823" lon="5.85018">
        <ele>1859.81</ele>
        <time>2020-07-16T12:33:19Z</time>
      </trkpt>
      <trkpt lat="44.99824" lon="5.85018">
        <ele>1859.81</ele>
        <time>2020-07-16T12:33:20Z</time>
      </trkpt>
      <trkpt lat="44.99827" lon="5.85016">
        <ele>1858.85</ele>
        <time>2020-07-16T12:33:24Z</time>
      </trkpt>
      <trkpt lat="44.99837" lon="5.85008">
        <ele>1855.48</ele>
        <time>2020-07-16T12:33:32Z</time>
      </trkpt>
      <trkpt lat="44.99843" lon="5.84998">
        <ele>1852.12</ele>
        <time>2020-07-16T12:33:41Z</time>
      </trkpt>
      <trkpt lat="44.9985" lon="5.84975">
        <ele>1849.23</ele>
        <time>2020-07-16T12:33:57Z</time>
      </trkpt>
      <trkpt lat="44.99859" lon="5.84958">
        <ele>1845.87</ele>
        <time>2020-07-16T12:34:11Z</time>
      </trkpt>
      <trkpt lat="44.99867" lon="5.84943">
        <ele>1842.5</ele>
        <time>2020-07-16T12:34:23Z</time>
      </trkpt>
      <trkpt lat="44.99877" lon="5.84927">
        <ele>1839.62</ele>
        <time>2020-07-16T12:34:37Z</time>
      </trkpt>
      <trkpt lat="44.99888" lon="5.84913">
        <ele>1835.77</ele>
        <time>2020-07-16T12:34:50Z</time>
      </trkpt>
      <trkpt lat="44.99891" lon="5.84909">
        <ele>1832.41</ele>
        <time>2020-07-16T12:34:54Z</time>
      </trkpt>
      <trkpt lat="44.99904" lon="5.84884">
        <ele>1831.45</ele>
        <time>2020-07-16T12:35:14Z</time>
      </trkpt>
      <trkpt lat="44.99918" lon="5.84869">
        <ele>1829.53</ele>
        <time>2020-07-16T12:35:30Z</time>
      </trkpt>
      <trkpt lat="44.99933" lon="5.84873">
        <ele>1826.16</ele>
        <time>2020-07-16T12:35:42Z</time>
      </trkpt>
      <trkpt lat="44.99946" lon="5.84881">
        <ele>1822.8</ele>
        <time>2020-07-16T12:35:54Z</time>
      </trkpt>
      <trkpt lat="44.99952" lon="5.84886">
        <ele>1820.87</ele>
        <time>2020-07-16T12:36:00Z</time>
      </trkpt>
      <trkpt lat="44.99953" lon="5.84886">
        <ele>1820.39</ele>
        <time>2020-07-16T12:36:01Z</time>
      </trkpt>
      <trkpt lat="44.99954" lon="5.84887">
        <ele>1819.91</ele>
        <time>2020-07-16T12:36:02Z</time>
      </trkpt>
      <trkpt lat="44.99955" lon="5.84887">
        <ele>1819.91</ele>
        <time>2020-07-16T12:36:03Z</time>
      </trkpt>
      <trkpt lat="44.99956" lon="5.84888">
        <ele>1819.43</ele>
        <time>2020-07-16T12:36:04Z</time>
      </trkpt>
      <trkpt lat="44.99957" lon="5.84889">
        <ele>1819.43</ele>
        <time>2020-07-16T12:36:05Z</time>
      </trkpt>
      <trkpt lat="44.99958" lon="5.8489">
        <ele>1818.95</ele>
        <time>2020-07-16T12:36:06Z</time>
      </trkpt>
      <trkpt lat="44.99959" lon="5.84891">
        <ele>1818.95</ele>
        <time>2020-07-16T12:36:07Z</time>
      </trkpt>
      <trkpt lat="44.9996" lon="5.84891">
        <ele>1818.47</ele>
        <time>2020-07-16T12:36:08Z</time>
      </trkpt>
      <trkpt lat="44.99961" lon="5.84892">
        <ele>1818.47</ele>
        <time>2020-07-16T12:36:09Z</time>
      </trkpt>
      <trkpt lat="44.99966" lon="5.84896">
        <ele>1817.51</ele>
        <time>2020-07-16T12:36:13Z</time>
      </trkpt>
      <trkpt lat="44.99967" lon="5.84896">
        <ele>1817.03</ele>
        <time>2020-07-16T12:36:14Z</time>
      </trkpt>
      <trkpt lat="44.99968" lon="5.84897">
        <ele>1817.03</ele>
        <time>2020-07-16T12:36:15Z</time>
      </trkpt>
      <trkpt lat="44.99969" lon="5.84898">
        <ele>1817.03</ele>
        <time>2020-07-16T12:36:16Z</time>
      </trkpt>
      <trkpt lat="44.9997" lon="5.84899">
        <ele>1816.55</ele>
        <time>2020-07-16T12:36:17Z</time>
      </trkpt>
      <trkpt lat="44.99971" lon="5.849">
        <ele>1816.07</ele>
        <time>2020-07-16T12:36:18Z</time>
      </trkpt>
      <trkpt lat="44.99994" lon="5.84907">
        <ele>1813.18</ele>
        <time>2020-07-16T12:36:35Z</time>
      </trkpt>
      <trkpt lat="45.00015" lon="5.84901">
        <ele>1809.82</ele>
        <time>2020-07-16T12:36:52Z</time>
      </trkpt>
      <trkpt lat="45.00021" lon="5.84889">
        <ele>1806.45</ele>
        <time>2020-07-16T12:37:00Z</time>
      </trkpt>
      <trkpt lat="45.00021" lon="5.84887">
        <ele>1806.45</ele>
        <time>2020-07-16T12:37:01Z</time>
      </trkpt>
      <trkpt lat="45.00027" lon="5.84861">
        <ele>1804.53</ele>
        <time>2020-07-16T12:37:18Z</time>
      </trkpt>
      <trkpt lat="45.00028" lon="5.84858">
        <ele>1803.57</ele>
        <time>2020-07-16T12:37:20Z</time>
      </trkpt>
      <trkpt lat="45.00029" lon="5.84856">
        <ele>1803.57</ele>
        <time>2020-07-16T12:37:21Z</time>
      </trkpt>
      <trkpt lat="45.00029" lon="5.84855">
        <ele>1803.09</ele>
        <time>2020-07-16T12:37:22Z</time>
      </trkpt>
      <trkpt lat="45.0003" lon="5.84853">
        <ele>1803.09</ele>
        <time>2020-07-16T12:37:23Z</time>
      </trkpt>
      <trkpt lat="45.00031" lon="5.84852">
        <ele>1802.61</ele>
        <time>2020-07-16T12:37:24Z</time>
      </trkpt>
      <trkpt lat="45.00031" lon="5.8485">
        <ele>1802.61</ele>
        <time>2020-07-16T12:37:25Z</time>
      </trkpt>
      <trkpt lat="45.00032" lon="5.84849">
        <ele>1802.61</ele>
        <time>2020-07-16T12:37:26Z</time>
      </trkpt>
      <trkpt lat="45.00045" lon="5.84844">
        <ele>1799.24</ele>
        <time>2020-07-16T12:37:37Z</time>
      </trkpt>
      <trkpt lat="45.00057" lon="5.84857">
        <ele>1795.4</ele>
        <time>2020-07-16T12:37:48Z</time>
      </trkpt>
      <trkpt lat="45.00072" lon="5.84882">
        <ele>1795.4</ele>
        <time>2020-07-16T12:38:06Z</time>
      </trkpt>
      <trkpt lat="45.00077" lon="5.84899">
        <ele>1792.03</ele>
        <time>2020-07-16T12:38:16Z</time>
      </trkpt>
      <trkpt lat="45.00077" lon="5.84905">
        <ele>1791.55</ele>
        <time>2020-07-16T12:38:20Z</time>
      </trkpt>
      <trkpt lat="45.00077" lon="5.84907">
        <ele>1791.07</ele>
        <time>2020-07-16T12:38:21Z</time>
      </trkpt>
      <trkpt lat="45.00077" lon="5.84908">
        <ele>1790.59</ele>
        <time>2020-07-16T12:38:22Z</time>
      </trkpt>
      <trkpt lat="45.00081" lon="5.84929">
        <ele>1787.71</ele>
        <time>2020-07-16T12:38:34Z</time>
      </trkpt>
      <trkpt lat="45.00083" lon="5.84955">
        <ele>1784.82</ele>
        <time>2020-07-16T12:38:49Z</time>
      </trkpt>
      <trkpt lat="45.00081" lon="5.84976">
        <ele>1781.46</ele>
        <time>2020-07-16T12:39:01Z</time>
      </trkpt>
      <trkpt lat="45.00078" lon="5.84996">
        <ele>1778.1</ele>
        <time>2020-07-16T12:39:13Z</time>
      </trkpt>
      <trkpt lat="45.00077" lon="5.85014">
        <ele>1774.73</ele>
        <time>2020-07-16T12:39:23Z</time>
      </trkpt>
      <trkpt lat="45.00085" lon="5.85043">
        <ele>1773.77</ele>
        <time>2020-07-16T12:39:40Z</time>
      </trkpt>
      <trkpt lat="45.00096" lon="5.85067">
        <ele>1770.41</ele>
        <time>2020-07-16T12:39:55Z</time>
      </trkpt>
      <trkpt lat="45.00108" lon="5.85088">
        <ele>1767.52</ele>
        <time>2020-07-16T12:40:10Z</time>
      </trkpt>
      <trkpt lat="45.00121" lon="5.85094">
        <ele>1764.64</ele>
        <time>2020-07-16T12:40:21Z</time>
      </trkpt>
      <trkpt lat="45.00131" lon="5.85083">
        <ele>1762.23</ele>
        <time>2020-07-16T12:40:31Z</time>
      </trkpt>
      <trkpt lat="45.00131" lon="5.85081">
        <ele>1761.75</ele>
        <time>2020-07-16T12:40:32Z</time>
      </trkpt>
      <trkpt lat="45.00131" lon="5.85079">
        <ele>1761.75</ele>
        <time>2020-07-16T12:40:33Z</time>
      </trkpt>
      <trkpt lat="45.00131" lon="5.85078">
        <ele>1761.27</ele>
        <time>2020-07-16T12:40:34Z</time>
      </trkpt>
      <trkpt lat="45.00131" lon="5.85076">
        <ele>1761.27</ele>
        <time>2020-07-16T12:40:35Z</time>
      </trkpt>
      <trkpt lat="45.00131" lon="5.85074">
        <ele>1760.79</ele>
        <time>2020-07-16T12:40:36Z</time>
      </trkpt>
      <trkpt lat="45.00131" lon="5.85073">
        <ele>1760.79</ele>
        <time>2020-07-16T12:40:37Z</time>
      </trkpt>
      <trkpt lat="45.00132" lon="5.85052">
        <ele>1757.43</ele>
        <time>2020-07-16T12:40:49Z</time>
      </trkpt>
      <trkpt lat="45.00135" lon="5.85036">
        <ele>1754.54</ele>
        <time>2020-07-16T12:40:59Z</time>
      </trkpt>
      <trkpt lat="45.00135" lon="5.85032">
        <ele>1754.06</ele>
        <time>2020-07-16T12:41:01Z</time>
      </trkpt>
      <trkpt lat="45.00135" lon="5.8503">
        <ele>1753.58</ele>
        <time>2020-07-16T12:41:02Z</time>
      </trkpt>
      <trkpt lat="45.00136" lon="5.85029">
        <ele>1753.58</ele>
        <time>2020-07-16T12:41:03Z</time>
      </trkpt>
      <trkpt lat="45.00136" lon="5.85027">
        <ele>1753.1</ele>
        <time>2020-07-16T12:41:04Z</time>
      </trkpt>
      <trkpt lat="45.00137" lon="5.85026">
        <ele>1753.1</ele>
        <time>2020-07-16T12:41:05Z</time>
      </trkpt>
      <trkpt lat="45.00138" lon="5.85025">
        <ele>1752.62</ele>
        <time>2020-07-16T12:41:06Z</time>
      </trkpt>
      <trkpt lat="45.00158" lon="5.8501">
        <ele>1749.74</ele>
        <time>2020-07-16T12:41:23Z</time>
      </trkpt>
      <trkpt lat="45.00164" lon="5.85009">
        <ele>1747.81</ele>
        <time>2020-07-16T12:41:27Z</time>
      </trkpt>
      <trkpt lat="45.00178" lon="5.84991">
        <ele>1747.81</ele>
        <time>2020-07-16T12:41:43Z</time>
      </trkpt>
      <trkpt lat="45.00182" lon="5.84973">
        <ele>1744.45</ele>
        <time>2020-07-16T12:41:53Z</time>
      </trkpt>
      <trkpt lat="45.00182" lon="5.84956">
        <ele>1742.53</ele>
        <time>2020-07-16T12:42:02Z</time>
      </trkpt>
      <trkpt lat="45.00182" lon="5.84955">
        <ele>1742.53</ele>
        <time>2020-07-16T12:42:03Z</time>
      </trkpt>
      <trkpt lat="45.00182" lon="5.84953">
        <ele>1742.53</ele>
        <time>2020-07-16T12:42:04Z</time>
      </trkpt>
      <trkpt lat="45.00181" lon="5.84926">
        <ele>1739.16</ele>
        <time>2020-07-16T12:42:19Z</time>
      </trkpt>
      <trkpt lat="45.00181" lon="5.84923">
        <ele>1739.16</ele>
        <time>2020-07-16T12:42:21Z</time>
      </trkpt>
      <trkpt lat="45.00181" lon="5.84921">
        <ele>1738.68</ele>
        <time>2020-07-16T12:42:22Z</time>
      </trkpt>
      <trkpt lat="45.00181" lon="5.84919">
        <ele>1738.68</ele>
        <time>2020-07-16T12:42:23Z</time>
      </trkpt>
      <trkpt lat="45.00182" lon="5.84917">
        <ele>1738.68</ele>
        <time>2020-07-16T12:42:24Z</time>
      </trkpt>
      <trkpt lat="45.00182" lon="5.84915">
        <ele>1738.2</ele>
        <time>2020-07-16T12:42:25Z</time>
      </trkpt>
      <trkpt lat="45.00182" lon="5.84913">
        <ele>1738.2</ele>
        <time>2020-07-16T12:42:26Z</time>
      </trkpt>
      <trkpt lat="45.00183" lon="5.84883">
        <ele>1734.84</ele>
        <time>2020-07-16T12:42:43Z</time>
      </trkpt>
      <trkpt lat="45.00183" lon="5.84865">
        <ele>1731.95</ele>
        <time>2020-07-16T12:42:54Z</time>
      </trkpt>
      <trkpt lat="45.00187" lon="5.84844">
        <ele>1728.59</ele>
        <time>2020-07-16T12:43:07Z</time>
      </trkpt>
      <trkpt lat="45.00201" lon="5.84835">
        <ele>1725.22</ele>
        <time>2020-07-16T12:43:19Z</time>
      </trkpt>
      <trkpt lat="45.00209" lon="5.84835">
        <ele>1723.78</ele>
        <time>2020-07-16T12:43:25Z</time>
      </trkpt>
      <trkpt lat="45.00223" lon="5.84826">
        <ele>1723.3</ele>
        <time>2020-07-16T12:43:41Z</time>
      </trkpt>
      <trkpt lat="45.00223" lon="5.84824">
        <ele>1723.3</ele>
        <time>2020-07-16T12:43:42Z</time>
      </trkpt>
      <trkpt lat="45.00216" lon="5.84803">
        <ele>1725.22</ele>
        <time>2020-07-16T12:43:59Z</time>
      </trkpt>
      <trkpt lat="45.00216" lon="5.84802">
        <ele>1724.74</ele>
        <time>2020-07-16T12:44:00Z</time>
      </trkpt>
      <trkpt lat="45.00215" lon="5.84795">
        <ele>1724.26</ele>
        <time>2020-07-16T12:44:05Z</time>
      </trkpt>
      <trkpt lat="45.00211" lon="5.84776">
        <ele>1725.22</ele>
        <time>2020-07-16T12:44:22Z</time>
      </trkpt>
      <trkpt lat="45.00211" lon="5.84775">
        <ele>1725.22</ele>
        <time>2020-07-16T12:44:23Z</time>
      </trkpt>
      <trkpt lat="45.00211" lon="5.84768">
        <ele>1725.22</ele>
        <time>2020-07-16T12:44:28Z</time>
      </trkpt>
      <trkpt lat="45.00211" lon="5.84767">
        <ele>1725.22</ele>
        <time>2020-07-16T12:44:29Z</time>
      </trkpt>
      <trkpt lat="45.00212" lon="5.84765">
        <ele>1725.22</ele>
        <time>2020-07-16T12:44:30Z</time>
      </trkpt>
      <trkpt lat="45.00215" lon="5.84749">
        <ele>1726.67</ele>
        <time>2020-07-16T12:44:44Z</time>
      </trkpt>
      <trkpt lat="45.00212" lon="5.8473">
        <ele>1727.15</ele>
        <time>2020-07-16T12:44:58Z</time>
      </trkpt>
      <trkpt lat="45.00206" lon="5.84714">
        <ele>1727.63</ele>
        <time>2020-07-16T12:45:11Z</time>
      </trkpt>
      <trkpt lat="45.00199" lon="5.847">
        <ele>1729.55</ele>
        <time>2020-07-16T12:45:23Z</time>
      </trkpt>
      <trkpt lat="45.00192" lon="5.84687">
        <ele>1730.03</ele>
        <time>2020-07-16T12:45:34Z</time>
      </trkpt>
      <trkpt lat="45.00191" lon="5.84686">
        <ele>1730.03</ele>
        <time>2020-07-16T12:45:35Z</time>
      </trkpt>
      <trkpt lat="45.00185" lon="5.8467">
        <ele>1730.51</ele>
        <time>2020-07-16T12:45:48Z</time>
      </trkpt>
      <trkpt lat="45.00183" lon="5.84659">
        <ele>1730.99</ele>
        <time>2020-07-16T12:45:57Z</time>
      </trkpt>
      <trkpt lat="45.00189" lon="5.84645">
        <ele>1731.47</ele>
        <time>2020-07-16T12:46:07Z</time>
      </trkpt>
      <trkpt lat="45.0019" lon="5.84644">
        <ele>1730.99</ele>
        <time>2020-07-16T12:46:08Z</time>
      </trkpt>
      <trkpt lat="45.00191" lon="5.84643">
        <ele>1730.51</ele>
        <time>2020-07-16T12:46:09Z</time>
      </trkpt>
      <trkpt lat="45.00192" lon="5.84642">
        <ele>1730.03</ele>
        <time>2020-07-16T12:46:10Z</time>
      </trkpt>
      <trkpt lat="45.00193" lon="5.84641">
        <ele>1729.55</ele>
        <time>2020-07-16T12:46:11Z</time>
      </trkpt>
      <trkpt lat="45.00193" lon="5.8464">
        <ele>1729.07</ele>
        <time>2020-07-16T12:46:12Z</time>
      </trkpt>
      <trkpt lat="45.00194" lon="5.84638">
        <ele>1729.07</ele>
        <time>2020-07-16T12:46:13Z</time>
      </trkpt>
      <trkpt lat="45.00199" lon="5.84632">
        <ele>1730.51</ele>
        <time>2020-07-16T12:46:19Z</time>
      </trkpt>
      <trkpt lat="45.00212" lon="5.84625">
        <ele>1730.51</ele>
        <time>2020-07-16T12:46:33Z</time>
      </trkpt>
      <trkpt lat="45.00226" lon="5.84623">
        <ele>1733.88</ele>
        <time>2020-07-16T12:46:49Z</time>
      </trkpt>
      <trkpt lat="45.00227" lon="5.84624">
        <ele>1734.84</ele>
        <time>2020-07-16T12:46:50Z</time>
      </trkpt>
      <trkpt lat="45.00228" lon="5.84624">
        <ele>1734.84</ele>
        <time>2020-07-16T12:46:51Z</time>
      </trkpt>
      <trkpt lat="45.00239" lon="5.8463">
        <ele>1737.72</ele>
        <time>2020-07-16T12:47:02Z</time>
      </trkpt>
      <trkpt lat="45.00243" lon="5.84633">
        <ele>1737.72</ele>
        <time>2020-07-16T12:47:07Z</time>
      </trkpt>
      <trkpt lat="45.00259" lon="5.84641">
        <ele>1737.72</ele>
        <time>2020-07-16T12:47:22Z</time>
      </trkpt>
      <trkpt lat="45.00264" lon="5.84642">
        <ele>1735.8</ele>
        <time>2020-07-16T12:47:27Z</time>
      </trkpt>
      <trkpt lat="45.00278" lon="5.84642">
        <ele>1740.12</ele>
        <time>2020-07-16T12:47:40Z</time>
      </trkpt>
      <trkpt lat="45.00299" lon="5.84641">
        <ele>1739.64</ele>
        <time>2020-07-16T12:47:58Z</time>
      </trkpt>
      <trkpt lat="45.00303" lon="5.8464">
        <ele>1743.01</ele>
        <time>2020-07-16T12:48:02Z</time>
      </trkpt>
      <trkpt lat="45.00321" lon="5.84638">
        <ele>1742.53</ele>
        <time>2020-07-16T12:48:18Z</time>
      </trkpt>
      <trkpt lat="45.00339" lon="5.84639">
        <ele>1743.97</ele>
        <time>2020-07-16T12:48:34Z</time>
      </trkpt>
      <trkpt lat="45.00359" lon="5.84642">
        <ele>1745.41</ele>
        <time>2020-07-16T12:48:51Z</time>
      </trkpt>
      <trkpt lat="45.00378" lon="5.84651">
        <ele>1747.81</ele>
        <time>2020-07-16T12:49:09Z</time>
      </trkpt>
      <trkpt lat="45.00395" lon="5.84663">
        <ele>1748.78</ele>
        <time>2020-07-16T12:49:25Z</time>
      </trkpt>
      <trkpt lat="45.00405" lon="5.84671">
        <ele>1752.14</ele>
        <time>2020-07-16T12:49:35Z</time>
      </trkpt>
      <trkpt lat="45.00407" lon="5.84673">
        <ele>1752.62</ele>
        <time>2020-07-16T12:49:37Z</time>
      </trkpt>
      <trkpt lat="45.00408" lon="5.84676">
        <ele>1752.62</ele>
        <time>2020-07-16T12:49:39Z</time>
      </trkpt>
      <trkpt lat="45.00409" lon="5.84677">
        <ele>1752.62</ele>
        <time>2020-07-16T12:49:40Z</time>
      </trkpt>
      <trkpt lat="45.00414" lon="5.84683">
        <ele>1752.62</ele>
        <time>2020-07-16T12:49:45Z</time>
      </trkpt>
      <trkpt lat="45.00428" lon="5.84702">
        <ele>1755.02</ele>
        <time>2020-07-16T12:50:02Z</time>
      </trkpt>
      <trkpt lat="45.00445" lon="5.84715">
        <ele>1756.47</ele>
        <time>2020-07-16T12:50:19Z</time>
      </trkpt>
      <trkpt lat="45.00458" lon="5.84734">
        <ele>1758.39</ele>
        <time>2020-07-16T12:50:36Z</time>
      </trkpt>
      <trkpt lat="45.00474" lon="5.8475">
        <ele>1761.75</ele>
        <time>2020-07-16T12:50:54Z</time>
      </trkpt>
      <trkpt lat="45.00476" lon="5.84751">
        <ele>1762.23</ele>
        <time>2020-07-16T12:50:57Z</time>
      </trkpt>
      <trkpt lat="45.00477" lon="5.84751">
        <ele>1762.23</ele>
        <time>2020-07-16T12:50:58Z</time>
      </trkpt>
      <trkpt lat="45.00495" lon="5.84753">
        <ele>1762.71</ele>
        <time>2020-07-16T12:51:13Z</time>
      </trkpt>
      <trkpt lat="45.00503" lon="5.84762">
        <ele>1766.08</ele>
        <time>2020-07-16T12:51:22Z</time>
      </trkpt>
      <trkpt lat="45.00504" lon="5.84764">
        <ele>1767.04</ele>
        <time>2020-07-16T12:51:24Z</time>
      </trkpt>
      <trkpt lat="45.00512" lon="5.84787">
        <ele>1768</ele>
        <time>2020-07-16T12:51:41Z</time>
      </trkpt>
      <trkpt lat="45.00512" lon="5.84789">
        <ele>1768</ele>
        <time>2020-07-16T12:51:42Z</time>
      </trkpt>
      <trkpt lat="45.00513" lon="5.8479">
        <ele>1768.48</ele>
        <time>2020-07-16T12:51:43Z</time>
      </trkpt>
      <trkpt lat="45.00514" lon="5.84791">
        <ele>1768.48</ele>
        <time>2020-07-16T12:51:44Z</time>
      </trkpt>
      <trkpt lat="45.00527" lon="5.84805">
        <ele>1770.89</ele>
        <time>2020-07-16T12:52:01Z</time>
      </trkpt>
      <trkpt lat="45.00538" lon="5.84801">
        <ele>1772.81</ele>
        <time>2020-07-16T12:52:15Z</time>
      </trkpt>
      <trkpt lat="45.00539" lon="5.84799">
        <ele>1773.29</ele>
        <time>2020-07-16T12:52:17Z</time>
      </trkpt>
      <trkpt lat="45.0054" lon="5.84797">
        <ele>1773.77</ele>
        <time>2020-07-16T12:52:19Z</time>
      </trkpt>
      <trkpt lat="45.00542" lon="5.84777">
        <ele>1776.17</ele>
        <time>2020-07-16T12:52:34Z</time>
      </trkpt>
      <trkpt lat="45.00547" lon="5.84755">
        <ele>1779.06</ele>
        <time>2020-07-16T12:52:52Z</time>
      </trkpt>
      <trkpt lat="45.00553" lon="5.84738">
        <ele>1781.94</ele>
        <time>2020-07-16T12:53:07Z</time>
      </trkpt>
      <trkpt lat="45.00556" lon="5.84729">
        <ele>1783.38</ele>
        <time>2020-07-16T12:53:14Z</time>
      </trkpt>
      <trkpt lat="45.00556" lon="5.84728">
        <ele>1783.38</ele>
        <time>2020-07-16T12:53:15Z</time>
      </trkpt>
      <trkpt lat="45.00556" lon="5.84726">
        <ele>1783.38</ele>
        <time>2020-07-16T12:53:16Z</time>
      </trkpt>
      <trkpt lat="45.0056" lon="5.84713">
        <ele>1785.79</ele>
        <time>2020-07-16T12:53:27Z</time>
      </trkpt>
      <trkpt lat="45.00563" lon="5.84701">
        <ele>1787.71</ele>
        <time>2020-07-16T12:53:37Z</time>
      </trkpt>
      <trkpt lat="45.0057" lon="5.84678">
        <ele>1789.63</ele>
        <time>2020-07-16T12:53:54Z</time>
      </trkpt>
      <trkpt lat="45.00571" lon="5.84676">
        <ele>1790.11</ele>
        <time>2020-07-16T12:53:55Z</time>
      </trkpt>
      <trkpt lat="45.00573" lon="5.84656">
        <ele>1792.03</ele>
        <time>2020-07-16T12:54:10Z</time>
      </trkpt>
      <trkpt lat="45.00574" lon="5.84638">
        <ele>1793.48</ele>
        <time>2020-07-16T12:54:23Z</time>
      </trkpt>
      <trkpt lat="45.00578" lon="5.84619">
        <ele>1795.88</ele>
        <time>2020-07-16T12:54:39Z</time>
      </trkpt>
      <trkpt lat="45.00579" lon="5.84618">
        <ele>1795.88</ele>
        <time>2020-07-16T12:54:40Z</time>
      </trkpt>
      <trkpt lat="45.0058" lon="5.84617">
        <ele>1796.36</ele>
        <time>2020-07-16T12:54:41Z</time>
      </trkpt>
      <trkpt lat="45.00594" lon="5.84607">
        <ele>1797.8</ele>
        <time>2020-07-16T12:54:57Z</time>
      </trkpt>
      <trkpt lat="45.006" lon="5.84608">
        <ele>1798.28</ele>
        <time>2020-07-16T12:55:02Z</time>
      </trkpt>
      <trkpt lat="45.00601" lon="5.84608">
        <ele>1798.76</ele>
        <time>2020-07-16T12:55:03Z</time>
      </trkpt>
      <trkpt lat="45.00617" lon="5.84617">
        <ele>1801.17</ele>
        <time>2020-07-16T12:55:19Z</time>
      </trkpt>
      <trkpt lat="45.0062" lon="5.84621">
        <ele>1802.13</ele>
        <time>2020-07-16T12:55:24Z</time>
      </trkpt>
      <trkpt lat="45.00621" lon="5.84622">
        <ele>1802.13</ele>
        <time>2020-07-16T12:55:25Z</time>
      </trkpt>
      <trkpt lat="45.00622" lon="5.84623">
        <ele>1802.13</ele>
        <time>2020-07-16T12:55:26Z</time>
      </trkpt>
      <trkpt lat="45.00633" lon="5.84641">
        <ele>1803.57</ele>
        <time>2020-07-16T12:55:42Z</time>
      </trkpt>
      <trkpt lat="45.00634" lon="5.84643">
        <ele>1803.57</ele>
        <time>2020-07-16T12:55:43Z</time>
      </trkpt>
      <trkpt lat="45.00642" lon="5.84662">
        <ele>1805.49</ele>
        <time>2020-07-16T12:55:58Z</time>
      </trkpt>
      <trkpt lat="45.00645" lon="5.84687">
        <ele>1807.42</ele>
        <time>2020-07-16T12:56:15Z</time>
      </trkpt>
      <trkpt lat="45.00642" lon="5.84713">
        <ele>1809.82</ele>
        <time>2020-07-16T12:56:31Z</time>
      </trkpt>
      <trkpt lat="45.00642" lon="5.84715">
        <ele>1809.82</ele>
        <time>2020-07-16T12:56:32Z</time>
      </trkpt>
      <trkpt lat="45.00645" lon="5.84744">
        <ele>1811.74</ele>
        <time>2020-07-16T12:56:50Z</time>
      </trkpt>
      <trkpt lat="45.00646" lon="5.84765">
        <ele>1813.18</ele>
        <time>2020-07-16T12:57:04Z</time>
      </trkpt>
      <trkpt lat="45.00645" lon="5.8479">
        <ele>1815.59</ele>
        <time>2020-07-16T12:57:21Z</time>
      </trkpt>
      <trkpt lat="45.00645" lon="5.84815">
        <ele>1817.99</ele>
        <time>2020-07-16T12:57:37Z</time>
      </trkpt>
      <trkpt lat="45.00649" lon="5.84839">
        <ele>1819.43</ele>
        <time>2020-07-16T12:57:52Z</time>
      </trkpt>
      <trkpt lat="45.00656" lon="5.84863">
        <ele>1818.95</ele>
        <time>2020-07-16T12:58:08Z</time>
      </trkpt>
      <trkpt lat="45.00664" lon="5.84884">
        <ele>1822.32</ele>
        <time>2020-07-16T12:58:23Z</time>
      </trkpt>
      <trkpt lat="45.00672" lon="5.84907">
        <ele>1824.24</ele>
        <time>2020-07-16T12:58:39Z</time>
      </trkpt>
      <trkpt lat="45.00681" lon="5.84931">
        <ele>1825.68</ele>
        <time>2020-07-16T12:58:55Z</time>
      </trkpt>
      <trkpt lat="45.00688" lon="5.8495">
        <ele>1827.6</ele>
        <time>2020-07-16T12:59:10Z</time>
      </trkpt>
      <trkpt lat="45.00693" lon="5.84958">
        <ele>1828.08</ele>
        <time>2020-07-16T12:59:17Z</time>
      </trkpt>
      <trkpt lat="45.00706" lon="5.84974">
        <ele>1829.53</ele>
        <time>2020-07-16T12:59:33Z</time>
      </trkpt>
      <trkpt lat="45.00714" lon="5.8498">
        <ele>1829.53</ele>
        <time>2020-07-16T12:59:41Z</time>
      </trkpt>
      <trkpt lat="45.00729" lon="5.8499">
        <ele>1829.53</ele>
        <time>2020-07-16T12:59:55Z</time>
      </trkpt>
      <trkpt lat="45.00747" lon="5.85003">
        <ele>1830.01</ele>
        <time>2020-07-16T13:00:13Z</time>
      </trkpt>
      <trkpt lat="45.00749" lon="5.85005">
        <ele>1830.01</ele>
        <time>2020-07-16T13:00:15Z</time>
      </trkpt>
      <trkpt lat="45.0075" lon="5.85005">
        <ele>1830.01</ele>
        <time>2020-07-16T13:00:16Z</time>
      </trkpt>
      <trkpt lat="45.00764" lon="5.85013">
        <ele>1830.01</ele>
        <time>2020-07-16T13:00:29Z</time>
      </trkpt>
      <trkpt lat="45.00786" lon="5.85021">
        <ele>1830.49</ele>
        <time>2020-07-16T13:00:47Z</time>
      </trkpt>
      <trkpt lat="45.00809" lon="5.85029">
        <ele>1831.45</ele>
        <time>2020-07-16T13:01:06Z</time>
      </trkpt>
      <trkpt lat="45.00825" lon="5.8504">
        <ele>1832.89</ele>
        <time>2020-07-16T13:01:22Z</time>
      </trkpt>
      <trkpt lat="45.00834" lon="5.8506">
        <ele>1832.89</ele>
        <time>2020-07-16T13:01:37Z</time>
      </trkpt>
      <trkpt lat="45.00844" lon="5.85086">
        <ele>1831.93</ele>
        <time>2020-07-16T13:01:54Z</time>
      </trkpt>
      <trkpt lat="45.0085" lon="5.85112">
        <ele>1830.01</ele>
        <time>2020-07-16T13:02:10Z</time>
      </trkpt>
      <trkpt lat="45.0085" lon="5.85118">
        <ele>1831.93</ele>
        <time>2020-07-16T13:02:14Z</time>
      </trkpt>
      <trkpt lat="45.00851" lon="5.85125">
        <ele>1831.93</ele>
        <time>2020-07-16T13:02:27Z</time>
      </trkpt>
      <trkpt lat="45.00851" lon="5.85125">
        <ele>1830.97</ele>
        <time>2020-07-16T13:02:42Z</time>
      </trkpt>
      <trkpt lat="45.0085" lon="5.85124">
        <ele>1830.97</ele>
        <time>2020-07-16T13:03:11Z</time>
      </trkpt>
      <trkpt lat="45.00849" lon="5.85124">
        <ele>1856.92</ele>
        <time>2020-07-16T13:04:16Z</time>
      </trkpt>
      <trkpt lat="45.00849" lon="5.85124">
        <ele>1830.97</ele>
        <time>2020-07-16T13:04:17Z</time>
      </trkpt>
      <trkpt lat="45.00849" lon="5.8513">
        <ele>1830.97</ele>
        <time>2020-07-16T13:04:38Z</time>
      </trkpt>
      <trkpt lat="45.00849" lon="5.85133">
        <ele>1830.97</ele>
        <time>2020-07-16T13:04:40Z</time>
      </trkpt>
      <trkpt lat="45.00853" lon="5.85139">
        <ele>1828.08</ele>
        <time>2020-07-16T13:04:45Z</time>
      </trkpt>
      <trkpt lat="45.00854" lon="5.85142">
        <ele>1828.08</ele>
        <time>2020-07-16T13:04:47Z</time>
      </trkpt>
      <trkpt lat="45.00855" lon="5.85143">
        <ele>1828.56</ele>
        <time>2020-07-16T13:04:48Z</time>
      </trkpt>
      <trkpt lat="45.00855" lon="5.85144">
        <ele>1828.56</ele>
        <time>2020-07-16T13:04:49Z</time>
      </trkpt>
      <trkpt lat="45.00871" lon="5.85167">
        <ele>1828.56</ele>
        <time>2020-07-16T13:05:08Z</time>
      </trkpt>
      <trkpt lat="45.00879" lon="5.85189">
        <ele>1827.6</ele>
        <time>2020-07-16T13:05:23Z</time>
      </trkpt>
      <trkpt lat="45.00884" lon="5.852">
        <ele>1830.49</ele>
        <time>2020-07-16T13:05:31Z</time>
      </trkpt>
      <trkpt lat="45.00902" lon="5.85222">
        <ele>1830.49</ele>
        <time>2020-07-16T13:05:49Z</time>
      </trkpt>
      <trkpt lat="45.00917" lon="5.8524">
        <ele>1832.89</ele>
        <time>2020-07-16T13:06:06Z</time>
      </trkpt>
      <trkpt lat="45.00927" lon="5.85246">
        <ele>1834.33</ele>
        <time>2020-07-16T13:06:17Z</time>
      </trkpt>
      <trkpt lat="45.0094" lon="5.85247">
        <ele>1836.74</ele>
        <time>2020-07-16T13:06:32Z</time>
      </trkpt>
      <trkpt lat="45.00951" lon="5.8524">
        <ele>1839.14</ele>
        <time>2020-07-16T13:06:43Z</time>
      </trkpt>
      <trkpt lat="45.00962" lon="5.85226">
        <ele>1842.02</ele>
        <time>2020-07-16T13:06:59Z</time>
      </trkpt>
      <trkpt lat="45.00965" lon="5.85221">
        <ele>1841.06</ele>
        <time>2020-07-16T13:07:04Z</time>
      </trkpt>
      <trkpt lat="45.00972" lon="5.85211">
        <ele>1843.95</ele>
        <time>2020-07-16T13:07:14Z</time>
      </trkpt>
      <trkpt lat="45.00975" lon="5.85206">
        <ele>1847.31</ele>
        <time>2020-07-16T13:07:19Z</time>
      </trkpt>
      <trkpt lat="45.00988" lon="5.85184">
        <ele>1849.71</ele>
        <time>2020-07-16T13:07:38Z</time>
      </trkpt>
      <trkpt lat="45.01" lon="5.85159">
        <ele>1850.68</ele>
        <time>2020-07-16T13:07:56Z</time>
      </trkpt>
      <trkpt lat="45.01009" lon="5.85135">
        <ele>1851.16</ele>
        <time>2020-07-16T13:08:12Z</time>
      </trkpt>
      <trkpt lat="45.0101" lon="5.85134">
        <ele>1851.16</ele>
        <time>2020-07-16T13:08:13Z</time>
      </trkpt>
      <trkpt lat="45.01011" lon="5.85133">
        <ele>1850.68</ele>
        <time>2020-07-16T13:08:14Z</time>
      </trkpt>
      <trkpt lat="45.01011" lon="5.85132">
        <ele>1850.68</ele>
        <time>2020-07-16T13:08:15Z</time>
      </trkpt>
      <trkpt lat="45.01013" lon="5.85128">
        <ele>1850.19</ele>
        <time>2020-07-16T13:08:20Z</time>
      </trkpt>
      <trkpt lat="45.01014" lon="5.85127">
        <ele>1850.19</ele>
        <time>2020-07-16T13:08:21Z</time>
      </trkpt>
      <trkpt lat="45.01015" lon="5.85126">
        <ele>1850.19</ele>
        <time>2020-07-16T13:08:22Z</time>
      </trkpt>
      <trkpt lat="45.01016" lon="5.85126">
        <ele>1850.19</ele>
        <time>2020-07-16T13:08:23Z</time>
      </trkpt>
      <trkpt lat="45.01017" lon="5.85125">
        <ele>1850.19</ele>
        <time>2020-07-16T13:08:24Z</time>
      </trkpt>
      <trkpt lat="45.01019" lon="5.85124">
        <ele>1849.23</ele>
        <time>2020-07-16T13:08:25Z</time>
      </trkpt>
      <trkpt lat="45.0102" lon="5.85123">
        <ele>1849.23</ele>
        <time>2020-07-16T13:08:26Z</time>
      </trkpt>
      <trkpt lat="45.01021" lon="5.85122">
        <ele>1849.23</ele>
        <time>2020-07-16T13:08:27Z</time>
      </trkpt>
      <trkpt lat="45.01034" lon="5.85104">
        <ele>1845.87</ele>
        <time>2020-07-16T13:08:44Z</time>
      </trkpt>
      <trkpt lat="45.01041" lon="5.8509">
        <ele>1842.98</ele>
        <time>2020-07-16T13:08:53Z</time>
      </trkpt>
      <trkpt lat="45.01042" lon="5.85089">
        <ele>1842.5</ele>
        <time>2020-07-16T13:08:54Z</time>
      </trkpt>
      <trkpt lat="45.01046" lon="5.85072">
        <ele>1839.62</ele>
        <time>2020-07-16T13:09:04Z</time>
      </trkpt>
      <trkpt lat="45.01049" lon="5.85056">
        <ele>1836.26</ele>
        <time>2020-07-16T13:09:14Z</time>
      </trkpt>
      <trkpt lat="45.01052" lon="5.85041">
        <ele>1833.37</ele>
        <time>2020-07-16T13:09:23Z</time>
      </trkpt>
      <trkpt lat="45.01055" lon="5.85033">
        <ele>1831.45</ele>
        <time>2020-07-16T13:09:29Z</time>
      </trkpt>
      <trkpt lat="45.01056" lon="5.85031">
        <ele>1830.97</ele>
        <time>2020-07-16T13:09:30Z</time>
      </trkpt>
      <trkpt lat="45.01056" lon="5.85029">
        <ele>1830.97</ele>
        <time>2020-07-16T13:09:31Z</time>
      </trkpt>
      <trkpt lat="45.01056" lon="5.85027">
        <ele>1830.49</ele>
        <time>2020-07-16T13:09:32Z</time>
      </trkpt>
      <trkpt lat="45.01056" lon="5.85025">
        <ele>1830.01</ele>
        <time>2020-07-16T13:09:33Z</time>
      </trkpt>
      <trkpt lat="45.0106" lon="5.85007">
        <ele>1826.64</ele>
        <time>2020-07-16T13:09:43Z</time>
      </trkpt>
      <trkpt lat="45.01066" lon="5.84995">
        <ele>1823.76</ele>
        <time>2020-07-16T13:09:51Z</time>
      </trkpt>
      <trkpt lat="45.01073" lon="5.84979">
        <ele>1820.39</ele>
        <time>2020-07-16T13:10:02Z</time>
      </trkpt>
      <trkpt lat="45.01083" lon="5.84967">
        <ele>1817.03</ele>
        <time>2020-07-16T13:10:12Z</time>
      </trkpt>
      <trkpt lat="45.01094" lon="5.84962">
        <ele>1814.15</ele>
        <time>2020-07-16T13:10:21Z</time>
      </trkpt>
      <trkpt lat="45.01101" lon="5.84964">
        <ele>1809.82</ele>
        <time>2020-07-16T13:10:26Z</time>
      </trkpt>
      <trkpt lat="45.01105" lon="5.84969">
        <ele>1806.94</ele>
        <time>2020-07-16T13:10:31Z</time>
      </trkpt>
      <trkpt lat="45.01108" lon="5.84975">
        <ele>1805.01</ele>
        <time>2020-07-16T13:10:35Z</time>
      </trkpt>
      <trkpt lat="45.01111" lon="5.84989">
        <ele>1807.9</ele>
        <time>2020-07-16T13:10:44Z</time>
      </trkpt>
      <trkpt lat="45.01112" lon="5.84997">
        <ele>1808.38</ele>
        <time>2020-07-16T13:10:52Z</time>
      </trkpt>
      <trkpt lat="45.01112" lon="5.84999">
        <ele>1807.9</ele>
        <time>2020-07-16T13:10:53Z</time>
      </trkpt>
      <trkpt lat="45.01114" lon="5.85016">
        <ele>1805.01</ele>
        <time>2020-07-16T13:11:02Z</time>
      </trkpt>
      <trkpt lat="45.01117" lon="5.85034">
        <ele>1801.65</ele>
        <time>2020-07-16T13:11:12Z</time>
      </trkpt>
      <trkpt lat="45.01121" lon="5.85057">
        <ele>1797.8</ele>
        <time>2020-07-16T13:11:25Z</time>
      </trkpt>
      <trkpt lat="45.01122" lon="5.8506">
        <ele>1797.32</ele>
        <time>2020-07-16T13:11:27Z</time>
      </trkpt>
      <trkpt lat="45.01128" lon="5.85085">
        <ele>1795.4</ele>
        <time>2020-07-16T13:11:42Z</time>
      </trkpt>
      <trkpt lat="45.01132" lon="5.85105">
        <ele>1792.03</ele>
        <time>2020-07-16T13:11:54Z</time>
      </trkpt>
      <trkpt lat="45.01134" lon="5.85112">
        <ele>1789.63</ele>
        <time>2020-07-16T13:11:58Z</time>
      </trkpt>
      <trkpt lat="45.0114" lon="5.85141">
        <ele>1789.15</ele>
        <time>2020-07-16T13:12:15Z</time>
      </trkpt>
      <trkpt lat="45.01141" lon="5.85143">
        <ele>1788.67</ele>
        <time>2020-07-16T13:12:16Z</time>
      </trkpt>
      <trkpt lat="45.01143" lon="5.85163">
        <ele>1785.31</ele>
        <time>2020-07-16T13:12:27Z</time>
      </trkpt>
      <trkpt lat="45.01143" lon="5.85167">
        <ele>1784.34</ele>
        <time>2020-07-16T13:12:29Z</time>
      </trkpt>
      <trkpt lat="45.01146" lon="5.85187">
        <ele>1780.98</ele>
        <time>2020-07-16T13:12:41Z</time>
      </trkpt>
      <trkpt lat="45.01149" lon="5.85208">
        <ele>1778.1</ele>
        <time>2020-07-16T13:12:54Z</time>
      </trkpt>
      <trkpt lat="45.01151" lon="5.85229">
        <ele>1775.21</ele>
        <time>2020-07-16T13:13:07Z</time>
      </trkpt>
      <trkpt lat="45.01154" lon="5.85252">
        <ele>1771.85</ele>
        <time>2020-07-16T13:13:21Z</time>
      </trkpt>
      <trkpt lat="45.01157" lon="5.85279">
        <ele>1768.48</ele>
        <time>2020-07-16T13:13:36Z</time>
      </trkpt>
      <trkpt lat="45.01168" lon="5.85312">
        <ele>1766.08</ele>
        <time>2020-07-16T13:13:56Z</time>
      </trkpt>
      <trkpt lat="45.01192" lon="5.85327">
        <ele>1763.2</ele>
        <time>2020-07-16T13:14:16Z</time>
      </trkpt>
      <trkpt lat="45.01207" lon="5.85346">
        <ele>1759.83</ele>
        <time>2020-07-16T13:14:32Z</time>
      </trkpt>
      <trkpt lat="45.0122" lon="5.85365">
        <ele>1756.95</ele>
        <time>2020-07-16T13:14:48Z</time>
      </trkpt>
      <trkpt lat="45.01225" lon="5.85341">
        <ele>1754.06</ele>
        <time>2020-07-16T13:15:02Z</time>
      </trkpt>
      <trkpt lat="45.01223" lon="5.85309">
        <ele>1751.18</ele>
        <time>2020-07-16T13:15:20Z</time>
      </trkpt>
      <trkpt lat="45.01227" lon="5.85282">
        <ele>1748.29</ele>
        <time>2020-07-16T13:15:35Z</time>
      </trkpt>
      <trkpt lat="45.01233" lon="5.85275">
        <ele>1746.85</ele>
        <time>2020-07-16T13:15:41Z</time>
      </trkpt>
      <trkpt lat="45.01244" lon="5.8528">
        <ele>1743.97</ele>
        <time>2020-07-16T13:15:50Z</time>
      </trkpt>
      <trkpt lat="45.0126" lon="5.85295">
        <ele>1740.6</ele>
        <time>2020-07-16T13:16:05Z</time>
      </trkpt>
      <trkpt lat="45.01277" lon="5.85302">
        <ele>1737.72</ele>
        <time>2020-07-16T13:16:19Z</time>
      </trkpt>
      <trkpt lat="45.013" lon="5.85309">
        <ele>1734.84</ele>
        <time>2020-07-16T13:16:36Z</time>
      </trkpt>
      <trkpt lat="45.0132" lon="5.85311">
        <ele>1732.43</ele>
        <time>2020-07-16T13:16:51Z</time>
      </trkpt>
      <trkpt lat="45.01345" lon="5.85306">
        <ele>1729.55</ele>
        <time>2020-07-16T13:17:10Z</time>
      </trkpt>
      <trkpt lat="45.01367" lon="5.85306">
        <ele>1728.59</ele>
        <time>2020-07-16T13:17:27Z</time>
      </trkpt>
      <trkpt lat="45.01392" lon="5.85312">
        <ele>1725.22</ele>
        <time>2020-07-16T13:17:46Z</time>
      </trkpt>
      <trkpt lat="45.01395" lon="5.85312">
        <ele>1724.74</ele>
        <time>2020-07-16T13:17:48Z</time>
      </trkpt>
      <trkpt lat="45.0142" lon="5.85304">
        <ele>1723.3</ele>
        <time>2020-07-16T13:18:08Z</time>
      </trkpt>
      <trkpt lat="45.01436" lon="5.85298">
        <ele>1720.42</ele>
        <time>2020-07-16T13:18:21Z</time>
      </trkpt>
      <trkpt lat="45.01451" lon="5.85285">
        <ele>1717.05</ele>
        <time>2020-07-16T13:18:34Z</time>
      </trkpt>
      <trkpt lat="45.01472" lon="5.85267">
        <ele>1714.17</ele>
        <time>2020-07-16T13:18:52Z</time>
      </trkpt>
      <trkpt lat="45.0149" lon="5.85245">
        <ele>1711.28</ele>
        <time>2020-07-16T13:19:10Z</time>
      </trkpt>
      <trkpt lat="45.01503" lon="5.85233">
        <ele>1708.4</ele>
        <time>2020-07-16T13:19:23Z</time>
      </trkpt>
      <trkpt lat="45.01514" lon="5.85224">
        <ele>1705.04</ele>
        <time>2020-07-16T13:19:34Z</time>
      </trkpt>
      <trkpt lat="45.01522" lon="5.85213">
        <ele>1702.15</ele>
        <time>2020-07-16T13:19:44Z</time>
      </trkpt>
      <trkpt lat="45.01529" lon="5.852">
        <ele>1698.79</ele>
        <time>2020-07-16T13:19:54Z</time>
      </trkpt>
      <trkpt lat="45.01539" lon="5.85184">
        <ele>1695.42</ele>
        <time>2020-07-16T13:20:06Z</time>
      </trkpt>
      <trkpt lat="45.0155" lon="5.85167">
        <ele>1692.54</ele>
        <time>2020-07-16T13:20:19Z</time>
      </trkpt>
      <trkpt lat="45.01563" lon="5.85146">
        <ele>1689.17</ele>
        <time>2020-07-16T13:20:34Z</time>
      </trkpt>
      <trkpt lat="45.01578" lon="5.85135">
        <ele>1685.81</ele>
        <time>2020-07-16T13:20:48Z</time>
      </trkpt>
      <trkpt lat="45.01598" lon="5.85131">
        <ele>1682.44</ele>
        <time>2020-07-16T13:21:04Z</time>
      </trkpt>
      <trkpt lat="45.01612" lon="5.85133">
        <ele>1679.56</ele>
        <time>2020-07-16T13:21:16Z</time>
      </trkpt>
      <trkpt lat="45.01627" lon="5.85133">
        <ele>1676.2</ele>
        <time>2020-07-16T13:21:28Z</time>
      </trkpt>
      <trkpt lat="45.01642" lon="5.85126">
        <ele>1672.83</ele>
        <time>2020-07-16T13:21:41Z</time>
      </trkpt>
      <trkpt lat="45.01663" lon="5.8512">
        <ele>1669.95</ele>
        <time>2020-07-16T13:22:00Z</time>
      </trkpt>
      <trkpt lat="45.01672" lon="5.8513">
        <ele>1667.54</ele>
        <time>2020-07-16T13:22:10Z</time>
      </trkpt>
      <trkpt lat="45.0168" lon="5.85147">
        <ele>1664.66</ele>
        <time>2020-07-16T13:22:22Z</time>
      </trkpt>
      <trkpt lat="45.01687" lon="5.85169">
        <ele>1661.78</ele>
        <time>2020-07-16T13:22:35Z</time>
      </trkpt>
      <trkpt lat="45.01687" lon="5.85171">
        <ele>1661.78</ele>
        <time>2020-07-16T13:22:36Z</time>
      </trkpt>
      <trkpt lat="45.01687" lon="5.85172">
        <ele>1661.78</ele>
        <time>2020-07-16T13:22:37Z</time>
      </trkpt>
      <trkpt lat="45.01684" lon="5.85196">
        <ele>1659.37</ele>
        <time>2020-07-16T13:22:52Z</time>
      </trkpt>
      <trkpt lat="45.01675" lon="5.85216">
        <ele>1656.49</ele>
        <time>2020-07-16T13:23:06Z</time>
      </trkpt>
      <trkpt lat="45.01665" lon="5.85234">
        <ele>1653.6</ele>
        <time>2020-07-16T13:23:20Z</time>
      </trkpt>
      <trkpt lat="45.01651" lon="5.85248">
        <ele>1650.24</ele>
        <time>2020-07-16T13:23:36Z</time>
      </trkpt>
      <trkpt lat="45.01641" lon="5.8526">
        <ele>1646.88</ele>
        <time>2020-07-16T13:23:48Z</time>
      </trkpt>
      <trkpt lat="45.01632" lon="5.85272">
        <ele>1643.99</ele>
        <time>2020-07-16T13:23:59Z</time>
      </trkpt>
      <trkpt lat="45.01627" lon="5.85282">
        <ele>1641.11</ele>
        <time>2020-07-16T13:24:06Z</time>
      </trkpt>
      <trkpt lat="45.01625" lon="5.85291">
        <ele>1641.59</ele>
        <time>2020-07-16T13:24:12Z</time>
      </trkpt>
      <trkpt lat="45.0162" lon="5.85308">
        <ele>1638.22</ele>
        <time>2020-07-16T13:24:23Z</time>
      </trkpt>
      <trkpt lat="45.01616" lon="5.85328">
        <ele>1635.34</ele>
        <time>2020-07-16T13:24:35Z</time>
      </trkpt>
      <trkpt lat="45.01614" lon="5.85339">
        <ele>1632.94</ele>
        <time>2020-07-16T13:24:42Z</time>
      </trkpt>
      <trkpt lat="45.01614" lon="5.8534">
        <ele>1632.46</ele>
        <time>2020-07-16T13:24:43Z</time>
      </trkpt>
      <trkpt lat="45.01614" lon="5.85352">
        <ele>1629.57</ele>
        <time>2020-07-16T13:24:50Z</time>
      </trkpt>
      <trkpt lat="45.01614" lon="5.85354">
        <ele>1629.57</ele>
        <time>2020-07-16T13:24:51Z</time>
      </trkpt>
      <trkpt lat="45.01614" lon="5.85356">
        <ele>1629.57</ele>
        <time>2020-07-16T13:24:52Z</time>
      </trkpt>
      <trkpt lat="45.01614" lon="5.85358">
        <ele>1629.09</ele>
        <time>2020-07-16T13:24:53Z</time>
      </trkpt>
      <trkpt lat="45.01615" lon="5.85359">
        <ele>1628.61</ele>
        <time>2020-07-16T13:24:54Z</time>
      </trkpt>
      <trkpt lat="45.01615" lon="5.85361">
        <ele>1628.61</ele>
        <time>2020-07-16T13:24:55Z</time>
      </trkpt>
      <trkpt lat="45.01615" lon="5.85363">
        <ele>1628.13</ele>
        <time>2020-07-16T13:24:56Z</time>
      </trkpt>
      <trkpt lat="45.01615" lon="5.85365">
        <ele>1627.65</ele>
        <time>2020-07-16T13:24:57Z</time>
      </trkpt>
      <trkpt lat="45.01615" lon="5.8538">
        <ele>1624.77</ele>
        <time>2020-07-16T13:25:09Z</time>
      </trkpt>
      <trkpt lat="45.01614" lon="5.85376">
        <ele>1623.32</ele>
        <time>2020-07-16T13:25:27Z</time>
      </trkpt>
      <trkpt lat="45.01616" lon="5.85382">
        <ele>1622.84</ele>
        <time>2020-07-16T13:25:49Z</time>
      </trkpt>
      <trkpt lat="45.01615" lon="5.85385">
        <ele>1621.88</ele>
        <time>2020-07-16T13:26:19Z</time>
      </trkpt>
      <trkpt lat="45.01616" lon="5.85394">
        <ele>1621.4</ele>
        <time>2020-07-16T13:26:31Z</time>
      </trkpt>
      <trkpt lat="45.01616" lon="5.85395">
        <ele>1621.4</ele>
        <time>2020-07-16T13:26:32Z</time>
      </trkpt>
      <trkpt lat="45.01616" lon="5.85397">
        <ele>1621.4</ele>
        <time>2020-07-16T13:26:33Z</time>
      </trkpt>
      <trkpt lat="45.01616" lon="5.85398">
        <ele>1621.4</ele>
        <time>2020-07-16T13:26:34Z</time>
      </trkpt>
      <trkpt lat="45.01615" lon="5.854">
        <ele>1620.92</ele>
        <time>2020-07-16T13:26:35Z</time>
      </trkpt>
      <trkpt lat="45.01615" lon="5.85419">
        <ele>1618.52</ele>
        <time>2020-07-16T13:26:48Z</time>
      </trkpt>
      <trkpt lat="45.01614" lon="5.85421">
        <ele>1618.52</ele>
        <time>2020-07-16T13:26:49Z</time>
      </trkpt>
      <trkpt lat="45.01615" lon="5.85423">
        <ele>1618.52</ele>
        <time>2020-07-16T13:26:50Z</time>
      </trkpt>
      <trkpt lat="45.01616" lon="5.85442">
        <ele>1615.63</ele>
        <time>2020-07-16T13:27:02Z</time>
      </trkpt>
      <trkpt lat="45.01623" lon="5.85458">
        <ele>1611.79</ele>
        <time>2020-07-16T13:27:13Z</time>
      </trkpt>
      <trkpt lat="45.0163" lon="5.85464">
        <ele>1610.35</ele>
        <time>2020-07-16T13:27:26Z</time>
      </trkpt>
      <trkpt lat="45.01636" lon="5.85467">
        <ele>1608.42</ele>
        <time>2020-07-16T13:27:31Z</time>
      </trkpt>
      <trkpt lat="45.01637" lon="5.85466">
        <ele>1607.46</ele>
        <time>2020-07-16T13:27:32Z</time>
      </trkpt>
      <trkpt lat="45.01638" lon="5.85465">
        <ele>1607.46</ele>
        <time>2020-07-16T13:27:33Z</time>
      </trkpt>
      <trkpt lat="45.01645" lon="5.85459">
        <ele>1605.54</ele>
        <time>2020-07-16T13:27:40Z</time>
      </trkpt>
      <trkpt lat="45.01646" lon="5.85459">
        <ele>1605.54</ele>
        <time>2020-07-16T13:27:41Z</time>
      </trkpt>
      <trkpt lat="45.01647" lon="5.85458">
        <ele>1605.54</ele>
        <time>2020-07-16T13:27:42Z</time>
      </trkpt>
      <trkpt lat="45.01648" lon="5.85457">
        <ele>1605.06</ele>
        <time>2020-07-16T13:27:43Z</time>
      </trkpt>
      <trkpt lat="45.01649" lon="5.85456">
        <ele>1604.58</ele>
        <time>2020-07-16T13:27:44Z</time>
      </trkpt>
      <trkpt lat="45.01651" lon="5.85455">
        <ele>1604.1</ele>
        <time>2020-07-16T13:27:46Z</time>
      </trkpt>
      <trkpt lat="45.0167" lon="5.85442">
        <ele>1603.62</ele>
        <time>2020-07-16T13:28:04Z</time>
      </trkpt>
      <trkpt lat="45.01682" lon="5.85431">
        <ele>1599.77</ele>
        <time>2020-07-16T13:28:15Z</time>
      </trkpt>
      <trkpt lat="45.01687" lon="5.85424">
        <ele>1596.41</ele>
        <time>2020-07-16T13:28:21Z</time>
      </trkpt>
      <trkpt lat="45.01688" lon="5.85423">
        <ele>1596.41</ele>
        <time>2020-07-16T13:28:22Z</time>
      </trkpt>
      <trkpt lat="45.01694" lon="5.85415">
        <ele>1597.85</ele>
        <time>2020-07-16T13:28:29Z</time>
      </trkpt>
      <trkpt lat="45.01707" lon="5.854">
        <ele>1594.96</ele>
        <time>2020-07-16T13:28:42Z</time>
      </trkpt>
      <trkpt lat="45.0172" lon="5.85391">
        <ele>1592.08</ele>
        <time>2020-07-16T13:28:57Z</time>
      </trkpt>
      <trkpt lat="45.01719" lon="5.85391">
        <ele>1590.16</ele>
        <time>2020-07-16T13:29:16Z</time>
      </trkpt>
      <trkpt lat="45.0172" lon="5.85392">
        <ele>1590.64</ele>
        <time>2020-07-16T13:29:48Z</time>
      </trkpt>
      <trkpt lat="45.0172" lon="5.85393">
        <ele>1590.16</ele>
        <time>2020-07-16T13:30:15Z</time>
      </trkpt>
      <trkpt lat="45.01721" lon="5.85392">
        <ele>1590.64</ele>
        <time>2020-07-16T13:30:43Z</time>
      </trkpt>
      <trkpt lat="45.01721" lon="5.85392">
        <ele>1590.64</ele>
        <time>2020-07-16T13:31:07Z</time>
      </trkpt>
      <trkpt lat="45.01721" lon="5.85393">
        <ele>1590.64</ele>
        <time>2020-07-16T13:31:27Z</time>
      </trkpt>
      <trkpt lat="45.0172" lon="5.85392">
        <ele>1590.64</ele>
        <time>2020-07-16T13:31:42Z</time>
      </trkpt>
      <trkpt lat="45.01719" lon="5.85392">
        <ele>1590.64</ele>
        <time>2020-07-16T13:32:01Z</time>
      </trkpt>
      <trkpt lat="45.01721" lon="5.85391">
        <ele>1590.64</ele>
        <time>2020-07-16T13:32:19Z</time>
      </trkpt>
      <trkpt lat="45.01724" lon="5.85392">
        <ele>1590.64</ele>
        <time>2020-07-16T13:32:34Z</time>
      </trkpt>
      <trkpt lat="45.01724" lon="5.85392">
        <ele>1590.64</ele>
        <time>2020-07-16T13:32:54Z</time>
      </trkpt>
      <trkpt lat="45.01725" lon="5.85392">
        <ele>1590.64</ele>
        <time>2020-07-16T13:33:10Z</time>
      </trkpt>
      <trkpt lat="45.01728" lon="5.85392">
        <ele>1590.64</ele>
        <time>2020-07-16T13:33:17Z</time>
      </trkpt>
      <trkpt lat="45.0173" lon="5.85393">
        <ele>1590.64</ele>
        <time>2020-07-16T13:33:19Z</time>
      </trkpt>
      <trkpt lat="45.01732" lon="5.85394">
        <ele>1590.64</ele>
        <time>2020-07-16T13:33:20Z</time>
      </trkpt>
      <trkpt lat="45.01733" lon="5.85394">
        <ele>1590.16</ele>
        <time>2020-07-16T13:33:21Z</time>
      </trkpt>
      <trkpt lat="45.01738" lon="5.854">
        <ele>1589.2</ele>
        <time>2020-07-16T13:33:29Z</time>
      </trkpt>
      <trkpt lat="45.01739" lon="5.85401">
        <ele>1589.2</ele>
        <time>2020-07-16T13:33:30Z</time>
      </trkpt>
      <trkpt lat="45.0174" lon="5.85401">
        <ele>1589.2</ele>
        <time>2020-07-16T13:33:31Z</time>
      </trkpt>
      <trkpt lat="45.01741" lon="5.85402">
        <ele>1589.2</ele>
        <time>2020-07-16T13:33:32Z</time>
      </trkpt>
      <trkpt lat="45.01743" lon="5.85404">
        <ele>1588.72</ele>
        <time>2020-07-16T13:33:35Z</time>
      </trkpt>
      <trkpt lat="45.01749" lon="5.85414">
        <ele>1586.79</ele>
        <time>2020-07-16T13:33:44Z</time>
      </trkpt>
      <trkpt lat="45.01749" lon="5.85415">
        <ele>1586.79</ele>
        <time>2020-07-16T13:33:45Z</time>
      </trkpt>
      <trkpt lat="45.0175" lon="5.85418">
        <ele>1586.79</ele>
        <time>2020-07-16T13:33:47Z</time>
      </trkpt>
      <trkpt lat="45.01751" lon="5.85419">
        <ele>1586.31</ele>
        <time>2020-07-16T13:33:48Z</time>
      </trkpt>
      <trkpt lat="45.01762" lon="5.85426">
        <ele>1583.43</ele>
        <time>2020-07-16T13:34:00Z</time>
      </trkpt>
      <trkpt lat="45.01767" lon="5.8543">
        <ele>1581.99</ele>
        <time>2020-07-16T13:34:06Z</time>
      </trkpt>
      <trkpt lat="45.01768" lon="5.85429">
        <ele>1581.51</ele>
        <time>2020-07-16T13:34:07Z</time>
      </trkpt>
      <trkpt lat="45.01785" lon="5.85424">
        <ele>1578.62</ele>
        <time>2020-07-16T13:34:23Z</time>
      </trkpt>
      <trkpt lat="45.01799" lon="5.85415">
        <ele>1575.26</ele>
        <time>2020-07-16T13:34:36Z</time>
      </trkpt>
      <trkpt lat="45.01805" lon="5.85429">
        <ele>1572.37</ele>
        <time>2020-07-16T13:34:48Z</time>
      </trkpt>
      <trkpt lat="45.01805" lon="5.8543">
        <ele>1572.37</ele>
        <time>2020-07-16T13:34:49Z</time>
      </trkpt>
      <trkpt lat="45.01805" lon="5.85447">
        <ele>1569.01</ele>
        <time>2020-07-16T13:34:59Z</time>
      </trkpt>
      <trkpt lat="45.0181" lon="5.85454">
        <ele>1567.57</ele>
        <time>2020-07-16T13:35:05Z</time>
      </trkpt>
      <trkpt lat="45.01815" lon="5.85454">
        <ele>1566.61</ele>
        <time>2020-07-16T13:35:10Z</time>
      </trkpt>
      <trkpt lat="45.01816" lon="5.85453">
        <ele>1566.61</ele>
        <time>2020-07-16T13:35:11Z</time>
      </trkpt>
      <trkpt lat="45.01818" lon="5.85452">
        <ele>1566.12</ele>
        <time>2020-07-16T13:35:12Z</time>
      </trkpt>
      <trkpt lat="45.01823" lon="5.8545">
        <ele>1562.76</ele>
        <time>2020-07-16T13:35:17Z</time>
      </trkpt>
      <trkpt lat="45.01829" lon="5.85445">
        <ele>1559.88</ele>
        <time>2020-07-16T13:35:23Z</time>
      </trkpt>
      <trkpt lat="45.01839" lon="5.8543">
        <ele>1559.4</ele>
        <time>2020-07-16T13:35:36Z</time>
      </trkpt>
      <trkpt lat="45.01843" lon="5.85416">
        <ele>1558.92</ele>
        <time>2020-07-16T13:35:47Z</time>
      </trkpt>
      <trkpt lat="45.01844" lon="5.85414">
        <ele>1558.43</ele>
        <time>2020-07-16T13:35:48Z</time>
      </trkpt>
      <trkpt lat="45.01847" lon="5.8541">
        <ele>1556.03</ele>
        <time>2020-07-16T13:35:52Z</time>
      </trkpt>
      <trkpt lat="45.0185" lon="5.85406">
        <ele>1557.47</ele>
        <time>2020-07-16T13:35:56Z</time>
      </trkpt>
      <trkpt lat="45.01857" lon="5.854">
        <ele>1555.55</ele>
        <time>2020-07-16T13:36:03Z</time>
      </trkpt>
      <trkpt lat="45.01858" lon="5.854">
        <ele>1555.07</ele>
        <time>2020-07-16T13:36:04Z</time>
      </trkpt>
      <trkpt lat="45.01859" lon="5.85399">
        <ele>1554.59</ele>
        <time>2020-07-16T13:36:05Z</time>
      </trkpt>
      <trkpt lat="45.0186" lon="5.85399">
        <ele>1554.11</ele>
        <time>2020-07-16T13:36:06Z</time>
      </trkpt>
      <trkpt lat="45.01861" lon="5.85398">
        <ele>1553.63</ele>
        <time>2020-07-16T13:36:07Z</time>
      </trkpt>
      <trkpt lat="45.01863" lon="5.85398">
        <ele>1553.63</ele>
        <time>2020-07-16T13:36:08Z</time>
      </trkpt>
      <trkpt lat="45.01875" lon="5.85394">
        <ele>1549.78</ele>
        <time>2020-07-16T13:36:18Z</time>
      </trkpt>
      <trkpt lat="45.0189" lon="5.85391">
        <ele>1546.42</ele>
        <time>2020-07-16T13:36:31Z</time>
      </trkpt>
      <trkpt lat="45.01897" lon="5.85391">
        <ele>1543.53</ele>
        <time>2020-07-16T13:36:37Z</time>
      </trkpt>
      <trkpt lat="45.01907" lon="5.8539">
        <ele>1542.57</ele>
        <time>2020-07-16T13:36:54Z</time>
      </trkpt>
      <trkpt lat="45.01905" lon="5.85396">
        <ele>1541.61</ele>
        <time>2020-07-16T13:37:07Z</time>
      </trkpt>
      <trkpt lat="45.01903" lon="5.854">
        <ele>1541.61</ele>
        <time>2020-07-16T13:37:14Z</time>
      </trkpt>
      <trkpt lat="45.01903" lon="5.85401">
        <ele>1541.61</ele>
        <time>2020-07-16T13:37:15Z</time>
      </trkpt>
      <trkpt lat="45.019" lon="5.8542">
        <ele>1541.61</ele>
        <time>2020-07-16T13:37:31Z</time>
      </trkpt>
      <trkpt lat="45.019" lon="5.85424">
        <ele>1541.61</ele>
        <time>2020-07-16T13:37:33Z</time>
      </trkpt>
      <trkpt lat="45.01899" lon="5.85426">
        <ele>1541.13</ele>
        <time>2020-07-16T13:37:34Z</time>
      </trkpt>
      <trkpt lat="45.01899" lon="5.85434">
        <ele>1540.17</ele>
        <time>2020-07-16T13:37:39Z</time>
      </trkpt>
      <trkpt lat="45.019" lon="5.85436">
        <ele>1540.17</ele>
        <time>2020-07-16T13:37:40Z</time>
      </trkpt>
      <trkpt lat="45.019" lon="5.85446">
        <ele>1538.73</ele>
        <time>2020-07-16T13:37:49Z</time>
      </trkpt>
      <trkpt lat="45.01901" lon="5.85448">
        <ele>1538.73</ele>
        <time>2020-07-16T13:37:50Z</time>
      </trkpt>
      <trkpt lat="45.01901" lon="5.8545">
        <ele>1538.73</ele>
        <time>2020-07-16T13:37:51Z</time>
      </trkpt>
      <trkpt lat="45.01902" lon="5.85452">
        <ele>1538.25</ele>
        <time>2020-07-16T13:37:52Z</time>
      </trkpt>
      <trkpt lat="45.01902" lon="5.85453">
        <ele>1538.25</ele>
        <time>2020-07-16T13:37:53Z</time>
      </trkpt>
      <trkpt lat="45.01903" lon="5.85455">
        <ele>1537.77</ele>
        <time>2020-07-16T13:37:54Z</time>
      </trkpt>
      <trkpt lat="45.01915" lon="5.85482">
        <ele>1534.88</ele>
        <time>2020-07-16T13:38:12Z</time>
      </trkpt>
      <trkpt lat="45.0192" lon="5.85491">
        <ele>1532.48</ele>
        <time>2020-07-16T13:38:20Z</time>
      </trkpt>
      <trkpt lat="45.01921" lon="5.85494">
        <ele>1532</ele>
        <time>2020-07-16T13:38:22Z</time>
      </trkpt>
      <trkpt lat="45.01926" lon="5.855">
        <ele>1528.63</ele>
        <time>2020-07-16T13:38:30Z</time>
      </trkpt>
      <trkpt lat="45.01928" lon="5.85517">
        <ele>1527.67</ele>
        <time>2020-07-16T13:38:44Z</time>
      </trkpt>
      <trkpt lat="45.01917" lon="5.8554">
        <ele>1527.19</ele>
        <time>2020-07-16T13:39:01Z</time>
      </trkpt>
      <trkpt lat="45.01924" lon="5.8556">
        <ele>1527.19</ele>
        <time>2020-07-16T13:39:15Z</time>
      </trkpt>
      <trkpt lat="45.01923" lon="5.85568">
        <ele>1527.19</ele>
        <time>2020-07-16T13:39:21Z</time>
      </trkpt>
      <trkpt lat="45.01928" lon="5.85586">
        <ele>1526.71</ele>
        <time>2020-07-16T13:39:36Z</time>
      </trkpt>
      <trkpt lat="45.0194" lon="5.8559">
        <ele>1522.87</ele>
        <time>2020-07-16T13:39:49Z</time>
      </trkpt>
      <trkpt lat="45.01942" lon="5.85591">
        <ele>1522.39</ele>
        <time>2020-07-16T13:39:51Z</time>
      </trkpt>
      <trkpt lat="45.01945" lon="5.85595">
        <ele>1521.42</ele>
        <time>2020-07-16T13:39:56Z</time>
      </trkpt>
      <trkpt lat="45.01951" lon="5.85606">
        <ele>1518.06</ele>
        <time>2020-07-16T13:40:06Z</time>
      </trkpt>
      <trkpt lat="45.01953" lon="5.85608">
        <ele>1517.1</ele>
        <time>2020-07-16T13:40:09Z</time>
      </trkpt>
      <trkpt lat="45.01956" lon="5.8561">
        <ele>1516.14</ele>
        <time>2020-07-16T13:40:12Z</time>
      </trkpt>
      <trkpt lat="45.01965" lon="5.8561">
        <ele>1512.77</ele>
        <time>2020-07-16T13:40:22Z</time>
      </trkpt>
      <trkpt lat="45.01976" lon="5.85611">
        <ele>1509.41</ele>
        <time>2020-07-16T13:40:34Z</time>
      </trkpt>
      <trkpt lat="45.01987" lon="5.85608">
        <ele>1507.48</ele>
        <time>2020-07-16T13:40:46Z</time>
      </trkpt>
      <trkpt lat="45.01989" lon="5.85608">
        <ele>1506.52</ele>
        <time>2020-07-16T13:40:48Z</time>
      </trkpt>
      <trkpt lat="45.01992" lon="5.85608">
        <ele>1506.04</ele>
        <time>2020-07-16T13:40:52Z</time>
      </trkpt>
      <trkpt lat="45.01998" lon="5.85607">
        <ele>1505.56</ele>
        <time>2020-07-16T13:40:57Z</time>
      </trkpt>
      <trkpt lat="45.02008" lon="5.8561">
        <ele>1502.2</ele>
        <time>2020-07-16T13:41:07Z</time>
      </trkpt>
      <trkpt lat="45.02013" lon="5.8561">
        <ele>1500.76</ele>
        <time>2020-07-16T13:41:12Z</time>
      </trkpt>
      <trkpt lat="45.02029" lon="5.85613">
        <ele>1497.39</ele>
        <time>2020-07-16T13:41:27Z</time>
      </trkpt>
      <trkpt lat="45.02039" lon="5.85615">
        <ele>1494.51</ele>
        <time>2020-07-16T13:41:39Z</time>
      </trkpt>
      <trkpt lat="45.02043" lon="5.85622">
        <ele>1492.58</ele>
        <time>2020-07-16T13:41:47Z</time>
      </trkpt>
      <trkpt lat="45.02051" lon="5.85629">
        <ele>1489.7</ele>
        <time>2020-07-16T13:41:59Z</time>
      </trkpt>
      <trkpt lat="45.02052" lon="5.8563">
        <ele>1489.22</ele>
        <time>2020-07-16T13:42:00Z</time>
      </trkpt>
      <trkpt lat="45.02053" lon="5.85631">
        <ele>1488.26</ele>
        <time>2020-07-16T13:42:02Z</time>
      </trkpt>
      <trkpt lat="45.0206" lon="5.85633">
        <ele>1484.89</ele>
        <time>2020-07-16T13:42:12Z</time>
      </trkpt>
      <trkpt lat="45.02066" lon="5.85635">
        <ele>1482.01</ele>
        <time>2020-07-16T13:42:21Z</time>
      </trkpt>
      <trkpt lat="45.02073" lon="5.85641">
        <ele>1479.13</ele>
        <time>2020-07-16T13:42:34Z</time>
      </trkpt>
      <trkpt lat="45.02077" lon="5.85642">
        <ele>1478.65</ele>
        <time>2020-07-16T13:42:38Z</time>
      </trkpt>
      <trkpt lat="45.02084" lon="5.8565">
        <ele>1475.76</ele>
        <time>2020-07-16T13:42:47Z</time>
      </trkpt>
      <trkpt lat="45.02084" lon="5.85656">
        <ele>1472.4</ele>
        <time>2020-07-16T13:42:51Z</time>
      </trkpt>
      <trkpt lat="45.02084" lon="5.85659">
        <ele>1471.44</ele>
        <time>2020-07-16T13:42:53Z</time>
      </trkpt>
      <trkpt lat="45.02084" lon="5.85665">
        <ele>1472.88</ele>
        <time>2020-07-16T13:43:07Z</time>
      </trkpt>
      <trkpt lat="45.02082" lon="5.8567">
        <ele>1470.47</ele>
        <time>2020-07-16T13:43:22Z</time>
      </trkpt>
      <trkpt lat="45.02081" lon="5.85672">
        <ele>1470.95</ele>
        <time>2020-07-16T13:43:24Z</time>
      </trkpt>
      <trkpt lat="45.0208" lon="5.85674">
        <ele>1471.44</ele>
        <time>2020-07-16T13:43:25Z</time>
      </trkpt>
      <trkpt lat="45.0208" lon="5.85675">
        <ele>1471.44</ele>
        <time>2020-07-16T13:43:26Z</time>
      </trkpt>
      <trkpt lat="45.0208" lon="5.85677">
        <ele>1471.44</ele>
        <time>2020-07-16T13:43:27Z</time>
      </trkpt>
      <trkpt lat="45.02079" lon="5.85679">
        <ele>1471.44</ele>
        <time>2020-07-16T13:43:30Z</time>
      </trkpt>
      <trkpt lat="45.02078" lon="5.85681">
        <ele>1470.95</ele>
        <time>2020-07-16T13:43:31Z</time>
      </trkpt>
      <trkpt lat="45.02077" lon="5.85682">
        <ele>1470.47</ele>
        <time>2020-07-16T13:43:32Z</time>
      </trkpt>
      <trkpt lat="45.02074" lon="5.85692">
        <ele>1469.51</ele>
        <time>2020-07-16T13:43:43Z</time>
      </trkpt>
      <trkpt lat="45.02074" lon="5.85693">
        <ele>1469.51</ele>
        <time>2020-07-16T13:43:44Z</time>
      </trkpt>
      <trkpt lat="45.02074" lon="5.85695">
        <ele>1469.03</ele>
        <time>2020-07-16T13:43:45Z</time>
      </trkpt>
      <trkpt lat="45.02074" lon="5.85699">
        <ele>1469.03</ele>
        <time>2020-07-16T13:43:48Z</time>
      </trkpt>
      <trkpt lat="45.02074" lon="5.857">
        <ele>1468.55</ele>
        <time>2020-07-16T13:43:49Z</time>
      </trkpt>
      <trkpt lat="45.02073" lon="5.85716">
        <ele>1467.11</ele>
        <time>2020-07-16T13:44:00Z</time>
      </trkpt>
      <trkpt lat="45.02075" lon="5.8573">
        <ele>1465.19</ele>
        <time>2020-07-16T13:44:13Z</time>
      </trkpt>
      <trkpt lat="45.02078" lon="5.8574">
        <ele>1461.82</ele>
        <time>2020-07-16T13:44:23Z</time>
      </trkpt>
      <trkpt lat="45.02078" lon="5.85743">
        <ele>1461.82</ele>
        <time>2020-07-16T13:44:25Z</time>
      </trkpt>
      <trkpt lat="45.02079" lon="5.85759">
        <ele>1458.94</ele>
        <time>2020-07-16T13:44:41Z</time>
      </trkpt>
      <trkpt lat="45.02087" lon="5.85765">
        <ele>1456.53</ele>
        <time>2020-07-16T13:44:53Z</time>
      </trkpt>
      <trkpt lat="45.02089" lon="5.85767">
        <ele>1455.57</ele>
        <time>2020-07-16T13:44:56Z</time>
      </trkpt>
      <trkpt lat="45.02091" lon="5.85771">
        <ele>1454.13</ele>
        <time>2020-07-16T13:45:06Z</time>
      </trkpt>
      <trkpt lat="45.02096" lon="5.8577">
        <ele>1453.17</ele>
        <time>2020-07-16T13:45:30Z</time>
      </trkpt>
      <trkpt lat="45.02096" lon="5.85771">
        <ele>1452.21</ele>
        <time>2020-07-16T13:46:00Z</time>
      </trkpt>
      <trkpt lat="45.021" lon="5.85774">
        <ele>1451.73</ele>
        <time>2020-07-16T13:46:03Z</time>
      </trkpt>
      <trkpt lat="45.0211" lon="5.85785">
        <ele>1448.36</ele>
        <time>2020-07-16T13:46:14Z</time>
      </trkpt>
      <trkpt lat="45.02121" lon="5.8579">
        <ele>1445</ele>
        <time>2020-07-16T13:46:24Z</time>
      </trkpt>
      <trkpt lat="45.02122" lon="5.8579">
        <ele>1445</ele>
        <time>2020-07-16T13:46:25Z</time>
      </trkpt>
      <trkpt lat="45.02135" lon="5.85793">
        <ele>1442.11</ele>
        <time>2020-07-16T13:46:37Z</time>
      </trkpt>
      <trkpt lat="45.02147" lon="5.85793">
        <ele>1438.27</ele>
        <time>2020-07-16T13:46:49Z</time>
      </trkpt>
      <trkpt lat="45.0215" lon="5.85793">
        <ele>1435.39</ele>
        <time>2020-07-16T13:46:52Z</time>
      </trkpt>
      <trkpt lat="45.02153" lon="5.85791">
        <ele>1437.79</ele>
        <time>2020-07-16T13:46:56Z</time>
      </trkpt>
      <trkpt lat="45.02162" lon="5.85788">
        <ele>1434.42</ele>
        <time>2020-07-16T13:47:06Z</time>
      </trkpt>
      <trkpt lat="45.02173" lon="5.85785">
        <ele>1431.54</ele>
        <time>2020-07-16T13:47:16Z</time>
      </trkpt>
      <trkpt lat="45.02186" lon="5.85786">
        <ele>1428.18</ele>
        <time>2020-07-16T13:47:27Z</time>
      </trkpt>
      <trkpt lat="45.02191" lon="5.85785">
        <ele>1425.77</ele>
        <time>2020-07-16T13:47:31Z</time>
      </trkpt>
      <trkpt lat="45.0221" lon="5.85782">
        <ele>1423.37</ele>
        <time>2020-07-16T13:47:48Z</time>
      </trkpt>
      <trkpt lat="45.02216" lon="5.85776">
        <ele>1421.45</ele>
        <time>2020-07-16T13:47:56Z</time>
      </trkpt>
      <trkpt lat="45.02224" lon="5.85771">
        <ele>1418.56</ele>
        <time>2020-07-16T13:48:14Z</time>
      </trkpt>
      <trkpt lat="45.02222" lon="5.85772">
        <ele>1417.6</ele>
        <time>2020-07-16T13:48:37Z</time>
      </trkpt>
      <trkpt lat="45.02221" lon="5.85769">
        <ele>1417.6</ele>
        <time>2020-07-16T13:49:00Z</time>
      </trkpt>
      <trkpt lat="45.02226" lon="5.85761">
        <ele>1415.68</ele>
        <time>2020-07-16T13:49:27Z</time>
      </trkpt>
      <trkpt lat="45.02242" lon="5.85764">
        <ele>1412.79</ele>
        <time>2020-07-16T13:49:42Z</time>
      </trkpt>
      <trkpt lat="45.02255" lon="5.85769">
        <ele>1409.91</ele>
        <time>2020-07-16T13:49:54Z</time>
      </trkpt>
      <trkpt lat="45.02267" lon="5.85769">
        <ele>1406.55</ele>
        <time>2020-07-16T13:50:05Z</time>
      </trkpt>
      <trkpt lat="45.02278" lon="5.85768">
        <ele>1403.66</ele>
        <time>2020-07-16T13:50:16Z</time>
      </trkpt>
      <trkpt lat="45.02289" lon="5.85774">
        <ele>1400.3</ele>
        <time>2020-07-16T13:50:27Z</time>
      </trkpt>
      <trkpt lat="45.023" lon="5.85778">
        <ele>1397.41</ele>
        <time>2020-07-16T13:50:43Z</time>
      </trkpt>
      <trkpt lat="45.02307" lon="5.85781">
        <ele>1394.05</ele>
        <time>2020-07-16T13:50:57Z</time>
      </trkpt>
      <trkpt lat="45.02319" lon="5.85779">
        <ele>1391.17</ele>
        <time>2020-07-16T13:51:09Z</time>
      </trkpt>
      <trkpt lat="45.02333" lon="5.85776">
        <ele>1387.8</ele>
        <time>2020-07-16T13:51:23Z</time>
      </trkpt>
      <trkpt lat="45.0235" lon="5.85773">
        <ele>1384.44</ele>
        <time>2020-07-16T13:51:36Z</time>
      </trkpt>
      <trkpt lat="45.02362" lon="5.8577">
        <ele>1381.55</ele>
        <time>2020-07-16T13:51:49Z</time>
      </trkpt>
      <trkpt lat="45.02364" lon="5.8577">
        <ele>1381.07</ele>
        <time>2020-07-16T13:51:50Z</time>
      </trkpt>
      <trkpt lat="45.02367" lon="5.85769">
        <ele>1380.59</ele>
        <time>2020-07-16T13:51:52Z</time>
      </trkpt>
      <trkpt lat="45.02379" lon="5.85769">
        <ele>1377.23</ele>
        <time>2020-07-16T13:52:04Z</time>
      </trkpt>
      <trkpt lat="45.02385" lon="5.85769">
        <ele>1374.34</ele>
        <time>2020-07-16T13:52:19Z</time>
      </trkpt>
      <trkpt lat="45.024" lon="5.85768">
        <ele>1370.98</ele>
        <time>2020-07-16T13:52:35Z</time>
      </trkpt>
      <trkpt lat="45.02415" lon="5.85777">
        <ele>1368.09</ele>
        <time>2020-07-16T13:52:48Z</time>
      </trkpt>
      <trkpt lat="45.02421" lon="5.8578">
        <ele>1367.13</ele>
        <time>2020-07-16T13:52:54Z</time>
      </trkpt>
      <trkpt lat="45.02436" lon="5.85791">
        <ele>1364.25</ele>
        <time>2020-07-16T13:53:10Z</time>
      </trkpt>
      <trkpt lat="45.02453" lon="5.858">
        <ele>1361.36</ele>
        <time>2020-07-16T13:53:26Z</time>
      </trkpt>
      <trkpt lat="45.02471" lon="5.85811">
        <ele>1358.96</ele>
        <time>2020-07-16T13:53:43Z</time>
      </trkpt>
      <trkpt lat="45.02486" lon="5.8582">
        <ele>1355.6</ele>
        <time>2020-07-16T13:53:56Z</time>
      </trkpt>
      <trkpt lat="45.02508" lon="5.8583">
        <ele>1355.6</ele>
        <time>2020-07-16T13:54:15Z</time>
      </trkpt>
      <trkpt lat="45.02529" lon="5.8584">
        <ele>1353.67</ele>
        <time>2020-07-16T13:54:34Z</time>
      </trkpt>
      <trkpt lat="45.02559" lon="5.85848">
        <ele>1351.27</ele>
        <time>2020-07-16T13:54:58Z</time>
      </trkpt>
      <trkpt lat="45.0258" lon="5.85852">
        <ele>1349.83</ele>
        <time>2020-07-16T13:55:16Z</time>
      </trkpt>
      <trkpt lat="45.02607" lon="5.85854">
        <ele>1347.91</ele>
        <time>2020-07-16T13:55:38Z</time>
      </trkpt>
      <trkpt lat="45.02631" lon="5.85859">
        <ele>1346.46</ele>
        <time>2020-07-16T13:55:57Z</time>
      </trkpt>
      <trkpt lat="45.02649" lon="5.85857">
        <ele>1345.98</ele>
        <time>2020-07-16T13:56:13Z</time>
      </trkpt>
      <trkpt lat="45.02664" lon="5.85842">
        <ele>1345.98</ele>
        <time>2020-07-16T13:56:29Z</time>
      </trkpt>
      <trkpt lat="45.02688" lon="5.85817">
        <ele>1345.02</ele>
        <time>2020-07-16T13:56:53Z</time>
      </trkpt>
      <trkpt lat="45.02714" lon="5.85802">
        <ele>1344.06</ele>
        <time>2020-07-16T13:57:14Z</time>
      </trkpt>
      <trkpt lat="45.02736" lon="5.85799">
        <ele>1344.06</ele>
        <time>2020-07-16T13:57:32Z</time>
      </trkpt>
      <trkpt lat="45.02756" lon="5.858">
        <ele>1343.58</ele>
        <time>2020-07-16T13:57:49Z</time>
      </trkpt>
      <trkpt lat="45.02776" lon="5.85789">
        <ele>1343.1</ele>
        <time>2020-07-16T13:58:07Z</time>
      </trkpt>
      <trkpt lat="45.02796" lon="5.85771">
        <ele>1342.62</ele>
        <time>2020-07-16T13:58:27Z</time>
      </trkpt>
      <trkpt lat="45.02816" lon="5.85756">
        <ele>1341.18</ele>
        <time>2020-07-16T13:58:46Z</time>
      </trkpt>
      <trkpt lat="45.02817" lon="5.85754">
        <ele>1341.18</ele>
        <time>2020-07-16T13:58:48Z</time>
      </trkpt>
      <trkpt lat="45.0283" lon="5.85745">
        <ele>1340.22</ele>
        <time>2020-07-16T13:59:02Z</time>
      </trkpt>
      <trkpt lat="45.02831" lon="5.85745">
        <ele>1340.22</ele>
        <time>2020-07-16T13:59:03Z</time>
      </trkpt>
      <trkpt lat="45.02832" lon="5.85744">
        <ele>1340.22</ele>
        <time>2020-07-16T13:59:04Z</time>
      </trkpt>
      <trkpt lat="45.02833" lon="5.85742">
        <ele>1340.7</ele>
        <time>2020-07-16T13:59:05Z</time>
      </trkpt>
      <trkpt lat="45.02834" lon="5.85741">
        <ele>1340.7</ele>
        <time>2020-07-16T13:59:06Z</time>
      </trkpt>
      <trkpt lat="45.0285" lon="5.8573">
        <ele>1340.22</ele>
        <time>2020-07-16T13:59:23Z</time>
      </trkpt>
      <trkpt lat="45.02856" lon="5.85726">
        <ele>1340.22</ele>
        <time>2020-07-16T13:59:36Z</time>
      </trkpt>
      <trkpt lat="45.02857" lon="5.85725">
        <ele>1340.22</ele>
        <time>2020-07-16T13:59:37Z</time>
      </trkpt>
      <trkpt lat="45.02858" lon="5.85725">
        <ele>1340.22</ele>
        <time>2020-07-16T13:59:38Z</time>
      </trkpt>
      <trkpt lat="45.02859" lon="5.85724">
        <ele>1340.22</ele>
        <time>2020-07-16T13:59:39Z</time>
      </trkpt>
      <trkpt lat="45.02864" lon="5.85721">
        <ele>1338.77</ele>
        <time>2020-07-16T13:59:46Z</time>
      </trkpt>
    </trkseg>
  </trk>
</gpx>